<?xml version="1.0" encoding="UTF-8" standalone="no" ?>
<gpx xmlns="http://www.topografix.com/GPX/1/1" xmlns:xsi="http://www.w3.org/2001/XMLSchema-instance" xsi:schemaLocation="http://www.topografix.com/GPX/1/1 http://www.topografix.com/GPX/1/1/gpx.xsd" version="1.1" creator="VisuGPX - https://www.visugpx.com">
  <metadata>
    <name>Randonnée ALU - Baie de Somme SUD - 16 km</name>
    <desc><![CDATA[Randonnée du 23 mars 2013 dans la baie de Somme - SUD de 16 km avec une observation des phoques à la pointe de Hourdelle.]]></desc>
  </metadata>
  <trk>
    <name><![CDATA[2013-03-23T09:19:33Z]]></name>
    <trkseg>
      <trkpt lat="50.17945" lon="1.64455">
        <ele>-0.6</ele>
        <time>2013-03-23T09:19:38Z</time>
      </trkpt>
      <trkpt lat="50.17949" lon="1.64455">
        <ele>0.4</ele>
        <time>2013-03-23T09:19:41Z</time>
      </trkpt>
      <trkpt lat="50.17964" lon="1.64455">
        <ele>3</ele>
        <time>2013-03-23T09:19:49Z</time>
      </trkpt>
      <trkpt lat="50.17965" lon="1.64456">
        <ele>3.2</ele>
        <time>2013-03-23T09:19:50Z</time>
      </trkpt>
      <trkpt lat="50.17976" lon="1.64457">
        <ele>5</ele>
        <time>2013-03-23T09:19:57Z</time>
      </trkpt>
      <trkpt lat="50.17989" lon="1.64454">
        <ele>6.2</ele>
        <time>2013-03-23T09:20:05Z</time>
      </trkpt>
      <trkpt lat="50.18007" lon="1.64442">
        <ele>5.8</ele>
        <time>2013-03-23T09:20:16Z</time>
      </trkpt>
      <trkpt lat="50.18021" lon="1.64437">
        <ele>4.2</ele>
        <time>2013-03-23T09:20:24Z</time>
      </trkpt>
      <trkpt lat="50.18036" lon="1.64432">
        <ele>3</ele>
        <time>2013-03-23T09:20:34Z</time>
      </trkpt>
      <trkpt lat="50.18037" lon="1.64431">
        <ele>2.8</ele>
        <time>2013-03-23T09:20:35Z</time>
      </trkpt>
      <trkpt lat="50.18038" lon="1.64431">
        <ele>2.6</ele>
        <time>2013-03-23T09:20:36Z</time>
      </trkpt>
      <trkpt lat="50.1805" lon="1.64428">
        <ele>1.6</ele>
        <time>2013-03-23T09:20:44Z</time>
      </trkpt>
      <trkpt lat="50.18052" lon="1.64427">
        <ele>1.4</ele>
        <time>2013-03-23T09:20:45Z</time>
      </trkpt>
      <trkpt lat="50.18056" lon="1.64425">
        <ele>1.2</ele>
        <time>2013-03-23T09:20:49Z</time>
      </trkpt>
      <trkpt lat="50.18071" lon="1.64422">
        <ele>1.6</ele>
        <time>2013-03-23T09:21:01Z</time>
      </trkpt>
      <trkpt lat="50.18079" lon="1.64423">
        <ele>2.2</ele>
        <time>2013-03-23T09:21:08Z</time>
      </trkpt>
      <trkpt lat="50.18084" lon="1.64423">
        <ele>2.4</ele>
        <time>2013-03-23T09:21:12Z</time>
      </trkpt>
      <trkpt lat="50.18091" lon="1.64419">
        <ele>2.6</ele>
        <time>2013-03-23T09:21:19Z</time>
      </trkpt>
      <trkpt lat="50.18098" lon="1.64419">
        <ele>2.8</ele>
        <time>2013-03-23T09:21:25Z</time>
      </trkpt>
      <trkpt lat="50.18106" lon="1.64418">
        <ele>2.8</ele>
        <time>2013-03-23T09:21:31Z</time>
      </trkpt>
      <trkpt lat="50.18111" lon="1.64417">
        <ele>2.8</ele>
        <time>2013-03-23T09:21:36Z</time>
      </trkpt>
      <trkpt lat="50.18117" lon="1.64413">
        <ele>2.8</ele>
        <time>2013-03-23T09:21:43Z</time>
      </trkpt>
      <trkpt lat="50.1812" lon="1.64412">
        <ele>2.8</ele>
        <time>2013-03-23T09:21:46Z</time>
      </trkpt>
      <trkpt lat="50.18123" lon="1.64416">
        <ele>2.8</ele>
        <time>2013-03-23T09:21:51Z</time>
      </trkpt>
      <trkpt lat="50.18133" lon="1.64421">
        <ele>2.8</ele>
        <time>2013-03-23T09:21:58Z</time>
      </trkpt>
      <trkpt lat="50.18144" lon="1.6442">
        <ele>2.8</ele>
        <time>2013-03-23T09:22:07Z</time>
      </trkpt>
      <trkpt lat="50.18146" lon="1.6442">
        <ele>2.8</ele>
        <time>2013-03-23T09:22:08Z</time>
      </trkpt>
      <trkpt lat="50.18155" lon="1.64424">
        <ele>2.8</ele>
        <time>2013-03-23T09:22:15Z</time>
      </trkpt>
      <trkpt lat="50.18168" lon="1.64422">
        <ele>2.8</ele>
        <time>2013-03-23T09:22:25Z</time>
      </trkpt>
      <trkpt lat="50.18178" lon="1.64419">
        <ele>2.8</ele>
        <time>2013-03-23T09:22:33Z</time>
      </trkpt>
      <trkpt lat="50.1819" lon="1.64415">
        <ele>4.2</ele>
        <time>2013-03-23T09:22:43Z</time>
      </trkpt>
      <trkpt lat="50.18198" lon="1.64413">
        <ele>4.6</ele>
        <time>2013-03-23T09:22:50Z</time>
      </trkpt>
      <trkpt lat="50.18208" lon="1.64411">
        <ele>4.8</ele>
        <time>2013-03-23T09:22:58Z</time>
      </trkpt>
      <trkpt lat="50.18217" lon="1.64408">
        <ele>4.8</ele>
        <time>2013-03-23T09:23:06Z</time>
      </trkpt>
      <trkpt lat="50.18227" lon="1.64405">
        <ele>4.8</ele>
        <time>2013-03-23T09:23:14Z</time>
      </trkpt>
      <trkpt lat="50.18236" lon="1.64402">
        <ele>4.8</ele>
        <time>2013-03-23T09:23:21Z</time>
      </trkpt>
      <trkpt lat="50.18246" lon="1.64399">
        <ele>4.8</ele>
        <time>2013-03-23T09:23:29Z</time>
      </trkpt>
      <trkpt lat="50.18254" lon="1.64397">
        <ele>4.8</ele>
        <time>2013-03-23T09:23:35Z</time>
      </trkpt>
      <trkpt lat="50.18264" lon="1.64395">
        <ele>4.2</ele>
        <time>2013-03-23T09:23:42Z</time>
      </trkpt>
      <trkpt lat="50.18273" lon="1.64392">
        <ele>3.4</ele>
        <time>2013-03-23T09:23:49Z</time>
      </trkpt>
      <trkpt lat="50.18285" lon="1.64389">
        <ele>3</ele>
        <time>2013-03-23T09:23:58Z</time>
      </trkpt>
      <trkpt lat="50.18292" lon="1.64387">
        <ele>3</ele>
        <time>2013-03-23T09:24:04Z</time>
      </trkpt>
      <trkpt lat="50.18301" lon="1.64386">
        <ele>3</ele>
        <time>2013-03-23T09:24:11Z</time>
      </trkpt>
      <trkpt lat="50.18312" lon="1.64384">
        <ele>2.8</ele>
        <time>2013-03-23T09:24:20Z</time>
      </trkpt>
      <trkpt lat="50.18325" lon="1.64381">
        <ele>2.8</ele>
        <time>2013-03-23T09:24:30Z</time>
      </trkpt>
      <trkpt lat="50.18332" lon="1.6438">
        <ele>2.8</ele>
        <time>2013-03-23T09:24:36Z</time>
      </trkpt>
      <trkpt lat="50.18342" lon="1.64379">
        <ele>2.8</ele>
        <time>2013-03-23T09:24:44Z</time>
      </trkpt>
      <trkpt lat="50.18354" lon="1.64378">
        <ele>2.8</ele>
        <time>2013-03-23T09:24:54Z</time>
      </trkpt>
      <trkpt lat="50.18364" lon="1.64378">
        <ele>2.8</ele>
        <time>2013-03-23T09:25:02Z</time>
      </trkpt>
      <trkpt lat="50.18374" lon="1.6438">
        <ele>2.8</ele>
        <time>2013-03-23T09:25:10Z</time>
      </trkpt>
      <trkpt lat="50.18386" lon="1.64381">
        <ele>2.8</ele>
        <time>2013-03-23T09:25:19Z</time>
      </trkpt>
      <trkpt lat="50.18397" lon="1.64384">
        <ele>2.8</ele>
        <time>2013-03-23T09:25:28Z</time>
      </trkpt>
      <trkpt lat="50.18406" lon="1.64385">
        <ele>2.8</ele>
        <time>2013-03-23T09:25:35Z</time>
      </trkpt>
      <trkpt lat="50.18418" lon="1.6439">
        <ele>2.8</ele>
        <time>2013-03-23T09:25:45Z</time>
      </trkpt>
      <trkpt lat="50.18427" lon="1.64394">
        <ele>2.8</ele>
        <time>2013-03-23T09:25:53Z</time>
      </trkpt>
      <trkpt lat="50.18433" lon="1.64396">
        <ele>2.8</ele>
        <time>2013-03-23T09:25:58Z</time>
      </trkpt>
      <trkpt lat="50.18442" lon="1.64397">
        <ele>2.8</ele>
        <time>2013-03-23T09:26:06Z</time>
      </trkpt>
      <trkpt lat="50.18451" lon="1.64398">
        <ele>2.8</ele>
        <time>2013-03-23T09:26:14Z</time>
      </trkpt>
      <trkpt lat="50.18459" lon="1.64398">
        <ele>2.8</ele>
        <time>2013-03-23T09:26:21Z</time>
      </trkpt>
      <trkpt lat="50.1847" lon="1.64395">
        <ele>2.8</ele>
        <time>2013-03-23T09:26:30Z</time>
      </trkpt>
      <trkpt lat="50.18482" lon="1.64392">
        <ele>2.8</ele>
        <time>2013-03-23T09:26:41Z</time>
      </trkpt>
      <trkpt lat="50.18492" lon="1.64387">
        <ele>2.8</ele>
        <time>2013-03-23T09:26:50Z</time>
      </trkpt>
      <trkpt lat="50.185" lon="1.64383">
        <ele>2.8</ele>
        <time>2013-03-23T09:26:58Z</time>
      </trkpt>
      <trkpt lat="50.18511" lon="1.64377">
        <ele>2.8</ele>
        <time>2013-03-23T09:27:07Z</time>
      </trkpt>
      <trkpt lat="50.18521" lon="1.64369">
        <ele>3.8</ele>
        <time>2013-03-23T09:27:16Z</time>
      </trkpt>
      <trkpt lat="50.18529" lon="1.64361">
        <ele>4.6</ele>
        <time>2013-03-23T09:27:24Z</time>
      </trkpt>
      <trkpt lat="50.18538" lon="1.64351">
        <ele>6</ele>
        <time>2013-03-23T09:27:33Z</time>
      </trkpt>
      <trkpt lat="50.18545" lon="1.64341">
        <ele>6.6</ele>
        <time>2013-03-23T09:27:41Z</time>
      </trkpt>
      <trkpt lat="50.18551" lon="1.64331">
        <ele>7.6</ele>
        <time>2013-03-23T09:27:48Z</time>
      </trkpt>
      <trkpt lat="50.18555" lon="1.64323">
        <ele>8.2</ele>
        <time>2013-03-23T09:27:54Z</time>
      </trkpt>
      <trkpt lat="50.18558" lon="1.64317">
        <ele>8.4</ele>
        <time>2013-03-23T09:27:58Z</time>
      </trkpt>
      <trkpt lat="50.18564" lon="1.64306">
        <ele>8.8</ele>
        <time>2013-03-23T09:28:05Z</time>
      </trkpt>
      <trkpt lat="50.18568" lon="1.64294">
        <ele>8.8</ele>
        <time>2013-03-23T09:28:12Z</time>
      </trkpt>
      <trkpt lat="50.18572" lon="1.64281">
        <ele>9</ele>
        <time>2013-03-23T09:28:20Z</time>
      </trkpt>
      <trkpt lat="50.18576" lon="1.64268">
        <ele>9</ele>
        <time>2013-03-23T09:28:28Z</time>
      </trkpt>
      <trkpt lat="50.1858" lon="1.64253">
        <ele>9</ele>
        <time>2013-03-23T09:28:38Z</time>
      </trkpt>
      <trkpt lat="50.18584" lon="1.6424">
        <ele>9.2</ele>
        <time>2013-03-23T09:28:45Z</time>
      </trkpt>
      <trkpt lat="50.18587" lon="1.64227">
        <ele>10.2</ele>
        <time>2013-03-23T09:28:53Z</time>
      </trkpt>
      <trkpt lat="50.18591" lon="1.64213">
        <ele>10.6</ele>
        <time>2013-03-23T09:29:01Z</time>
      </trkpt>
      <trkpt lat="50.18594" lon="1.642">
        <ele>10.8</ele>
        <time>2013-03-23T09:29:09Z</time>
      </trkpt>
      <trkpt lat="50.18597" lon="1.64189">
        <ele>10.8</ele>
        <time>2013-03-23T09:29:16Z</time>
      </trkpt>
      <trkpt lat="50.18601" lon="1.64176">
        <ele>11</ele>
        <time>2013-03-23T09:29:25Z</time>
      </trkpt>
      <trkpt lat="50.18604" lon="1.64163">
        <ele>11</ele>
        <time>2013-03-23T09:29:33Z</time>
      </trkpt>
      <trkpt lat="50.18607" lon="1.64152">
        <ele>11</ele>
        <time>2013-03-23T09:29:40Z</time>
      </trkpt>
      <trkpt lat="50.18609" lon="1.64143">
        <ele>11</ele>
        <time>2013-03-23T09:29:46Z</time>
      </trkpt>
      <trkpt lat="50.18611" lon="1.64132">
        <ele>11</ele>
        <time>2013-03-23T09:29:53Z</time>
      </trkpt>
      <trkpt lat="50.18614" lon="1.6412">
        <ele>11</ele>
        <time>2013-03-23T09:30:00Z</time>
      </trkpt>
      <trkpt lat="50.18618" lon="1.6411">
        <ele>11</ele>
        <time>2013-03-23T09:30:06Z</time>
      </trkpt>
      <trkpt lat="50.18622" lon="1.64095">
        <ele>11</ele>
        <time>2013-03-23T09:30:14Z</time>
      </trkpt>
      <trkpt lat="50.18623" lon="1.64093">
        <ele>11</ele>
        <time>2013-03-23T09:30:15Z</time>
      </trkpt>
      <trkpt lat="50.18627" lon="1.64083">
        <ele>11</ele>
        <time>2013-03-23T09:30:21Z</time>
      </trkpt>
      <trkpt lat="50.18628" lon="1.64081">
        <ele>11</ele>
        <time>2013-03-23T09:30:22Z</time>
      </trkpt>
      <trkpt lat="50.18632" lon="1.64067">
        <ele>11</ele>
        <time>2013-03-23T09:30:30Z</time>
      </trkpt>
      <trkpt lat="50.18637" lon="1.64051">
        <ele>11</ele>
        <time>2013-03-23T09:30:39Z</time>
      </trkpt>
      <trkpt lat="50.1864" lon="1.64038">
        <ele>11</ele>
        <time>2013-03-23T09:30:46Z</time>
      </trkpt>
      <trkpt lat="50.18644" lon="1.64026">
        <ele>11.4</ele>
        <time>2013-03-23T09:30:53Z</time>
      </trkpt>
      <trkpt lat="50.18647" lon="1.64015">
        <ele>12.2</ele>
        <time>2013-03-23T09:30:59Z</time>
      </trkpt>
      <trkpt lat="50.18649" lon="1.64007">
        <ele>12.4</ele>
        <time>2013-03-23T09:31:03Z</time>
      </trkpt>
      <trkpt lat="50.1865" lon="1.64">
        <ele>12.6</ele>
        <time>2013-03-23T09:31:07Z</time>
      </trkpt>
      <trkpt lat="50.18653" lon="1.63983">
        <ele>12.8</ele>
        <time>2013-03-23T09:31:17Z</time>
      </trkpt>
      <trkpt lat="50.18657" lon="1.63969">
        <ele>13</ele>
        <time>2013-03-23T09:31:26Z</time>
      </trkpt>
      <trkpt lat="50.18661" lon="1.63955">
        <ele>13</ele>
        <time>2013-03-23T09:31:34Z</time>
      </trkpt>
      <trkpt lat="50.18664" lon="1.63942">
        <ele>13</ele>
        <time>2013-03-23T09:31:42Z</time>
      </trkpt>
      <trkpt lat="50.18667" lon="1.63928">
        <ele>13</ele>
        <time>2013-03-23T09:31:50Z</time>
      </trkpt>
      <trkpt lat="50.1867" lon="1.63915">
        <ele>12</ele>
        <time>2013-03-23T09:31:58Z</time>
      </trkpt>
      <trkpt lat="50.18673" lon="1.63901">
        <ele>11.4</ele>
        <time>2013-03-23T09:32:06Z</time>
      </trkpt>
      <trkpt lat="50.18676" lon="1.6389">
        <ele>11.2</ele>
        <time>2013-03-23T09:32:12Z</time>
      </trkpt>
      <trkpt lat="50.18678" lon="1.6388">
        <ele>11</ele>
        <time>2013-03-23T09:32:18Z</time>
      </trkpt>
      <trkpt lat="50.18682" lon="1.63867">
        <ele>11</ele>
        <time>2013-03-23T09:32:25Z</time>
      </trkpt>
      <trkpt lat="50.18686" lon="1.63855">
        <ele>11</ele>
        <time>2013-03-23T09:32:33Z</time>
      </trkpt>
      <trkpt lat="50.18689" lon="1.63842">
        <ele>11</ele>
        <time>2013-03-23T09:32:41Z</time>
      </trkpt>
      <trkpt lat="50.18693" lon="1.63827">
        <ele>11</ele>
        <time>2013-03-23T09:32:50Z</time>
      </trkpt>
      <trkpt lat="50.18696" lon="1.63817">
        <ele>11</ele>
        <time>2013-03-23T09:32:57Z</time>
      </trkpt>
      <trkpt lat="50.18697" lon="1.6381">
        <ele>11</ele>
        <time>2013-03-23T09:33:02Z</time>
      </trkpt>
      <trkpt lat="50.18697" lon="1.63801">
        <ele>11</ele>
        <time>2013-03-23T09:33:08Z</time>
      </trkpt>
      <trkpt lat="50.18702" lon="1.63792">
        <ele>11</ele>
        <time>2013-03-23T09:33:15Z</time>
      </trkpt>
      <trkpt lat="50.18706" lon="1.63777">
        <ele>11</ele>
        <time>2013-03-23T09:33:24Z</time>
      </trkpt>
      <trkpt lat="50.1871" lon="1.63766">
        <ele>11</ele>
        <time>2013-03-23T09:33:31Z</time>
      </trkpt>
      <trkpt lat="50.18716" lon="1.63749">
        <ele>11</ele>
        <time>2013-03-23T09:33:42Z</time>
      </trkpt>
      <trkpt lat="50.18719" lon="1.63738">
        <ele>11</ele>
        <time>2013-03-23T09:33:49Z</time>
      </trkpt>
      <trkpt lat="50.18724" lon="1.63728">
        <ele>11</ele>
        <time>2013-03-23T09:33:56Z</time>
      </trkpt>
      <trkpt lat="50.18727" lon="1.63716">
        <ele>11</ele>
        <time>2013-03-23T09:34:03Z</time>
      </trkpt>
      <trkpt lat="50.1873" lon="1.63705">
        <ele>11</ele>
        <time>2013-03-23T09:34:10Z</time>
      </trkpt>
      <trkpt lat="50.18734" lon="1.63693">
        <ele>11</ele>
        <time>2013-03-23T09:34:17Z</time>
      </trkpt>
      <trkpt lat="50.18738" lon="1.63679">
        <ele>11</ele>
        <time>2013-03-23T09:34:26Z</time>
      </trkpt>
      <trkpt lat="50.18742" lon="1.63669">
        <ele>11</ele>
        <time>2013-03-23T09:34:32Z</time>
      </trkpt>
      <trkpt lat="50.18746" lon="1.63658">
        <ele>11</ele>
        <time>2013-03-23T09:34:39Z</time>
      </trkpt>
      <trkpt lat="50.1875" lon="1.63647">
        <ele>11</ele>
        <time>2013-03-23T09:34:46Z</time>
      </trkpt>
      <trkpt lat="50.18754" lon="1.63636">
        <ele>11</ele>
        <time>2013-03-23T09:34:53Z</time>
      </trkpt>
      <trkpt lat="50.18758" lon="1.63623">
        <ele>11</ele>
        <time>2013-03-23T09:35:01Z</time>
      </trkpt>
      <trkpt lat="50.18761" lon="1.6361">
        <ele>11</ele>
        <time>2013-03-23T09:35:08Z</time>
      </trkpt>
      <trkpt lat="50.18763" lon="1.63602">
        <ele>11</ele>
        <time>2013-03-23T09:35:13Z</time>
      </trkpt>
      <trkpt lat="50.18764" lon="1.63599">
        <ele>11</ele>
        <time>2013-03-23T09:35:15Z</time>
      </trkpt>
      <trkpt lat="50.18765" lon="1.63592">
        <ele>11</ele>
        <time>2013-03-23T09:35:19Z</time>
      </trkpt>
      <trkpt lat="50.18769" lon="1.63578">
        <ele>11</ele>
        <time>2013-03-23T09:35:27Z</time>
      </trkpt>
      <trkpt lat="50.18771" lon="1.63571">
        <ele>11</ele>
        <time>2013-03-23T09:35:31Z</time>
      </trkpt>
      <trkpt lat="50.18773" lon="1.63564">
        <ele>11</ele>
        <time>2013-03-23T09:35:35Z</time>
      </trkpt>
      <trkpt lat="50.1878" lon="1.6354">
        <ele>11</ele>
        <time>2013-03-23T09:35:49Z</time>
      </trkpt>
      <trkpt lat="50.18783" lon="1.6353">
        <ele>11</ele>
        <time>2013-03-23T09:35:55Z</time>
      </trkpt>
      <trkpt lat="50.18787" lon="1.63519">
        <ele>11</ele>
        <time>2013-03-23T09:36:02Z</time>
      </trkpt>
      <trkpt lat="50.1879" lon="1.63506">
        <ele>11</ele>
        <time>2013-03-23T09:36:10Z</time>
      </trkpt>
      <trkpt lat="50.18794" lon="1.63493">
        <ele>11</ele>
        <time>2013-03-23T09:36:17Z</time>
      </trkpt>
      <trkpt lat="50.18797" lon="1.63483">
        <ele>11</ele>
        <time>2013-03-23T09:36:23Z</time>
      </trkpt>
      <trkpt lat="50.18799" lon="1.63476">
        <ele>11</ele>
        <time>2013-03-23T09:36:27Z</time>
      </trkpt>
      <trkpt lat="50.18803" lon="1.63463">
        <ele>11</ele>
        <time>2013-03-23T09:36:35Z</time>
      </trkpt>
      <trkpt lat="50.18806" lon="1.63453">
        <ele>11</ele>
        <time>2013-03-23T09:36:41Z</time>
      </trkpt>
      <trkpt lat="50.18806" lon="1.63451">
        <ele>11</ele>
        <time>2013-03-23T09:36:42Z</time>
      </trkpt>
      <trkpt lat="50.18812" lon="1.63436">
        <ele>11</ele>
        <time>2013-03-23T09:36:52Z</time>
      </trkpt>
      <trkpt lat="50.18815" lon="1.63426">
        <ele>11</ele>
        <time>2013-03-23T09:36:58Z</time>
      </trkpt>
      <trkpt lat="50.18818" lon="1.63415">
        <ele>11</ele>
        <time>2013-03-23T09:37:04Z</time>
      </trkpt>
      <trkpt lat="50.18819" lon="1.63411">
        <ele>11</ele>
        <time>2013-03-23T09:37:06Z</time>
      </trkpt>
      <trkpt lat="50.18822" lon="1.63402">
        <ele>11</ele>
        <time>2013-03-23T09:37:12Z</time>
      </trkpt>
      <trkpt lat="50.18827" lon="1.63389">
        <ele>11</ele>
        <time>2013-03-23T09:37:20Z</time>
      </trkpt>
      <trkpt lat="50.18827" lon="1.63388">
        <ele>11</ele>
        <time>2013-03-23T09:37:21Z</time>
      </trkpt>
      <trkpt lat="50.18831" lon="1.63378">
        <ele>11</ele>
        <time>2013-03-23T09:37:27Z</time>
      </trkpt>
      <trkpt lat="50.18831" lon="1.63374">
        <ele>11</ele>
        <time>2013-03-23T09:37:29Z</time>
      </trkpt>
      <trkpt lat="50.18836" lon="1.63359">
        <ele>11</ele>
        <time>2013-03-23T09:37:38Z</time>
      </trkpt>
      <trkpt lat="50.18841" lon="1.63346">
        <ele>11</ele>
        <time>2013-03-23T09:37:46Z</time>
      </trkpt>
      <trkpt lat="50.18845" lon="1.63332">
        <ele>11</ele>
        <time>2013-03-23T09:37:54Z</time>
      </trkpt>
      <trkpt lat="50.18848" lon="1.63319">
        <ele>11</ele>
        <time>2013-03-23T09:38:01Z</time>
      </trkpt>
      <trkpt lat="50.18849" lon="1.63316">
        <ele>11</ele>
        <time>2013-03-23T09:38:03Z</time>
      </trkpt>
      <trkpt lat="50.18852" lon="1.63303">
        <ele>11</ele>
        <time>2013-03-23T09:38:10Z</time>
      </trkpt>
      <trkpt lat="50.18856" lon="1.63294">
        <ele>11</ele>
        <time>2013-03-23T09:38:16Z</time>
      </trkpt>
      <trkpt lat="50.18861" lon="1.63284">
        <ele>11</ele>
        <time>2013-03-23T09:38:23Z</time>
      </trkpt>
      <trkpt lat="50.18864" lon="1.6327">
        <ele>11</ele>
        <time>2013-03-23T09:38:31Z</time>
      </trkpt>
      <trkpt lat="50.18865" lon="1.63269">
        <ele>11</ele>
        <time>2013-03-23T09:38:32Z</time>
      </trkpt>
      <trkpt lat="50.18868" lon="1.6326">
        <ele>11</ele>
        <time>2013-03-23T09:38:38Z</time>
      </trkpt>
      <trkpt lat="50.18871" lon="1.63247">
        <ele>11</ele>
        <time>2013-03-23T09:38:46Z</time>
      </trkpt>
      <trkpt lat="50.18876" lon="1.63232">
        <ele>11</ele>
        <time>2013-03-23T09:38:54Z</time>
      </trkpt>
      <trkpt lat="50.18879" lon="1.63218">
        <ele>11</ele>
        <time>2013-03-23T09:39:02Z</time>
      </trkpt>
      <trkpt lat="50.18881" lon="1.63208">
        <ele>11</ele>
        <time>2013-03-23T09:39:08Z</time>
      </trkpt>
      <trkpt lat="50.18886" lon="1.63196">
        <ele>11</ele>
        <time>2013-03-23T09:39:15Z</time>
      </trkpt>
      <trkpt lat="50.18888" lon="1.63188">
        <ele>11</ele>
        <time>2013-03-23T09:39:20Z</time>
      </trkpt>
      <trkpt lat="50.18891" lon="1.63179">
        <ele>11</ele>
        <time>2013-03-23T09:39:25Z</time>
      </trkpt>
      <trkpt lat="50.18893" lon="1.63171">
        <ele>11</ele>
        <time>2013-03-23T09:39:30Z</time>
      </trkpt>
      <trkpt lat="50.18895" lon="1.63167">
        <ele>11</ele>
        <time>2013-03-23T09:39:33Z</time>
      </trkpt>
      <trkpt lat="50.18898" lon="1.63157">
        <ele>11</ele>
        <time>2013-03-23T09:39:39Z</time>
      </trkpt>
      <trkpt lat="50.189" lon="1.63151">
        <ele>11</ele>
        <time>2013-03-23T09:39:42Z</time>
      </trkpt>
      <trkpt lat="50.18903" lon="1.63141">
        <ele>11</ele>
        <time>2013-03-23T09:39:48Z</time>
      </trkpt>
      <trkpt lat="50.18903" lon="1.6314">
        <ele>11</ele>
        <time>2013-03-23T09:39:49Z</time>
      </trkpt>
      <trkpt lat="50.18905" lon="1.63134">
        <ele>11</ele>
        <time>2013-03-23T09:39:52Z</time>
      </trkpt>
      <trkpt lat="50.18909" lon="1.63124">
        <ele>11</ele>
        <time>2013-03-23T09:39:59Z</time>
      </trkpt>
      <trkpt lat="50.1891" lon="1.63115">
        <ele>11</ele>
        <time>2013-03-23T09:40:03Z</time>
      </trkpt>
      <trkpt lat="50.18915" lon="1.63098">
        <ele>11</ele>
        <time>2013-03-23T09:40:13Z</time>
      </trkpt>
      <trkpt lat="50.18918" lon="1.63089">
        <ele>11</ele>
        <time>2013-03-23T09:40:18Z</time>
      </trkpt>
      <trkpt lat="50.18919" lon="1.63082">
        <ele>11</ele>
        <time>2013-03-23T09:40:22Z</time>
      </trkpt>
      <trkpt lat="50.18922" lon="1.63072">
        <ele>11</ele>
        <time>2013-03-23T09:40:28Z</time>
      </trkpt>
      <trkpt lat="50.18925" lon="1.63059">
        <ele>11</ele>
        <time>2013-03-23T09:40:35Z</time>
      </trkpt>
      <trkpt lat="50.1893" lon="1.63044">
        <ele>11</ele>
        <time>2013-03-23T09:40:44Z</time>
      </trkpt>
      <trkpt lat="50.18933" lon="1.63031">
        <ele>11</ele>
        <time>2013-03-23T09:40:51Z</time>
      </trkpt>
      <trkpt lat="50.18936" lon="1.63019">
        <ele>11</ele>
        <time>2013-03-23T09:40:58Z</time>
      </trkpt>
      <trkpt lat="50.18941" lon="1.63006">
        <ele>11</ele>
        <time>2013-03-23T09:41:06Z</time>
      </trkpt>
      <trkpt lat="50.18945" lon="1.62992">
        <ele>11</ele>
        <time>2013-03-23T09:41:14Z</time>
      </trkpt>
      <trkpt lat="50.18946" lon="1.62989">
        <ele>11</ele>
        <time>2013-03-23T09:41:16Z</time>
      </trkpt>
      <trkpt lat="50.18947" lon="1.62981">
        <ele>11</ele>
        <time>2013-03-23T09:41:20Z</time>
      </trkpt>
      <trkpt lat="50.18951" lon="1.62966">
        <ele>11</ele>
        <time>2013-03-23T09:41:29Z</time>
      </trkpt>
      <trkpt lat="50.18961" lon="1.62936">
        <ele>11</ele>
        <time>2013-03-23T09:41:47Z</time>
      </trkpt>
      <trkpt lat="50.18966" lon="1.62924">
        <ele>11</ele>
        <time>2013-03-23T09:41:55Z</time>
      </trkpt>
      <trkpt lat="50.1897" lon="1.6291">
        <ele>11</ele>
        <time>2013-03-23T09:42:03Z</time>
      </trkpt>
      <trkpt lat="50.18971" lon="1.62905">
        <ele>11</ele>
        <time>2013-03-23T09:42:06Z</time>
      </trkpt>
      <trkpt lat="50.18975" lon="1.62894">
        <ele>11</ele>
        <time>2013-03-23T09:42:13Z</time>
      </trkpt>
      <trkpt lat="50.18977" lon="1.62888">
        <ele>11</ele>
        <time>2013-03-23T09:42:17Z</time>
      </trkpt>
      <trkpt lat="50.18982" lon="1.62867">
        <ele>11</ele>
        <time>2013-03-23T09:42:29Z</time>
      </trkpt>
      <trkpt lat="50.18985" lon="1.62855">
        <ele>10.8</ele>
        <time>2013-03-23T09:42:36Z</time>
      </trkpt>
      <trkpt lat="50.1899" lon="1.62843">
        <ele>9.6</ele>
        <time>2013-03-23T09:42:44Z</time>
      </trkpt>
      <trkpt lat="50.18994" lon="1.62833">
        <ele>9.2</ele>
        <time>2013-03-23T09:42:51Z</time>
      </trkpt>
      <trkpt lat="50.18999" lon="1.62819">
        <ele>9</ele>
        <time>2013-03-23T09:42:59Z</time>
      </trkpt>
      <trkpt lat="50.19002" lon="1.6281">
        <ele>9</ele>
        <time>2013-03-23T09:43:05Z</time>
      </trkpt>
      <trkpt lat="50.19007" lon="1.62796">
        <ele>9</ele>
        <time>2013-03-23T09:43:13Z</time>
      </trkpt>
      <trkpt lat="50.19007" lon="1.62795">
        <ele>9</ele>
        <time>2013-03-23T09:43:14Z</time>
      </trkpt>
      <trkpt lat="50.19011" lon="1.62783">
        <ele>9</ele>
        <time>2013-03-23T09:43:21Z</time>
      </trkpt>
      <trkpt lat="50.19014" lon="1.62772">
        <ele>9</ele>
        <time>2013-03-23T09:43:27Z</time>
      </trkpt>
      <trkpt lat="50.19015" lon="1.62763">
        <ele>9</ele>
        <time>2013-03-23T09:43:32Z</time>
      </trkpt>
      <trkpt lat="50.19019" lon="1.62751">
        <ele>9</ele>
        <time>2013-03-23T09:43:39Z</time>
      </trkpt>
      <trkpt lat="50.1902" lon="1.62745">
        <ele>9</ele>
        <time>2013-03-23T09:43:42Z</time>
      </trkpt>
      <trkpt lat="50.1902" lon="1.62739">
        <ele>9</ele>
        <time>2013-03-23T09:43:46Z</time>
      </trkpt>
      <trkpt lat="50.19023" lon="1.62729">
        <ele>9</ele>
        <time>2013-03-23T09:43:53Z</time>
      </trkpt>
      <trkpt lat="50.19023" lon="1.62725">
        <ele>9</ele>
        <time>2013-03-23T09:43:59Z</time>
      </trkpt>
      <trkpt lat="50.19018" lon="1.6272">
        <ele>9</ele>
        <time>2013-03-23T09:44:06Z</time>
      </trkpt>
      <trkpt lat="50.19018" lon="1.62714">
        <ele>9</ele>
        <time>2013-03-23T09:44:13Z</time>
      </trkpt>
      <trkpt lat="50.19018" lon="1.62712">
        <ele>9</ele>
        <time>2013-03-23T09:44:20Z</time>
      </trkpt>
      <trkpt lat="50.19016" lon="1.62705">
        <ele>9</ele>
        <time>2013-03-23T09:44:42Z</time>
      </trkpt>
      <trkpt lat="50.19016" lon="1.627">
        <ele>9</ele>
        <time>2013-03-23T09:44:49Z</time>
      </trkpt>
      <trkpt lat="50.19017" lon="1.627">
        <ele>9</ele>
        <time>2013-03-23T09:45:17Z</time>
      </trkpt>
      <trkpt lat="50.19018" lon="1.627">
        <ele>9</ele>
        <time>2013-03-23T09:45:24Z</time>
      </trkpt>
      <trkpt lat="50.19019" lon="1.62701">
        <ele>9</ele>
        <time>2013-03-23T09:45:30Z</time>
      </trkpt>
      <trkpt lat="50.19021" lon="1.62703">
        <ele>9</ele>
        <time>2013-03-23T09:45:50Z</time>
      </trkpt>
      <trkpt lat="50.1902" lon="1.62705">
        <ele>9</ele>
        <time>2013-03-23T09:45:58Z</time>
      </trkpt>
      <trkpt lat="50.1902" lon="1.62706">
        <ele>9</ele>
        <time>2013-03-23T09:46:17Z</time>
      </trkpt>
      <trkpt lat="50.19014" lon="1.62709">
        <ele>12.2</ele>
        <time>2013-03-23T09:46:54Z</time>
      </trkpt>
      <trkpt lat="50.19009" lon="1.62704">
        <ele>12.8</ele>
        <time>2013-03-23T09:47:04Z</time>
      </trkpt>
      <trkpt lat="50.19007" lon="1.62704">
        <ele>13</ele>
        <time>2013-03-23T09:47:14Z</time>
      </trkpt>
      <trkpt lat="50.19003" lon="1.62701">
        <ele>13</ele>
        <time>2013-03-23T09:47:37Z</time>
      </trkpt>
      <trkpt lat="50.19003" lon="1.62699">
        <ele>13.2</ele>
        <time>2013-03-23T09:47:48Z</time>
      </trkpt>
      <trkpt lat="50.19003" lon="1.62691">
        <ele>13.2</ele>
        <time>2013-03-23T09:48:13Z</time>
      </trkpt>
      <trkpt lat="50.19002" lon="1.62688">
        <ele>13.2</ele>
        <time>2013-03-23T09:48:21Z</time>
      </trkpt>
      <trkpt lat="50.19005" lon="1.62693">
        <ele>13.2</ele>
        <time>2013-03-23T09:48:33Z</time>
      </trkpt>
      <trkpt lat="50.19004" lon="1.62689">
        <ele>13.2</ele>
        <time>2013-03-23T09:48:39Z</time>
      </trkpt>
      <trkpt lat="50.19" lon="1.62681">
        <ele>12.8</ele>
        <time>2013-03-23T09:49:36Z</time>
      </trkpt>
      <trkpt lat="50.19002" lon="1.62683">
        <ele>13.2</ele>
        <time>2013-03-23T09:50:01Z</time>
      </trkpt>
      <trkpt lat="50.19001" lon="1.62686">
        <ele>11.6</ele>
        <time>2013-03-23T09:50:17Z</time>
      </trkpt>
      <trkpt lat="50.18996" lon="1.62687">
        <ele>11.4</ele>
        <time>2013-03-23T09:50:25Z</time>
      </trkpt>
      <trkpt lat="50.1899" lon="1.62685">
        <ele>10</ele>
        <time>2013-03-23T09:50:34Z</time>
      </trkpt>
      <trkpt lat="50.18984" lon="1.62683">
        <ele>9.6</ele>
        <time>2013-03-23T09:50:41Z</time>
      </trkpt>
      <trkpt lat="50.1898" lon="1.62682">
        <ele>9.4</ele>
        <time>2013-03-23T09:50:47Z</time>
      </trkpt>
      <trkpt lat="50.18979" lon="1.62683">
        <ele>9.2</ele>
        <time>2013-03-23T09:50:55Z</time>
      </trkpt>
      <trkpt lat="50.18977" lon="1.62683">
        <ele>9.2</ele>
        <time>2013-03-23T09:51:02Z</time>
      </trkpt>
      <trkpt lat="50.18972" lon="1.6268">
        <ele>9.2</ele>
        <time>2013-03-23T09:51:37Z</time>
      </trkpt>
      <trkpt lat="50.1897" lon="1.62678">
        <ele>9.2</ele>
        <time>2013-03-23T09:51:41Z</time>
      </trkpt>
      <trkpt lat="50.18968" lon="1.62678">
        <ele>9.2</ele>
        <time>2013-03-23T09:51:42Z</time>
      </trkpt>
      <trkpt lat="50.18966" lon="1.62674">
        <ele>9.2</ele>
        <time>2013-03-23T09:51:48Z</time>
      </trkpt>
      <trkpt lat="50.18965" lon="1.6267">
        <ele>9.2</ele>
        <time>2013-03-23T09:51:53Z</time>
      </trkpt>
      <trkpt lat="50.1896" lon="1.62668">
        <ele>9.2</ele>
        <time>2013-03-23T09:51:58Z</time>
      </trkpt>
      <trkpt lat="50.1896" lon="1.62665">
        <ele>9.2</ele>
        <time>2013-03-23T09:52:02Z</time>
      </trkpt>
      <trkpt lat="50.18957" lon="1.62663">
        <ele>9.2</ele>
        <time>2013-03-23T09:52:07Z</time>
      </trkpt>
      <trkpt lat="50.1895" lon="1.62658">
        <ele>9.2</ele>
        <time>2013-03-23T09:52:13Z</time>
      </trkpt>
      <trkpt lat="50.18947" lon="1.62655">
        <ele>9.2</ele>
        <time>2013-03-23T09:52:18Z</time>
      </trkpt>
      <trkpt lat="50.18943" lon="1.62651">
        <ele>9.2</ele>
        <time>2013-03-23T09:52:25Z</time>
      </trkpt>
      <trkpt lat="50.18942" lon="1.6265">
        <ele>9.2</ele>
        <time>2013-03-23T09:52:26Z</time>
      </trkpt>
      <trkpt lat="50.18941" lon="1.62645">
        <ele>9.2</ele>
        <time>2013-03-23T09:52:31Z</time>
      </trkpt>
      <trkpt lat="50.1894" lon="1.62643">
        <ele>9.2</ele>
        <time>2013-03-23T09:52:33Z</time>
      </trkpt>
      <trkpt lat="50.18936" lon="1.62638">
        <ele>9.2</ele>
        <time>2013-03-23T09:52:41Z</time>
      </trkpt>
      <trkpt lat="50.18937" lon="1.62638">
        <ele>9.2</ele>
        <time>2013-03-23T09:52:50Z</time>
      </trkpt>
      <trkpt lat="50.18935" lon="1.62634">
        <ele>9.2</ele>
        <time>2013-03-23T09:52:56Z</time>
      </trkpt>
      <trkpt lat="50.18932" lon="1.62624">
        <ele>9.2</ele>
        <time>2013-03-23T09:53:02Z</time>
      </trkpt>
      <trkpt lat="50.18931" lon="1.62622">
        <ele>9.2</ele>
        <time>2013-03-23T09:53:05Z</time>
      </trkpt>
      <trkpt lat="50.18935" lon="1.62621">
        <ele>9.2</ele>
        <time>2013-03-23T09:53:11Z</time>
      </trkpt>
      <trkpt lat="50.18934" lon="1.62625">
        <ele>9.2</ele>
        <time>2013-03-23T09:53:26Z</time>
      </trkpt>
      <trkpt lat="50.18931" lon="1.62623">
        <ele>9.2</ele>
        <time>2013-03-23T09:53:33Z</time>
      </trkpt>
      <trkpt lat="50.18935" lon="1.6263">
        <ele>11.4</ele>
        <time>2013-03-23T09:54:09Z</time>
      </trkpt>
      <trkpt lat="50.18934" lon="1.62631">
        <ele>12.2</ele>
        <time>2013-03-23T09:54:14Z</time>
      </trkpt>
      <trkpt lat="50.18932" lon="1.62625">
        <ele>13.6</ele>
        <time>2013-03-23T09:54:22Z</time>
      </trkpt>
      <trkpt lat="50.1893" lon="1.6262">
        <ele>14.6</ele>
        <time>2013-03-23T09:54:29Z</time>
      </trkpt>
      <trkpt lat="50.1893" lon="1.62625">
        <ele>17.4</ele>
        <time>2013-03-23T09:55:11Z</time>
      </trkpt>
      <trkpt lat="50.18929" lon="1.62624">
        <ele>17.4</ele>
        <time>2013-03-23T09:55:16Z</time>
      </trkpt>
      <trkpt lat="50.18929" lon="1.62624">
        <ele>17.4</ele>
        <time>2013-03-23T09:55:18Z</time>
      </trkpt>
      <trkpt lat="50.18924" lon="1.62616">
        <ele>17.4</ele>
        <time>2013-03-23T09:55:27Z</time>
      </trkpt>
      <trkpt lat="50.18924" lon="1.62617">
        <ele>17.4</ele>
        <time>2013-03-23T09:55:40Z</time>
      </trkpt>
      <trkpt lat="50.18927" lon="1.62622">
        <ele>17.4</ele>
        <time>2013-03-23T09:55:46Z</time>
      </trkpt>
      <trkpt lat="50.18929" lon="1.62623">
        <ele>17.4</ele>
        <time>2013-03-23T09:55:47Z</time>
      </trkpt>
      <trkpt lat="50.18932" lon="1.62625">
        <ele>17.4</ele>
        <time>2013-03-23T09:55:52Z</time>
      </trkpt>
      <trkpt lat="50.18931" lon="1.62624">
        <ele>17.4</ele>
        <time>2013-03-23T09:55:59Z</time>
      </trkpt>
      <trkpt lat="50.1893" lon="1.62619">
        <ele>17.4</ele>
        <time>2013-03-23T09:56:03Z</time>
      </trkpt>
      <trkpt lat="50.18933" lon="1.62622">
        <ele>17.4</ele>
        <time>2013-03-23T09:56:07Z</time>
      </trkpt>
      <trkpt lat="50.18931" lon="1.6262">
        <ele>17.4</ele>
        <time>2013-03-23T09:56:15Z</time>
      </trkpt>
      <trkpt lat="50.1893" lon="1.62614">
        <ele>17.4</ele>
        <time>2013-03-23T09:56:21Z</time>
      </trkpt>
      <trkpt lat="50.1893" lon="1.62612">
        <ele>17.4</ele>
        <time>2013-03-23T09:56:22Z</time>
      </trkpt>
      <trkpt lat="50.1893" lon="1.62605">
        <ele>16.6</ele>
        <time>2013-03-23T09:56:28Z</time>
      </trkpt>
      <trkpt lat="50.18932" lon="1.62596">
        <ele>16</ele>
        <time>2013-03-23T09:56:34Z</time>
      </trkpt>
      <trkpt lat="50.18933" lon="1.62588">
        <ele>15.8</ele>
        <time>2013-03-23T09:56:40Z</time>
      </trkpt>
      <trkpt lat="50.18933" lon="1.62586">
        <ele>15.8</ele>
        <time>2013-03-23T09:56:41Z</time>
      </trkpt>
      <trkpt lat="50.18933" lon="1.62585">
        <ele>15.6</ele>
        <time>2013-03-23T09:56:42Z</time>
      </trkpt>
      <trkpt lat="50.18933" lon="1.62581">
        <ele>15.6</ele>
        <time>2013-03-23T09:56:45Z</time>
      </trkpt>
      <trkpt lat="50.18933" lon="1.62568">
        <ele>15.2</ele>
        <time>2013-03-23T09:56:53Z</time>
      </trkpt>
      <trkpt lat="50.18932" lon="1.62559">
        <ele>14.2</ele>
        <time>2013-03-23T09:57:00Z</time>
      </trkpt>
      <trkpt lat="50.18931" lon="1.62557">
        <ele>14.2</ele>
        <time>2013-03-23T09:57:01Z</time>
      </trkpt>
      <trkpt lat="50.18931" lon="1.62552">
        <ele>14</ele>
        <time>2013-03-23T09:57:04Z</time>
      </trkpt>
      <trkpt lat="50.1893" lon="1.62546">
        <ele>13.6</ele>
        <time>2013-03-23T09:57:10Z</time>
      </trkpt>
      <trkpt lat="50.18929" lon="1.62542">
        <ele>13.6</ele>
        <time>2013-03-23T09:57:13Z</time>
      </trkpt>
      <trkpt lat="50.18925" lon="1.62534">
        <ele>13.4</ele>
        <time>2013-03-23T09:57:20Z</time>
      </trkpt>
      <trkpt lat="50.18927" lon="1.62526">
        <ele>13.4</ele>
        <time>2013-03-23T09:57:23Z</time>
      </trkpt>
      <trkpt lat="50.18928" lon="1.62522">
        <ele>13.4</ele>
        <time>2013-03-23T09:57:26Z</time>
      </trkpt>
      <trkpt lat="50.1893" lon="1.6251">
        <ele>13.4</ele>
        <time>2013-03-23T09:57:32Z</time>
      </trkpt>
      <trkpt lat="50.18929" lon="1.62498">
        <ele>13.4</ele>
        <time>2013-03-23T09:57:39Z</time>
      </trkpt>
      <trkpt lat="50.18929" lon="1.62491">
        <ele>13.4</ele>
        <time>2013-03-23T09:57:43Z</time>
      </trkpt>
      <trkpt lat="50.18931" lon="1.62476">
        <ele>13.4</ele>
        <time>2013-03-23T09:57:52Z</time>
      </trkpt>
      <trkpt lat="50.18931" lon="1.62465">
        <ele>13.4</ele>
        <time>2013-03-23T09:58:00Z</time>
      </trkpt>
      <trkpt lat="50.18932" lon="1.62454">
        <ele>13.4</ele>
        <time>2013-03-23T09:58:06Z</time>
      </trkpt>
      <trkpt lat="50.18932" lon="1.62441">
        <ele>13.4</ele>
        <time>2013-03-23T09:58:11Z</time>
      </trkpt>
      <trkpt lat="50.18932" lon="1.62427">
        <ele>13.4</ele>
        <time>2013-03-23T09:58:18Z</time>
      </trkpt>
      <trkpt lat="50.18931" lon="1.62411">
        <ele>13.4</ele>
        <time>2013-03-23T09:58:27Z</time>
      </trkpt>
      <trkpt lat="50.1893" lon="1.62404">
        <ele>13.4</ele>
        <time>2013-03-23T09:58:31Z</time>
      </trkpt>
      <trkpt lat="50.18929" lon="1.62389">
        <ele>13.4</ele>
        <time>2013-03-23T09:58:39Z</time>
      </trkpt>
      <trkpt lat="50.18929" lon="1.62382">
        <ele>13.4</ele>
        <time>2013-03-23T09:58:45Z</time>
      </trkpt>
      <trkpt lat="50.18925" lon="1.62376">
        <ele>13.4</ele>
        <time>2013-03-23T09:58:50Z</time>
      </trkpt>
      <trkpt lat="50.18922" lon="1.6237">
        <ele>13.4</ele>
        <time>2013-03-23T09:58:55Z</time>
      </trkpt>
      <trkpt lat="50.18922" lon="1.62368">
        <ele>13.4</ele>
        <time>2013-03-23T09:58:56Z</time>
      </trkpt>
      <trkpt lat="50.18921" lon="1.62362">
        <ele>13.4</ele>
        <time>2013-03-23T09:59:00Z</time>
      </trkpt>
      <trkpt lat="50.18925" lon="1.6235">
        <ele>13.4</ele>
        <time>2013-03-23T09:59:05Z</time>
      </trkpt>
      <trkpt lat="50.18924" lon="1.62336">
        <ele>13.4</ele>
        <time>2013-03-23T09:59:12Z</time>
      </trkpt>
      <trkpt lat="50.18922" lon="1.62334">
        <ele>13.4</ele>
        <time>2013-03-23T09:59:14Z</time>
      </trkpt>
      <trkpt lat="50.18921" lon="1.62332">
        <ele>13.4</ele>
        <time>2013-03-23T09:59:16Z</time>
      </trkpt>
      <trkpt lat="50.1892" lon="1.62327">
        <ele>13.4</ele>
        <time>2013-03-23T09:59:20Z</time>
      </trkpt>
      <trkpt lat="50.1892" lon="1.62325">
        <ele>13.4</ele>
        <time>2013-03-23T09:59:22Z</time>
      </trkpt>
      <trkpt lat="50.18918" lon="1.62316">
        <ele>13.4</ele>
        <time>2013-03-23T09:59:29Z</time>
      </trkpt>
      <trkpt lat="50.18921" lon="1.62306">
        <ele>13.4</ele>
        <time>2013-03-23T09:59:35Z</time>
      </trkpt>
      <trkpt lat="50.18921" lon="1.62304">
        <ele>13.4</ele>
        <time>2013-03-23T09:59:36Z</time>
      </trkpt>
      <trkpt lat="50.18922" lon="1.62293">
        <ele>13.4</ele>
        <time>2013-03-23T09:59:43Z</time>
      </trkpt>
      <trkpt lat="50.18922" lon="1.62293">
        <ele>13.4</ele>
        <time>2013-03-23T09:59:44Z</time>
      </trkpt>
      <trkpt lat="50.18922" lon="1.62287">
        <ele>13.4</ele>
        <time>2013-03-23T09:59:47Z</time>
      </trkpt>
      <trkpt lat="50.18923" lon="1.62279">
        <ele>13.4</ele>
        <time>2013-03-23T09:59:51Z</time>
      </trkpt>
      <trkpt lat="50.18923" lon="1.62271">
        <ele>13.4</ele>
        <time>2013-03-23T09:59:55Z</time>
      </trkpt>
      <trkpt lat="50.18925" lon="1.62263">
        <ele>13.4</ele>
        <time>2013-03-23T09:59:59Z</time>
      </trkpt>
      <trkpt lat="50.18927" lon="1.62257">
        <ele>13.4</ele>
        <time>2013-03-23T10:00:02Z</time>
      </trkpt>
      <trkpt lat="50.18931" lon="1.6224">
        <ele>13.4</ele>
        <time>2013-03-23T10:00:10Z</time>
      </trkpt>
      <trkpt lat="50.18932" lon="1.62238">
        <ele>13.4</ele>
        <time>2013-03-23T10:00:11Z</time>
      </trkpt>
      <trkpt lat="50.18933" lon="1.62232">
        <ele>13.4</ele>
        <time>2013-03-23T10:00:14Z</time>
      </trkpt>
      <trkpt lat="50.18935" lon="1.62218">
        <ele>13.4</ele>
        <time>2013-03-23T10:00:22Z</time>
      </trkpt>
      <trkpt lat="50.18936" lon="1.62216">
        <ele>13.4</ele>
        <time>2013-03-23T10:00:23Z</time>
      </trkpt>
      <trkpt lat="50.18938" lon="1.62201">
        <ele>13.4</ele>
        <time>2013-03-23T10:00:31Z</time>
      </trkpt>
      <trkpt lat="50.18941" lon="1.62189">
        <ele>13.4</ele>
        <time>2013-03-23T10:00:37Z</time>
      </trkpt>
      <trkpt lat="50.18943" lon="1.62183">
        <ele>13.4</ele>
        <time>2013-03-23T10:00:41Z</time>
      </trkpt>
      <trkpt lat="50.18943" lon="1.62179">
        <ele>13.4</ele>
        <time>2013-03-23T10:00:44Z</time>
      </trkpt>
      <trkpt lat="50.18945" lon="1.62164">
        <ele>13.4</ele>
        <time>2013-03-23T10:00:52Z</time>
      </trkpt>
      <trkpt lat="50.18945" lon="1.62158">
        <ele>13.4</ele>
        <time>2013-03-23T10:00:55Z</time>
      </trkpt>
      <trkpt lat="50.18945" lon="1.62151">
        <ele>13.4</ele>
        <time>2013-03-23T10:00:59Z</time>
      </trkpt>
      <trkpt lat="50.18947" lon="1.62135">
        <ele>13.4</ele>
        <time>2013-03-23T10:01:08Z</time>
      </trkpt>
      <trkpt lat="50.1895" lon="1.62121">
        <ele>13.4</ele>
        <time>2013-03-23T10:01:16Z</time>
      </trkpt>
      <trkpt lat="50.18951" lon="1.62111">
        <ele>13.4</ele>
        <time>2013-03-23T10:01:22Z</time>
      </trkpt>
      <trkpt lat="50.18953" lon="1.62103">
        <ele>13.4</ele>
        <time>2013-03-23T10:01:26Z</time>
      </trkpt>
      <trkpt lat="50.18955" lon="1.62096">
        <ele>13.4</ele>
        <time>2013-03-23T10:01:30Z</time>
      </trkpt>
      <trkpt lat="50.18957" lon="1.62087">
        <ele>13.4</ele>
        <time>2013-03-23T10:01:35Z</time>
      </trkpt>
      <trkpt lat="50.1896" lon="1.62073">
        <ele>13.4</ele>
        <time>2013-03-23T10:01:43Z</time>
      </trkpt>
      <trkpt lat="50.18964" lon="1.62059">
        <ele>13.4</ele>
        <time>2013-03-23T10:01:51Z</time>
      </trkpt>
      <trkpt lat="50.18967" lon="1.62045">
        <ele>13.4</ele>
        <time>2013-03-23T10:01:59Z</time>
      </trkpt>
      <trkpt lat="50.18969" lon="1.62036">
        <ele>13.4</ele>
        <time>2013-03-23T10:02:05Z</time>
      </trkpt>
      <trkpt lat="50.18972" lon="1.62024">
        <ele>13.4</ele>
        <time>2013-03-23T10:02:12Z</time>
      </trkpt>
      <trkpt lat="50.18976" lon="1.62009">
        <ele>13.4</ele>
        <time>2013-03-23T10:02:20Z</time>
      </trkpt>
      <trkpt lat="50.18979" lon="1.61996">
        <ele>13.4</ele>
        <time>2013-03-23T10:02:27Z</time>
      </trkpt>
      <trkpt lat="50.18981" lon="1.61983">
        <ele>13.4</ele>
        <time>2013-03-23T10:02:34Z</time>
      </trkpt>
      <trkpt lat="50.18985" lon="1.61968">
        <ele>13.4</ele>
        <time>2013-03-23T10:02:42Z</time>
      </trkpt>
      <trkpt lat="50.18988" lon="1.61954">
        <ele>13.4</ele>
        <time>2013-03-23T10:02:50Z</time>
      </trkpt>
      <trkpt lat="50.18991" lon="1.61939">
        <ele>13.4</ele>
        <time>2013-03-23T10:02:58Z</time>
      </trkpt>
      <trkpt lat="50.18994" lon="1.61922">
        <ele>13.4</ele>
        <time>2013-03-23T10:03:08Z</time>
      </trkpt>
      <trkpt lat="50.18997" lon="1.61907">
        <ele>13.4</ele>
        <time>2013-03-23T10:03:16Z</time>
      </trkpt>
      <trkpt lat="50.19002" lon="1.61889">
        <ele>13.4</ele>
        <time>2013-03-23T10:03:26Z</time>
      </trkpt>
      <trkpt lat="50.19005" lon="1.61876">
        <ele>13.4</ele>
        <time>2013-03-23T10:03:32Z</time>
      </trkpt>
      <trkpt lat="50.19008" lon="1.61869">
        <ele>13.4</ele>
        <time>2013-03-23T10:03:37Z</time>
      </trkpt>
      <trkpt lat="50.19012" lon="1.61864">
        <ele>13.4</ele>
        <time>2013-03-23T10:03:41Z</time>
      </trkpt>
      <trkpt lat="50.19017" lon="1.61848">
        <ele>13.4</ele>
        <time>2013-03-23T10:03:51Z</time>
      </trkpt>
      <trkpt lat="50.19018" lon="1.61841">
        <ele>13.4</ele>
        <time>2013-03-23T10:03:55Z</time>
      </trkpt>
      <trkpt lat="50.19021" lon="1.61829">
        <ele>13.4</ele>
        <time>2013-03-23T10:04:03Z</time>
      </trkpt>
      <trkpt lat="50.19024" lon="1.61816">
        <ele>13.4</ele>
        <time>2013-03-23T10:04:10Z</time>
      </trkpt>
      <trkpt lat="50.19025" lon="1.61813">
        <ele>13.4</ele>
        <time>2013-03-23T10:04:12Z</time>
      </trkpt>
      <trkpt lat="50.19025" lon="1.61809">
        <ele>13.4</ele>
        <time>2013-03-23T10:04:14Z</time>
      </trkpt>
      <trkpt lat="50.19027" lon="1.61797">
        <ele>12.6</ele>
        <time>2013-03-23T10:04:21Z</time>
      </trkpt>
      <trkpt lat="50.19029" lon="1.6179">
        <ele>12.2</ele>
        <time>2013-03-23T10:04:25Z</time>
      </trkpt>
      <trkpt lat="50.19032" lon="1.61777">
        <ele>11.6</ele>
        <time>2013-03-23T10:04:33Z</time>
      </trkpt>
      <trkpt lat="50.19034" lon="1.61765">
        <ele>11.4</ele>
        <time>2013-03-23T10:04:40Z</time>
      </trkpt>
      <trkpt lat="50.19037" lon="1.61755">
        <ele>11.4</ele>
        <time>2013-03-23T10:04:46Z</time>
      </trkpt>
      <trkpt lat="50.19039" lon="1.61744">
        <ele>10.8</ele>
        <time>2013-03-23T10:04:52Z</time>
      </trkpt>
      <trkpt lat="50.19041" lon="1.61738">
        <ele>10.2</ele>
        <time>2013-03-23T10:04:56Z</time>
      </trkpt>
      <trkpt lat="50.19043" lon="1.61729">
        <ele>9.8</ele>
        <time>2013-03-23T10:05:01Z</time>
      </trkpt>
      <trkpt lat="50.19044" lon="1.61727">
        <ele>9.8</ele>
        <time>2013-03-23T10:05:02Z</time>
      </trkpt>
      <trkpt lat="50.19045" lon="1.61716">
        <ele>9.6</ele>
        <time>2013-03-23T10:05:09Z</time>
      </trkpt>
      <trkpt lat="50.19048" lon="1.61704">
        <ele>9.4</ele>
        <time>2013-03-23T10:05:16Z</time>
      </trkpt>
      <trkpt lat="50.19051" lon="1.61694">
        <ele>9.4</ele>
        <time>2013-03-23T10:05:22Z</time>
      </trkpt>
      <trkpt lat="50.19054" lon="1.61678">
        <ele>9.2</ele>
        <time>2013-03-23T10:05:31Z</time>
      </trkpt>
      <trkpt lat="50.19056" lon="1.61664">
        <ele>8.8</ele>
        <time>2013-03-23T10:05:39Z</time>
      </trkpt>
      <trkpt lat="50.19059" lon="1.61651">
        <ele>8</ele>
        <time>2013-03-23T10:05:46Z</time>
      </trkpt>
      <trkpt lat="50.1906" lon="1.61644">
        <ele>7.8</ele>
        <time>2013-03-23T10:05:50Z</time>
      </trkpt>
      <trkpt lat="50.19064" lon="1.61629">
        <ele>7.4</ele>
        <time>2013-03-23T10:05:58Z</time>
      </trkpt>
      <trkpt lat="50.19069" lon="1.61616">
        <ele>7.4</ele>
        <time>2013-03-23T10:06:06Z</time>
      </trkpt>
      <trkpt lat="50.19071" lon="1.6161">
        <ele>7.2</ele>
        <time>2013-03-23T10:06:10Z</time>
      </trkpt>
      <trkpt lat="50.19075" lon="1.61599">
        <ele>7.2</ele>
        <time>2013-03-23T10:06:16Z</time>
      </trkpt>
      <trkpt lat="50.19076" lon="1.61596">
        <ele>7.2</ele>
        <time>2013-03-23T10:06:18Z</time>
      </trkpt>
      <trkpt lat="50.19081" lon="1.61585">
        <ele>7.2</ele>
        <time>2013-03-23T10:06:25Z</time>
      </trkpt>
      <trkpt lat="50.19086" lon="1.61574">
        <ele>7.2</ele>
        <time>2013-03-23T10:06:32Z</time>
      </trkpt>
      <trkpt lat="50.19091" lon="1.61564">
        <ele>7.2</ele>
        <time>2013-03-23T10:06:39Z</time>
      </trkpt>
      <trkpt lat="50.19096" lon="1.61555">
        <ele>8.2</ele>
        <time>2013-03-23T10:06:45Z</time>
      </trkpt>
      <trkpt lat="50.19101" lon="1.61544">
        <ele>9</ele>
        <time>2013-03-23T10:06:52Z</time>
      </trkpt>
      <trkpt lat="50.19104" lon="1.61534">
        <ele>10.2</ele>
        <time>2013-03-23T10:06:58Z</time>
      </trkpt>
      <trkpt lat="50.19108" lon="1.61528">
        <ele>10.6</ele>
        <time>2013-03-23T10:07:03Z</time>
      </trkpt>
      <trkpt lat="50.19111" lon="1.61521">
        <ele>11.8</ele>
        <time>2013-03-23T10:07:08Z</time>
      </trkpt>
      <trkpt lat="50.19114" lon="1.61513">
        <ele>12.4</ele>
        <time>2013-03-23T10:07:13Z</time>
      </trkpt>
      <trkpt lat="50.19117" lon="1.61509">
        <ele>12.6</ele>
        <time>2013-03-23T10:07:16Z</time>
      </trkpt>
      <trkpt lat="50.19122" lon="1.615">
        <ele>13</ele>
        <time>2013-03-23T10:07:24Z</time>
      </trkpt>
      <trkpt lat="50.19125" lon="1.6149">
        <ele>13.2</ele>
        <time>2013-03-23T10:07:31Z</time>
      </trkpt>
      <trkpt lat="50.19127" lon="1.61479">
        <ele>13.2</ele>
        <time>2013-03-23T10:07:39Z</time>
      </trkpt>
      <trkpt lat="50.19129" lon="1.61471">
        <ele>13.4</ele>
        <time>2013-03-23T10:07:47Z</time>
      </trkpt>
      <trkpt lat="50.19129" lon="1.6147">
        <ele>13.4</ele>
        <time>2013-03-23T10:07:53Z</time>
      </trkpt>
      <trkpt lat="50.19131" lon="1.6146">
        <ele>11.4</ele>
        <time>2013-03-23T10:09:14Z</time>
      </trkpt>
      <trkpt lat="50.19134" lon="1.61451">
        <ele>11.4</ele>
        <time>2013-03-23T10:09:22Z</time>
      </trkpt>
      <trkpt lat="50.19136" lon="1.61437">
        <ele>11.4</ele>
        <time>2013-03-23T10:09:32Z</time>
      </trkpt>
      <trkpt lat="50.19138" lon="1.61424">
        <ele>11.4</ele>
        <time>2013-03-23T10:09:41Z</time>
      </trkpt>
      <trkpt lat="50.19138" lon="1.61414">
        <ele>11.4</ele>
        <time>2013-03-23T10:09:51Z</time>
      </trkpt>
      <trkpt lat="50.19138" lon="1.61403">
        <ele>11.4</ele>
        <time>2013-03-23T10:10:00Z</time>
      </trkpt>
      <trkpt lat="50.1914" lon="1.61391">
        <ele>11.4</ele>
        <time>2013-03-23T10:10:09Z</time>
      </trkpt>
      <trkpt lat="50.1914" lon="1.61375">
        <ele>11.4</ele>
        <time>2013-03-23T10:10:19Z</time>
      </trkpt>
      <trkpt lat="50.1914" lon="1.61361">
        <ele>11.4</ele>
        <time>2013-03-23T10:10:28Z</time>
      </trkpt>
      <trkpt lat="50.19139" lon="1.6135">
        <ele>11.4</ele>
        <time>2013-03-23T10:10:35Z</time>
      </trkpt>
      <trkpt lat="50.19142" lon="1.61339">
        <ele>11.4</ele>
        <time>2013-03-23T10:10:42Z</time>
      </trkpt>
      <trkpt lat="50.19147" lon="1.6133">
        <ele>11.4</ele>
        <time>2013-03-23T10:10:49Z</time>
      </trkpt>
      <trkpt lat="50.19156" lon="1.61318">
        <ele>11.4</ele>
        <time>2013-03-23T10:11:00Z</time>
      </trkpt>
      <trkpt lat="50.19163" lon="1.6131">
        <ele>11.4</ele>
        <time>2013-03-23T10:11:09Z</time>
      </trkpt>
      <trkpt lat="50.19165" lon="1.61306">
        <ele>11.4</ele>
        <time>2013-03-23T10:11:13Z</time>
      </trkpt>
      <trkpt lat="50.19171" lon="1.61296">
        <ele>11.4</ele>
        <time>2013-03-23T10:11:23Z</time>
      </trkpt>
      <trkpt lat="50.19172" lon="1.61291">
        <ele>11.4</ele>
        <time>2013-03-23T10:11:31Z</time>
      </trkpt>
      <trkpt lat="50.19171" lon="1.61289">
        <ele>11.4</ele>
        <time>2013-03-23T10:11:57Z</time>
      </trkpt>
      <trkpt lat="50.19176" lon="1.61284">
        <ele>11.4</ele>
        <time>2013-03-23T10:13:16Z</time>
      </trkpt>
      <trkpt lat="50.19178" lon="1.61282">
        <ele>11.4</ele>
        <time>2013-03-23T10:13:24Z</time>
      </trkpt>
      <trkpt lat="50.19162" lon="1.61271">
        <ele>13.2</ele>
        <time>2013-03-23T10:13:55Z</time>
      </trkpt>
      <trkpt lat="50.19156" lon="1.61266">
        <ele>13.4</ele>
        <time>2013-03-23T10:14:01Z</time>
      </trkpt>
      <trkpt lat="50.1915" lon="1.61261">
        <ele>13.4</ele>
        <time>2013-03-23T10:14:08Z</time>
      </trkpt>
      <trkpt lat="50.19145" lon="1.61257">
        <ele>13.4</ele>
        <time>2013-03-23T10:14:14Z</time>
      </trkpt>
      <trkpt lat="50.19141" lon="1.61252">
        <ele>13.4</ele>
        <time>2013-03-23T10:14:22Z</time>
      </trkpt>
      <trkpt lat="50.19139" lon="1.61251">
        <ele>13.4</ele>
        <time>2013-03-23T10:14:27Z</time>
      </trkpt>
      <trkpt lat="50.19136" lon="1.61247">
        <ele>13.4</ele>
        <time>2013-03-23T10:14:33Z</time>
      </trkpt>
      <trkpt lat="50.19134" lon="1.61243">
        <ele>13.4</ele>
        <time>2013-03-23T10:14:47Z</time>
      </trkpt>
      <trkpt lat="50.19136" lon="1.61235">
        <ele>13.4</ele>
        <time>2013-03-23T10:14:54Z</time>
      </trkpt>
      <trkpt lat="50.19135" lon="1.61228">
        <ele>13.4</ele>
        <time>2013-03-23T10:14:59Z</time>
      </trkpt>
      <trkpt lat="50.19132" lon="1.61219">
        <ele>13.4</ele>
        <time>2013-03-23T10:15:05Z</time>
      </trkpt>
      <trkpt lat="50.19132" lon="1.61218">
        <ele>13.4</ele>
        <time>2013-03-23T10:15:06Z</time>
      </trkpt>
      <trkpt lat="50.1913" lon="1.61209">
        <ele>13.4</ele>
        <time>2013-03-23T10:15:12Z</time>
      </trkpt>
      <trkpt lat="50.19126" lon="1.612">
        <ele>13.4</ele>
        <time>2013-03-23T10:15:19Z</time>
      </trkpt>
      <trkpt lat="50.19122" lon="1.6119">
        <ele>13.4</ele>
        <time>2013-03-23T10:15:26Z</time>
      </trkpt>
      <trkpt lat="50.19119" lon="1.61178">
        <ele>13.4</ele>
        <time>2013-03-23T10:15:34Z</time>
      </trkpt>
      <trkpt lat="50.19115" lon="1.61166">
        <ele>13.4</ele>
        <time>2013-03-23T10:15:42Z</time>
      </trkpt>
      <trkpt lat="50.19113" lon="1.61157">
        <ele>13.4</ele>
        <time>2013-03-23T10:15:48Z</time>
      </trkpt>
      <trkpt lat="50.19111" lon="1.61147">
        <ele>13.4</ele>
        <time>2013-03-23T10:15:55Z</time>
      </trkpt>
      <trkpt lat="50.19111" lon="1.6114">
        <ele>13.4</ele>
        <time>2013-03-23T10:15:59Z</time>
      </trkpt>
      <trkpt lat="50.19108" lon="1.61129">
        <ele>13.4</ele>
        <time>2013-03-23T10:16:06Z</time>
      </trkpt>
      <trkpt lat="50.19104" lon="1.61115">
        <ele>13.4</ele>
        <time>2013-03-23T10:16:15Z</time>
      </trkpt>
      <trkpt lat="50.191" lon="1.61102">
        <ele>13.4</ele>
        <time>2013-03-23T10:16:24Z</time>
      </trkpt>
      <trkpt lat="50.19099" lon="1.61101">
        <ele>13.4</ele>
        <time>2013-03-23T10:16:25Z</time>
      </trkpt>
      <trkpt lat="50.19094" lon="1.61089">
        <ele>12.4</ele>
        <time>2013-03-23T10:16:32Z</time>
      </trkpt>
      <trkpt lat="50.1909" lon="1.61078">
        <ele>11.8</ele>
        <time>2013-03-23T10:16:39Z</time>
      </trkpt>
      <trkpt lat="50.19086" lon="1.61069">
        <ele>11.6</ele>
        <time>2013-03-23T10:16:45Z</time>
      </trkpt>
      <trkpt lat="50.1908" lon="1.61056">
        <ele>11.4</ele>
        <time>2013-03-23T10:16:54Z</time>
      </trkpt>
      <trkpt lat="50.19074" lon="1.61044">
        <ele>11.4</ele>
        <time>2013-03-23T10:17:02Z</time>
      </trkpt>
      <trkpt lat="50.19066" lon="1.6103">
        <ele>11.4</ele>
        <time>2013-03-23T10:17:12Z</time>
      </trkpt>
      <trkpt lat="50.19062" lon="1.61022">
        <ele>11.4</ele>
        <time>2013-03-23T10:17:18Z</time>
      </trkpt>
      <trkpt lat="50.19058" lon="1.61014">
        <ele>11.4</ele>
        <time>2013-03-23T10:17:24Z</time>
      </trkpt>
      <trkpt lat="50.19054" lon="1.61007">
        <ele>11.4</ele>
        <time>2013-03-23T10:17:29Z</time>
      </trkpt>
      <trkpt lat="50.19051" lon="1.60998">
        <ele>11.4</ele>
        <time>2013-03-23T10:17:35Z</time>
      </trkpt>
      <trkpt lat="50.1905" lon="1.60997">
        <ele>11.4</ele>
        <time>2013-03-23T10:17:36Z</time>
      </trkpt>
      <trkpt lat="50.19047" lon="1.6098">
        <ele>11.4</ele>
        <time>2013-03-23T10:17:45Z</time>
      </trkpt>
      <trkpt lat="50.19042" lon="1.60966">
        <ele>11.4</ele>
        <time>2013-03-23T10:17:53Z</time>
      </trkpt>
      <trkpt lat="50.19039" lon="1.60958">
        <ele>11.4</ele>
        <time>2013-03-23T10:17:59Z</time>
      </trkpt>
      <trkpt lat="50.19036" lon="1.60947">
        <ele>11.4</ele>
        <time>2013-03-23T10:18:06Z</time>
      </trkpt>
      <trkpt lat="50.19032" lon="1.60935">
        <ele>11.4</ele>
        <time>2013-03-23T10:18:13Z</time>
      </trkpt>
      <trkpt lat="50.19029" lon="1.60925">
        <ele>11.4</ele>
        <time>2013-03-23T10:18:20Z</time>
      </trkpt>
      <trkpt lat="50.19025" lon="1.60913">
        <ele>11.4</ele>
        <time>2013-03-23T10:18:27Z</time>
      </trkpt>
      <trkpt lat="50.1902" lon="1.609">
        <ele>11.4</ele>
        <time>2013-03-23T10:18:35Z</time>
      </trkpt>
      <trkpt lat="50.19017" lon="1.60892">
        <ele>11.4</ele>
        <time>2013-03-23T10:18:40Z</time>
      </trkpt>
      <trkpt lat="50.19009" lon="1.60873">
        <ele>11.4</ele>
        <time>2013-03-23T10:18:53Z</time>
      </trkpt>
      <trkpt lat="50.19005" lon="1.60864">
        <ele>11.4</ele>
        <time>2013-03-23T10:18:59Z</time>
      </trkpt>
      <trkpt lat="50.19002" lon="1.60854">
        <ele>11.4</ele>
        <time>2013-03-23T10:19:06Z</time>
      </trkpt>
      <trkpt lat="50.19" lon="1.6085">
        <ele>11.4</ele>
        <time>2013-03-23T10:19:09Z</time>
      </trkpt>
      <trkpt lat="50.18996" lon="1.60837">
        <ele>11.4</ele>
        <time>2013-03-23T10:19:16Z</time>
      </trkpt>
      <trkpt lat="50.18992" lon="1.60825">
        <ele>11.4</ele>
        <time>2013-03-23T10:19:23Z</time>
      </trkpt>
      <trkpt lat="50.18989" lon="1.60815">
        <ele>11.4</ele>
        <time>2013-03-23T10:19:29Z</time>
      </trkpt>
      <trkpt lat="50.18984" lon="1.60802">
        <ele>11.4</ele>
        <time>2013-03-23T10:19:37Z</time>
      </trkpt>
      <trkpt lat="50.18971" lon="1.60758">
        <ele>11.4</ele>
        <time>2013-03-23T10:20:03Z</time>
      </trkpt>
      <trkpt lat="50.18966" lon="1.60743">
        <ele>11.4</ele>
        <time>2013-03-23T10:20:13Z</time>
      </trkpt>
      <trkpt lat="50.18962" lon="1.60733">
        <ele>11.4</ele>
        <time>2013-03-23T10:20:20Z</time>
      </trkpt>
      <trkpt lat="50.18956" lon="1.60718">
        <ele>11.4</ele>
        <time>2013-03-23T10:20:30Z</time>
      </trkpt>
      <trkpt lat="50.18952" lon="1.60702">
        <ele>11.4</ele>
        <time>2013-03-23T10:20:40Z</time>
      </trkpt>
      <trkpt lat="50.18949" lon="1.60688">
        <ele>11.4</ele>
        <time>2013-03-23T10:20:48Z</time>
      </trkpt>
      <trkpt lat="50.18945" lon="1.60677">
        <ele>11.4</ele>
        <time>2013-03-23T10:20:55Z</time>
      </trkpt>
      <trkpt lat="50.18939" lon="1.60661">
        <ele>11.4</ele>
        <time>2013-03-23T10:21:05Z</time>
      </trkpt>
      <trkpt lat="50.18933" lon="1.60647">
        <ele>11.4</ele>
        <time>2013-03-23T10:21:14Z</time>
      </trkpt>
      <trkpt lat="50.18928" lon="1.60637">
        <ele>11.4</ele>
        <time>2013-03-23T10:21:21Z</time>
      </trkpt>
      <trkpt lat="50.18923" lon="1.60624">
        <ele>11.4</ele>
        <time>2013-03-23T10:21:29Z</time>
      </trkpt>
      <trkpt lat="50.1892" lon="1.60617">
        <ele>11.4</ele>
        <time>2013-03-23T10:21:33Z</time>
      </trkpt>
      <trkpt lat="50.18916" lon="1.60608">
        <ele>11.4</ele>
        <time>2013-03-23T10:21:39Z</time>
      </trkpt>
      <trkpt lat="50.1891" lon="1.60594">
        <ele>11.4</ele>
        <time>2013-03-23T10:21:48Z</time>
      </trkpt>
      <trkpt lat="50.18905" lon="1.6058">
        <ele>11.4</ele>
        <time>2013-03-23T10:21:57Z</time>
      </trkpt>
      <trkpt lat="50.189" lon="1.6057">
        <ele>11.4</ele>
        <time>2013-03-23T10:22:04Z</time>
      </trkpt>
      <trkpt lat="50.18894" lon="1.60556">
        <ele>11.4</ele>
        <time>2013-03-23T10:22:13Z</time>
      </trkpt>
      <trkpt lat="50.18891" lon="1.60549">
        <ele>11.4</ele>
        <time>2013-03-23T10:22:18Z</time>
      </trkpt>
      <trkpt lat="50.18886" lon="1.60537">
        <ele>11.4</ele>
        <time>2013-03-23T10:22:26Z</time>
      </trkpt>
      <trkpt lat="50.18881" lon="1.60528">
        <ele>11.4</ele>
        <time>2013-03-23T10:22:33Z</time>
      </trkpt>
      <trkpt lat="50.18875" lon="1.6052">
        <ele>11.4</ele>
        <time>2013-03-23T10:22:40Z</time>
      </trkpt>
      <trkpt lat="50.18872" lon="1.6051">
        <ele>11.4</ele>
        <time>2013-03-23T10:22:46Z</time>
      </trkpt>
      <trkpt lat="50.18865" lon="1.60494">
        <ele>11.4</ele>
        <time>2013-03-23T10:22:57Z</time>
      </trkpt>
      <trkpt lat="50.18859" lon="1.60482">
        <ele>11.4</ele>
        <time>2013-03-23T10:23:05Z</time>
      </trkpt>
      <trkpt lat="50.18852" lon="1.60469">
        <ele>11.4</ele>
        <time>2013-03-23T10:23:14Z</time>
      </trkpt>
      <trkpt lat="50.18847" lon="1.60455">
        <ele>11.4</ele>
        <time>2013-03-23T10:23:22Z</time>
      </trkpt>
      <trkpt lat="50.18843" lon="1.60441">
        <ele>11.4</ele>
        <time>2013-03-23T10:23:30Z</time>
      </trkpt>
      <trkpt lat="50.18838" lon="1.60424">
        <ele>11.4</ele>
        <time>2013-03-23T10:23:40Z</time>
      </trkpt>
      <trkpt lat="50.18833" lon="1.60406">
        <ele>11.4</ele>
        <time>2013-03-23T10:23:50Z</time>
      </trkpt>
      <trkpt lat="50.18828" lon="1.60396">
        <ele>11.4</ele>
        <time>2013-03-23T10:23:57Z</time>
      </trkpt>
      <trkpt lat="50.18823" lon="1.60384">
        <ele>11.4</ele>
        <time>2013-03-23T10:24:05Z</time>
      </trkpt>
      <trkpt lat="50.18818" lon="1.60371">
        <ele>11.4</ele>
        <time>2013-03-23T10:24:13Z</time>
      </trkpt>
      <trkpt lat="50.18814" lon="1.60359">
        <ele>11.4</ele>
        <time>2013-03-23T10:24:20Z</time>
      </trkpt>
      <trkpt lat="50.18811" lon="1.6035">
        <ele>11.4</ele>
        <time>2013-03-23T10:24:26Z</time>
      </trkpt>
      <trkpt lat="50.18806" lon="1.60337">
        <ele>11.4</ele>
        <time>2013-03-23T10:24:34Z</time>
      </trkpt>
      <trkpt lat="50.18801" lon="1.60325">
        <ele>11.4</ele>
        <time>2013-03-23T10:24:42Z</time>
      </trkpt>
      <trkpt lat="50.18797" lon="1.60311">
        <ele>11.4</ele>
        <time>2013-03-23T10:24:51Z</time>
      </trkpt>
      <trkpt lat="50.18792" lon="1.60296">
        <ele>11.4</ele>
        <time>2013-03-23T10:25:00Z</time>
      </trkpt>
      <trkpt lat="50.18787" lon="1.60284">
        <ele>11.4</ele>
        <time>2013-03-23T10:25:08Z</time>
      </trkpt>
      <trkpt lat="50.18782" lon="1.6027">
        <ele>11.4</ele>
        <time>2013-03-23T10:25:17Z</time>
      </trkpt>
      <trkpt lat="50.18778" lon="1.60257">
        <ele>11.4</ele>
        <time>2013-03-23T10:25:25Z</time>
      </trkpt>
      <trkpt lat="50.18774" lon="1.60245">
        <ele>11.4</ele>
        <time>2013-03-23T10:25:33Z</time>
      </trkpt>
      <trkpt lat="50.1877" lon="1.60233">
        <ele>11.4</ele>
        <time>2013-03-23T10:25:41Z</time>
      </trkpt>
      <trkpt lat="50.18764" lon="1.60221">
        <ele>11.4</ele>
        <time>2013-03-23T10:25:50Z</time>
      </trkpt>
      <trkpt lat="50.18759" lon="1.60211">
        <ele>11.4</ele>
        <time>2013-03-23T10:25:57Z</time>
      </trkpt>
      <trkpt lat="50.18755" lon="1.60196">
        <ele>11.4</ele>
        <time>2013-03-23T10:26:06Z</time>
      </trkpt>
      <trkpt lat="50.18752" lon="1.60184">
        <ele>11.4</ele>
        <time>2013-03-23T10:26:13Z</time>
      </trkpt>
      <trkpt lat="50.18748" lon="1.60172">
        <ele>11.4</ele>
        <time>2013-03-23T10:26:20Z</time>
      </trkpt>
      <trkpt lat="50.18744" lon="1.60159">
        <ele>11.4</ele>
        <time>2013-03-23T10:26:28Z</time>
      </trkpt>
      <trkpt lat="50.18739" lon="1.60143">
        <ele>11.4</ele>
        <time>2013-03-23T10:26:38Z</time>
      </trkpt>
      <trkpt lat="50.18735" lon="1.60129">
        <ele>11.4</ele>
        <time>2013-03-23T10:26:46Z</time>
      </trkpt>
      <trkpt lat="50.1873" lon="1.60113">
        <ele>11.4</ele>
        <time>2013-03-23T10:26:56Z</time>
      </trkpt>
      <trkpt lat="50.18724" lon="1.601">
        <ele>11.4</ele>
        <time>2013-03-23T10:27:04Z</time>
      </trkpt>
      <trkpt lat="50.18718" lon="1.60086">
        <ele>11.4</ele>
        <time>2013-03-23T10:27:13Z</time>
      </trkpt>
      <trkpt lat="50.18714" lon="1.60079">
        <ele>11.4</ele>
        <time>2013-03-23T10:27:18Z</time>
      </trkpt>
      <trkpt lat="50.1871" lon="1.6007">
        <ele>11.4</ele>
        <time>2013-03-23T10:27:25Z</time>
      </trkpt>
      <trkpt lat="50.18705" lon="1.60057">
        <ele>11.4</ele>
        <time>2013-03-23T10:27:33Z</time>
      </trkpt>
      <trkpt lat="50.18699" lon="1.60045">
        <ele>11.4</ele>
        <time>2013-03-23T10:27:41Z</time>
      </trkpt>
      <trkpt lat="50.18693" lon="1.60034">
        <ele>11.4</ele>
        <time>2013-03-23T10:27:49Z</time>
      </trkpt>
      <trkpt lat="50.1869" lon="1.60028">
        <ele>11.4</ele>
        <time>2013-03-23T10:27:53Z</time>
      </trkpt>
      <trkpt lat="50.18684" lon="1.60019">
        <ele>11.4</ele>
        <time>2013-03-23T10:28:00Z</time>
      </trkpt>
      <trkpt lat="50.18677" lon="1.60012">
        <ele>11.4</ele>
        <time>2013-03-23T10:28:07Z</time>
      </trkpt>
      <trkpt lat="50.18675" lon="1.60009">
        <ele>11.4</ele>
        <time>2013-03-23T10:28:10Z</time>
      </trkpt>
      <trkpt lat="50.18668" lon="1.59995">
        <ele>11.4</ele>
        <time>2013-03-23T10:28:19Z</time>
      </trkpt>
      <trkpt lat="50.18663" lon="1.59983">
        <ele>11.4</ele>
        <time>2013-03-23T10:28:27Z</time>
      </trkpt>
      <trkpt lat="50.18657" lon="1.59967">
        <ele>11.4</ele>
        <time>2013-03-23T10:28:36Z</time>
      </trkpt>
      <trkpt lat="50.18655" lon="1.59963">
        <ele>11.4</ele>
        <time>2013-03-23T10:28:39Z</time>
      </trkpt>
      <trkpt lat="50.18652" lon="1.59953">
        <ele>11.4</ele>
        <time>2013-03-23T10:28:45Z</time>
      </trkpt>
      <trkpt lat="50.18652" lon="1.59951">
        <ele>11.4</ele>
        <time>2013-03-23T10:28:46Z</time>
      </trkpt>
      <trkpt lat="50.18648" lon="1.59944">
        <ele>11.4</ele>
        <time>2013-03-23T10:28:52Z</time>
      </trkpt>
      <trkpt lat="50.18645" lon="1.59936">
        <ele>11.4</ele>
        <time>2013-03-23T10:28:58Z</time>
      </trkpt>
      <trkpt lat="50.18643" lon="1.59931">
        <ele>11.4</ele>
        <time>2013-03-23T10:29:02Z</time>
      </trkpt>
      <trkpt lat="50.18638" lon="1.59921">
        <ele>11.4</ele>
        <time>2013-03-23T10:29:11Z</time>
      </trkpt>
      <trkpt lat="50.18634" lon="1.59913">
        <ele>11.4</ele>
        <time>2013-03-23T10:29:18Z</time>
      </trkpt>
      <trkpt lat="50.1863" lon="1.59903">
        <ele>11.4</ele>
        <time>2013-03-23T10:29:25Z</time>
      </trkpt>
      <trkpt lat="50.18629" lon="1.59896">
        <ele>11.4</ele>
        <time>2013-03-23T10:29:29Z</time>
      </trkpt>
      <trkpt lat="50.18621" lon="1.59882">
        <ele>11.4</ele>
        <time>2013-03-23T10:29:39Z</time>
      </trkpt>
      <trkpt lat="50.18615" lon="1.59873">
        <ele>11.4</ele>
        <time>2013-03-23T10:29:46Z</time>
      </trkpt>
      <trkpt lat="50.18613" lon="1.59868">
        <ele>11.4</ele>
        <time>2013-03-23T10:29:49Z</time>
      </trkpt>
      <trkpt lat="50.1861" lon="1.59859">
        <ele>11.4</ele>
        <time>2013-03-23T10:29:56Z</time>
      </trkpt>
      <trkpt lat="50.18608" lon="1.59854">
        <ele>11.4</ele>
        <time>2013-03-23T10:30:00Z</time>
      </trkpt>
      <trkpt lat="50.18603" lon="1.59841">
        <ele>11.4</ele>
        <time>2013-03-23T10:30:09Z</time>
      </trkpt>
      <trkpt lat="50.18599" lon="1.59832">
        <ele>11.4</ele>
        <time>2013-03-23T10:30:15Z</time>
      </trkpt>
      <trkpt lat="50.18598" lon="1.5983">
        <ele>11.4</ele>
        <time>2013-03-23T10:30:16Z</time>
      </trkpt>
      <trkpt lat="50.18594" lon="1.59821">
        <ele>11.4</ele>
        <time>2013-03-23T10:30:22Z</time>
      </trkpt>
      <trkpt lat="50.1859" lon="1.59811">
        <ele>11.4</ele>
        <time>2013-03-23T10:30:28Z</time>
      </trkpt>
      <trkpt lat="50.18587" lon="1.59803">
        <ele>11.4</ele>
        <time>2013-03-23T10:30:33Z</time>
      </trkpt>
      <trkpt lat="50.18585" lon="1.59793">
        <ele>11.4</ele>
        <time>2013-03-23T10:30:39Z</time>
      </trkpt>
      <trkpt lat="50.18584" lon="1.59781">
        <ele>11.4</ele>
        <time>2013-03-23T10:30:46Z</time>
      </trkpt>
      <trkpt lat="50.18583" lon="1.59776">
        <ele>11.4</ele>
        <time>2013-03-23T10:30:48Z</time>
      </trkpt>
      <trkpt lat="50.18579" lon="1.59764">
        <ele>11.4</ele>
        <time>2013-03-23T10:30:55Z</time>
      </trkpt>
      <trkpt lat="50.18576" lon="1.59753">
        <ele>11.6</ele>
        <time>2013-03-23T10:31:02Z</time>
      </trkpt>
      <trkpt lat="50.18573" lon="1.59742">
        <ele>12.6</ele>
        <time>2013-03-23T10:31:09Z</time>
      </trkpt>
      <trkpt lat="50.18568" lon="1.59728">
        <ele>13</ele>
        <time>2013-03-23T10:31:17Z</time>
      </trkpt>
      <trkpt lat="50.18565" lon="1.59717">
        <ele>13.2</ele>
        <time>2013-03-23T10:31:24Z</time>
      </trkpt>
      <trkpt lat="50.18563" lon="1.59711">
        <ele>13.4</ele>
        <time>2013-03-23T10:31:28Z</time>
      </trkpt>
      <trkpt lat="50.1856" lon="1.59699">
        <ele>13.4</ele>
        <time>2013-03-23T10:31:36Z</time>
      </trkpt>
      <trkpt lat="50.1856" lon="1.59696">
        <ele>13.4</ele>
        <time>2013-03-23T10:31:38Z</time>
      </trkpt>
      <trkpt lat="50.18557" lon="1.59682">
        <ele>13.4</ele>
        <time>2013-03-23T10:31:47Z</time>
      </trkpt>
      <trkpt lat="50.18554" lon="1.59667">
        <ele>13.4</ele>
        <time>2013-03-23T10:31:56Z</time>
      </trkpt>
      <trkpt lat="50.18551" lon="1.59656">
        <ele>13.4</ele>
        <time>2013-03-23T10:32:03Z</time>
      </trkpt>
      <trkpt lat="50.18548" lon="1.59646">
        <ele>13.4</ele>
        <time>2013-03-23T10:32:09Z</time>
      </trkpt>
      <trkpt lat="50.18546" lon="1.59633">
        <ele>13.4</ele>
        <time>2013-03-23T10:32:16Z</time>
      </trkpt>
      <trkpt lat="50.18542" lon="1.59621">
        <ele>13.4</ele>
        <time>2013-03-23T10:32:24Z</time>
      </trkpt>
      <trkpt lat="50.18538" lon="1.59608">
        <ele>13.4</ele>
        <time>2013-03-23T10:32:32Z</time>
      </trkpt>
      <trkpt lat="50.18534" lon="1.59594">
        <ele>13.4</ele>
        <time>2013-03-23T10:32:41Z</time>
      </trkpt>
      <trkpt lat="50.1853" lon="1.59581">
        <ele>13.4</ele>
        <time>2013-03-23T10:32:49Z</time>
      </trkpt>
      <trkpt lat="50.18526" lon="1.59569">
        <ele>13.4</ele>
        <time>2013-03-23T10:32:57Z</time>
      </trkpt>
      <trkpt lat="50.18523" lon="1.59557">
        <ele>13.4</ele>
        <time>2013-03-23T10:33:04Z</time>
      </trkpt>
      <trkpt lat="50.1852" lon="1.59551">
        <ele>13.4</ele>
        <time>2013-03-23T10:33:08Z</time>
      </trkpt>
      <trkpt lat="50.18517" lon="1.59542">
        <ele>13.4</ele>
        <time>2013-03-23T10:33:14Z</time>
      </trkpt>
      <trkpt lat="50.18516" lon="1.5954">
        <ele>13.4</ele>
        <time>2013-03-23T10:33:15Z</time>
      </trkpt>
      <trkpt lat="50.18512" lon="1.59526">
        <ele>13.4</ele>
        <time>2013-03-23T10:33:24Z</time>
      </trkpt>
      <trkpt lat="50.18508" lon="1.59514">
        <ele>12.8</ele>
        <time>2013-03-23T10:33:31Z</time>
      </trkpt>
      <trkpt lat="50.18507" lon="1.59514">
        <ele>12.8</ele>
        <time>2013-03-23T10:33:32Z</time>
      </trkpt>
      <trkpt lat="50.18505" lon="1.59509">
        <ele>12.4</ele>
        <time>2013-03-23T10:33:35Z</time>
      </trkpt>
      <trkpt lat="50.185" lon="1.59493">
        <ele>11.8</ele>
        <time>2013-03-23T10:33:46Z</time>
      </trkpt>
      <trkpt lat="50.18495" lon="1.59481">
        <ele>11.6</ele>
        <time>2013-03-23T10:33:53Z</time>
      </trkpt>
      <trkpt lat="50.18491" lon="1.5947">
        <ele>11.4</ele>
        <time>2013-03-23T10:34:00Z</time>
      </trkpt>
      <trkpt lat="50.18488" lon="1.59458">
        <ele>11.4</ele>
        <time>2013-03-23T10:34:07Z</time>
      </trkpt>
      <trkpt lat="50.18484" lon="1.59448">
        <ele>11.4</ele>
        <time>2013-03-23T10:34:14Z</time>
      </trkpt>
      <trkpt lat="50.18481" lon="1.59438">
        <ele>11.4</ele>
        <time>2013-03-23T10:34:20Z</time>
      </trkpt>
      <trkpt lat="50.18477" lon="1.59425">
        <ele>11.4</ele>
        <time>2013-03-23T10:34:28Z</time>
      </trkpt>
      <trkpt lat="50.18476" lon="1.59422">
        <ele>11.4</ele>
        <time>2013-03-23T10:34:30Z</time>
      </trkpt>
      <trkpt lat="50.18474" lon="1.59413">
        <ele>11.4</ele>
        <time>2013-03-23T10:34:36Z</time>
      </trkpt>
      <trkpt lat="50.18473" lon="1.59411">
        <ele>11.4</ele>
        <time>2013-03-23T10:34:37Z</time>
      </trkpt>
      <trkpt lat="50.18471" lon="1.594">
        <ele>11.4</ele>
        <time>2013-03-23T10:34:44Z</time>
      </trkpt>
      <trkpt lat="50.18468" lon="1.59386">
        <ele>11.4</ele>
        <time>2013-03-23T10:34:52Z</time>
      </trkpt>
      <trkpt lat="50.18466" lon="1.59376">
        <ele>11.4</ele>
        <time>2013-03-23T10:34:58Z</time>
      </trkpt>
      <trkpt lat="50.18465" lon="1.5937">
        <ele>11.4</ele>
        <time>2013-03-23T10:35:02Z</time>
      </trkpt>
      <trkpt lat="50.1846" lon="1.59359">
        <ele>11.4</ele>
        <time>2013-03-23T10:35:10Z</time>
      </trkpt>
      <trkpt lat="50.18455" lon="1.59348">
        <ele>11.4</ele>
        <time>2013-03-23T10:35:17Z</time>
      </trkpt>
      <trkpt lat="50.18452" lon="1.59337">
        <ele>11.4</ele>
        <time>2013-03-23T10:35:24Z</time>
      </trkpt>
      <trkpt lat="50.1845" lon="1.59327">
        <ele>11.4</ele>
        <time>2013-03-23T10:35:30Z</time>
      </trkpt>
      <trkpt lat="50.18449" lon="1.59314">
        <ele>11.4</ele>
        <time>2013-03-23T10:35:38Z</time>
      </trkpt>
      <trkpt lat="50.18447" lon="1.59301">
        <ele>11.4</ele>
        <time>2013-03-23T10:35:46Z</time>
      </trkpt>
      <trkpt lat="50.18447" lon="1.59299">
        <ele>11.4</ele>
        <time>2013-03-23T10:35:48Z</time>
      </trkpt>
      <trkpt lat="50.18447" lon="1.59297">
        <ele>11.4</ele>
        <time>2013-03-23T10:35:50Z</time>
      </trkpt>
      <trkpt lat="50.18444" lon="1.59291">
        <ele>11.4</ele>
        <time>2013-03-23T10:35:57Z</time>
      </trkpt>
      <trkpt lat="50.18442" lon="1.59288">
        <ele>11.4</ele>
        <time>2013-03-23T10:36:02Z</time>
      </trkpt>
      <trkpt lat="50.18441" lon="1.59286">
        <ele>11.4</ele>
        <time>2013-03-23T10:36:07Z</time>
      </trkpt>
      <trkpt lat="50.18441" lon="1.59285">
        <ele>11.4</ele>
        <time>2013-03-23T10:36:20Z</time>
      </trkpt>
      <trkpt lat="50.18441" lon="1.59285">
        <ele>13.4</ele>
        <time>2013-03-23T10:37:28Z</time>
      </trkpt>
      <trkpt lat="50.18442" lon="1.59285">
        <ele>13.4</ele>
        <time>2013-03-23T10:39:19Z</time>
      </trkpt>
      <trkpt lat="50.18442" lon="1.59287">
        <ele>13.4</ele>
        <time>2013-03-23T10:39:46Z</time>
      </trkpt>
      <trkpt lat="50.18443" lon="1.59285">
        <ele>13.4</ele>
        <time>2013-03-23T10:40:25Z</time>
      </trkpt>
      <trkpt lat="50.18446" lon="1.59283">
        <ele>11.4</ele>
        <time>2013-03-23T10:45:08Z</time>
      </trkpt>
      <trkpt lat="50.18448" lon="1.59281">
        <ele>11.4</ele>
        <time>2013-03-23T10:45:22Z</time>
      </trkpt>
      <trkpt lat="50.18449" lon="1.59279">
        <ele>11.4</ele>
        <time>2013-03-23T10:45:27Z</time>
      </trkpt>
      <trkpt lat="50.18451" lon="1.59277">
        <ele>11.4</ele>
        <time>2013-03-23T10:45:32Z</time>
      </trkpt>
      <trkpt lat="50.18454" lon="1.59274">
        <ele>11.4</ele>
        <time>2013-03-23T10:45:40Z</time>
      </trkpt>
      <trkpt lat="50.18458" lon="1.59269">
        <ele>11.4</ele>
        <time>2013-03-23T10:45:46Z</time>
      </trkpt>
      <trkpt lat="50.18467" lon="1.5926">
        <ele>11.4</ele>
        <time>2013-03-23T10:45:56Z</time>
      </trkpt>
      <trkpt lat="50.18473" lon="1.59253">
        <ele>11.4</ele>
        <time>2013-03-23T10:46:03Z</time>
      </trkpt>
      <trkpt lat="50.1848" lon="1.59246">
        <ele>11.4</ele>
        <time>2013-03-23T10:46:11Z</time>
      </trkpt>
      <trkpt lat="50.18487" lon="1.59236">
        <ele>11.4</ele>
        <time>2013-03-23T10:46:20Z</time>
      </trkpt>
      <trkpt lat="50.18493" lon="1.59229">
        <ele>11.4</ele>
        <time>2013-03-23T10:46:27Z</time>
      </trkpt>
      <trkpt lat="50.18501" lon="1.5922">
        <ele>11.4</ele>
        <time>2013-03-23T10:46:36Z</time>
      </trkpt>
      <trkpt lat="50.18509" lon="1.5921">
        <ele>11.4</ele>
        <time>2013-03-23T10:46:45Z</time>
      </trkpt>
      <trkpt lat="50.18516" lon="1.59202">
        <ele>11.4</ele>
        <time>2013-03-23T10:46:53Z</time>
      </trkpt>
      <trkpt lat="50.18523" lon="1.59193">
        <ele>11.4</ele>
        <time>2013-03-23T10:47:01Z</time>
      </trkpt>
      <trkpt lat="50.18529" lon="1.59186">
        <ele>11.4</ele>
        <time>2013-03-23T10:47:08Z</time>
      </trkpt>
      <trkpt lat="50.18536" lon="1.59178">
        <ele>11.4</ele>
        <time>2013-03-23T10:47:16Z</time>
      </trkpt>
      <trkpt lat="50.18544" lon="1.59169">
        <ele>11.4</ele>
        <time>2013-03-23T10:47:25Z</time>
      </trkpt>
      <trkpt lat="50.18552" lon="1.59161">
        <ele>11.4</ele>
        <time>2013-03-23T10:47:33Z</time>
      </trkpt>
      <trkpt lat="50.18561" lon="1.59153">
        <ele>11.4</ele>
        <time>2013-03-23T10:47:42Z</time>
      </trkpt>
      <trkpt lat="50.18568" lon="1.59145">
        <ele>11.4</ele>
        <time>2013-03-23T10:47:50Z</time>
      </trkpt>
      <trkpt lat="50.18574" lon="1.59137">
        <ele>11.4</ele>
        <time>2013-03-23T10:47:57Z</time>
      </trkpt>
      <trkpt lat="50.1858" lon="1.5913">
        <ele>11.4</ele>
        <time>2013-03-23T10:48:03Z</time>
      </trkpt>
      <trkpt lat="50.18583" lon="1.59121">
        <ele>11.4</ele>
        <time>2013-03-23T10:48:09Z</time>
      </trkpt>
      <trkpt lat="50.18588" lon="1.59112">
        <ele>11.4</ele>
        <time>2013-03-23T10:48:16Z</time>
      </trkpt>
      <trkpt lat="50.18588" lon="1.5911">
        <ele>11.4</ele>
        <time>2013-03-23T10:48:18Z</time>
      </trkpt>
      <trkpt lat="50.18593" lon="1.59099">
        <ele>11.4</ele>
        <time>2013-03-23T10:48:26Z</time>
      </trkpt>
      <trkpt lat="50.18598" lon="1.59086">
        <ele>11.4</ele>
        <time>2013-03-23T10:48:35Z</time>
      </trkpt>
      <trkpt lat="50.18603" lon="1.59073">
        <ele>11.4</ele>
        <time>2013-03-23T10:48:45Z</time>
      </trkpt>
      <trkpt lat="50.18606" lon="1.59063">
        <ele>11.4</ele>
        <time>2013-03-23T10:48:52Z</time>
      </trkpt>
      <trkpt lat="50.1861" lon="1.59052">
        <ele>11.4</ele>
        <time>2013-03-23T10:48:59Z</time>
      </trkpt>
      <trkpt lat="50.18614" lon="1.5904">
        <ele>11.4</ele>
        <time>2013-03-23T10:49:07Z</time>
      </trkpt>
      <trkpt lat="50.18617" lon="1.59028">
        <ele>11.4</ele>
        <time>2013-03-23T10:49:14Z</time>
      </trkpt>
      <trkpt lat="50.1862" lon="1.59015">
        <ele>11.4</ele>
        <time>2013-03-23T10:49:23Z</time>
      </trkpt>
      <trkpt lat="50.18622" lon="1.59003">
        <ele>11.4</ele>
        <time>2013-03-23T10:49:31Z</time>
      </trkpt>
      <trkpt lat="50.18624" lon="1.58988">
        <ele>11.4</ele>
        <time>2013-03-23T10:49:40Z</time>
      </trkpt>
      <trkpt lat="50.18628" lon="1.58968">
        <ele>11.4</ele>
        <time>2013-03-23T10:49:51Z</time>
      </trkpt>
      <trkpt lat="50.18631" lon="1.58948">
        <ele>11.4</ele>
        <time>2013-03-23T10:50:01Z</time>
      </trkpt>
      <trkpt lat="50.18632" lon="1.58935">
        <ele>11.4</ele>
        <time>2013-03-23T10:50:08Z</time>
      </trkpt>
      <trkpt lat="50.18634" lon="1.58922">
        <ele>10.6</ele>
        <time>2013-03-23T10:50:16Z</time>
      </trkpt>
      <trkpt lat="50.18635" lon="1.58908">
        <ele>10</ele>
        <time>2013-03-23T10:50:23Z</time>
      </trkpt>
      <trkpt lat="50.18638" lon="1.58894">
        <ele>9.6</ele>
        <time>2013-03-23T10:50:31Z</time>
      </trkpt>
      <trkpt lat="50.18645" lon="1.58881">
        <ele>9.4</ele>
        <time>2013-03-23T10:50:40Z</time>
      </trkpt>
      <trkpt lat="50.18652" lon="1.58871">
        <ele>9.4</ele>
        <time>2013-03-23T10:50:48Z</time>
      </trkpt>
      <trkpt lat="50.18658" lon="1.5886">
        <ele>9.4</ele>
        <time>2013-03-23T10:50:57Z</time>
      </trkpt>
      <trkpt lat="50.18666" lon="1.58848">
        <ele>9.4</ele>
        <time>2013-03-23T10:51:06Z</time>
      </trkpt>
      <trkpt lat="50.18673" lon="1.58836">
        <ele>9.4</ele>
        <time>2013-03-23T10:51:14Z</time>
      </trkpt>
      <trkpt lat="50.18679" lon="1.58826">
        <ele>9.4</ele>
        <time>2013-03-23T10:51:22Z</time>
      </trkpt>
      <trkpt lat="50.18685" lon="1.58818">
        <ele>9.4</ele>
        <time>2013-03-23T10:51:29Z</time>
      </trkpt>
      <trkpt lat="50.1869" lon="1.58809">
        <ele>9.4</ele>
        <time>2013-03-23T10:51:36Z</time>
      </trkpt>
      <trkpt lat="50.187" lon="1.58794">
        <ele>9.4</ele>
        <time>2013-03-23T10:51:47Z</time>
      </trkpt>
      <trkpt lat="50.18705" lon="1.58785">
        <ele>9.4</ele>
        <time>2013-03-23T10:51:53Z</time>
      </trkpt>
      <trkpt lat="50.18713" lon="1.58772">
        <ele>9.2</ele>
        <time>2013-03-23T10:52:03Z</time>
      </trkpt>
      <trkpt lat="50.18719" lon="1.58761">
        <ele>8.2</ele>
        <time>2013-03-23T10:52:11Z</time>
      </trkpt>
      <trkpt lat="50.18725" lon="1.58751">
        <ele>7.8</ele>
        <time>2013-03-23T10:52:18Z</time>
      </trkpt>
      <trkpt lat="50.18732" lon="1.58739">
        <ele>7.6</ele>
        <time>2013-03-23T10:52:27Z</time>
      </trkpt>
      <trkpt lat="50.18738" lon="1.58729">
        <ele>7.4</ele>
        <time>2013-03-23T10:52:35Z</time>
      </trkpt>
      <trkpt lat="50.18754" lon="1.58703">
        <ele>7.4</ele>
        <time>2013-03-23T10:52:54Z</time>
      </trkpt>
      <trkpt lat="50.1876" lon="1.58694">
        <ele>7.4</ele>
        <time>2013-03-23T10:53:01Z</time>
      </trkpt>
      <trkpt lat="50.18765" lon="1.58683">
        <ele>7.4</ele>
        <time>2013-03-23T10:53:09Z</time>
      </trkpt>
      <trkpt lat="50.18773" lon="1.5867">
        <ele>7.4</ele>
        <time>2013-03-23T10:53:19Z</time>
      </trkpt>
      <trkpt lat="50.1878" lon="1.58658">
        <ele>7.4</ele>
        <time>2013-03-23T10:53:28Z</time>
      </trkpt>
      <trkpt lat="50.18788" lon="1.58644">
        <ele>7.4</ele>
        <time>2013-03-23T10:53:39Z</time>
      </trkpt>
      <trkpt lat="50.18797" lon="1.58631">
        <ele>7.4</ele>
        <time>2013-03-23T10:53:49Z</time>
      </trkpt>
      <trkpt lat="50.18804" lon="1.5862">
        <ele>7.4</ele>
        <time>2013-03-23T10:53:58Z</time>
      </trkpt>
      <trkpt lat="50.18811" lon="1.58609">
        <ele>7.4</ele>
        <time>2013-03-23T10:54:06Z</time>
      </trkpt>
      <trkpt lat="50.18818" lon="1.58599">
        <ele>7.4</ele>
        <time>2013-03-23T10:54:14Z</time>
      </trkpt>
      <trkpt lat="50.18825" lon="1.58587">
        <ele>7.4</ele>
        <time>2013-03-23T10:54:23Z</time>
      </trkpt>
      <trkpt lat="50.18831" lon="1.58577">
        <ele>7.4</ele>
        <time>2013-03-23T10:54:31Z</time>
      </trkpt>
      <trkpt lat="50.18838" lon="1.58566">
        <ele>7.4</ele>
        <time>2013-03-23T10:54:39Z</time>
      </trkpt>
      <trkpt lat="50.18845" lon="1.58554">
        <ele>7.4</ele>
        <time>2013-03-23T10:54:48Z</time>
      </trkpt>
      <trkpt lat="50.1885" lon="1.58543">
        <ele>7.4</ele>
        <time>2013-03-23T10:54:56Z</time>
      </trkpt>
      <trkpt lat="50.18856" lon="1.58534">
        <ele>7.4</ele>
        <time>2013-03-23T10:55:03Z</time>
      </trkpt>
      <trkpt lat="50.18862" lon="1.58522">
        <ele>7.4</ele>
        <time>2013-03-23T10:55:11Z</time>
      </trkpt>
      <trkpt lat="50.18868" lon="1.58512">
        <ele>7.4</ele>
        <time>2013-03-23T10:55:18Z</time>
      </trkpt>
      <trkpt lat="50.18874" lon="1.58502">
        <ele>7.4</ele>
        <time>2013-03-23T10:55:26Z</time>
      </trkpt>
      <trkpt lat="50.18879" lon="1.58492">
        <ele>7.4</ele>
        <time>2013-03-23T10:55:33Z</time>
      </trkpt>
      <trkpt lat="50.18894" lon="1.58469">
        <ele>7.4</ele>
        <time>2013-03-23T10:55:51Z</time>
      </trkpt>
      <trkpt lat="50.189" lon="1.58459">
        <ele>7.4</ele>
        <time>2013-03-23T10:55:58Z</time>
      </trkpt>
      <trkpt lat="50.18907" lon="1.58448">
        <ele>7.4</ele>
        <time>2013-03-23T10:56:07Z</time>
      </trkpt>
      <trkpt lat="50.18914" lon="1.58438">
        <ele>7.4</ele>
        <time>2013-03-23T10:56:15Z</time>
      </trkpt>
      <trkpt lat="50.1892" lon="1.58428">
        <ele>7.4</ele>
        <time>2013-03-23T10:56:24Z</time>
      </trkpt>
      <trkpt lat="50.18926" lon="1.58419">
        <ele>7.4</ele>
        <time>2013-03-23T10:56:32Z</time>
      </trkpt>
      <trkpt lat="50.1893" lon="1.58409">
        <ele>7.4</ele>
        <time>2013-03-23T10:56:39Z</time>
      </trkpt>
      <trkpt lat="50.18943" lon="1.5839">
        <ele>7.4</ele>
        <time>2013-03-23T10:56:54Z</time>
      </trkpt>
      <trkpt lat="50.1895" lon="1.58378">
        <ele>7.4</ele>
        <time>2013-03-23T10:57:02Z</time>
      </trkpt>
      <trkpt lat="50.18955" lon="1.58369">
        <ele>8.4</ele>
        <time>2013-03-23T10:57:09Z</time>
      </trkpt>
      <trkpt lat="50.18962" lon="1.58357">
        <ele>9</ele>
        <time>2013-03-23T10:57:17Z</time>
      </trkpt>
      <trkpt lat="50.18968" lon="1.58348">
        <ele>9.2</ele>
        <time>2013-03-23T10:57:24Z</time>
      </trkpt>
      <trkpt lat="50.18974" lon="1.58337">
        <ele>9.4</ele>
        <time>2013-03-23T10:57:32Z</time>
      </trkpt>
      <trkpt lat="50.18982" lon="1.58324">
        <ele>9.4</ele>
        <time>2013-03-23T10:57:41Z</time>
      </trkpt>
      <trkpt lat="50.18988" lon="1.58315">
        <ele>9.4</ele>
        <time>2013-03-23T10:57:48Z</time>
      </trkpt>
      <trkpt lat="50.18994" lon="1.58305">
        <ele>9.4</ele>
        <time>2013-03-23T10:57:56Z</time>
      </trkpt>
      <trkpt lat="50.19001" lon="1.58293">
        <ele>9.4</ele>
        <time>2013-03-23T10:58:04Z</time>
      </trkpt>
      <trkpt lat="50.19007" lon="1.58283">
        <ele>9.4</ele>
        <time>2013-03-23T10:58:11Z</time>
      </trkpt>
      <trkpt lat="50.19012" lon="1.58274">
        <ele>9.4</ele>
        <time>2013-03-23T10:58:18Z</time>
      </trkpt>
      <trkpt lat="50.19018" lon="1.58263">
        <ele>9.4</ele>
        <time>2013-03-23T10:58:26Z</time>
      </trkpt>
      <trkpt lat="50.19025" lon="1.58252">
        <ele>9.4</ele>
        <time>2013-03-23T10:58:34Z</time>
      </trkpt>
      <trkpt lat="50.19033" lon="1.58239">
        <ele>9.4</ele>
        <time>2013-03-23T10:58:44Z</time>
      </trkpt>
      <trkpt lat="50.19039" lon="1.58229">
        <ele>9.4</ele>
        <time>2013-03-23T10:58:51Z</time>
      </trkpt>
      <trkpt lat="50.19046" lon="1.58218">
        <ele>9.4</ele>
        <time>2013-03-23T10:58:59Z</time>
      </trkpt>
      <trkpt lat="50.19052" lon="1.58209">
        <ele>9.4</ele>
        <time>2013-03-23T10:59:06Z</time>
      </trkpt>
      <trkpt lat="50.19057" lon="1.58201">
        <ele>9.4</ele>
        <time>2013-03-23T10:59:13Z</time>
      </trkpt>
      <trkpt lat="50.19062" lon="1.58192">
        <ele>9.4</ele>
        <time>2013-03-23T10:59:20Z</time>
      </trkpt>
      <trkpt lat="50.19068" lon="1.58183">
        <ele>9.4</ele>
        <time>2013-03-23T10:59:26Z</time>
      </trkpt>
      <trkpt lat="50.19075" lon="1.58172">
        <ele>9.4</ele>
        <time>2013-03-23T10:59:34Z</time>
      </trkpt>
      <trkpt lat="50.19082" lon="1.58161">
        <ele>9.4</ele>
        <time>2013-03-23T10:59:43Z</time>
      </trkpt>
      <trkpt lat="50.19089" lon="1.58149">
        <ele>9.4</ele>
        <time>2013-03-23T10:59:52Z</time>
      </trkpt>
      <trkpt lat="50.19097" lon="1.58137">
        <ele>9.4</ele>
        <time>2013-03-23T11:00:02Z</time>
      </trkpt>
      <trkpt lat="50.19104" lon="1.58125">
        <ele>9.4</ele>
        <time>2013-03-23T11:00:11Z</time>
      </trkpt>
      <trkpt lat="50.19104" lon="1.58124">
        <ele>9.4</ele>
        <time>2013-03-23T11:00:12Z</time>
      </trkpt>
      <trkpt lat="50.19107" lon="1.58118">
        <ele>9.4</ele>
        <time>2013-03-23T11:00:16Z</time>
      </trkpt>
      <trkpt lat="50.19114" lon="1.58108">
        <ele>9.4</ele>
        <time>2013-03-23T11:00:24Z</time>
      </trkpt>
      <trkpt lat="50.1912" lon="1.58097">
        <ele>9.4</ele>
        <time>2013-03-23T11:00:32Z</time>
      </trkpt>
      <trkpt lat="50.19129" lon="1.58085">
        <ele>9.4</ele>
        <time>2013-03-23T11:00:42Z</time>
      </trkpt>
      <trkpt lat="50.19137" lon="1.58072">
        <ele>9.4</ele>
        <time>2013-03-23T11:00:52Z</time>
      </trkpt>
      <trkpt lat="50.19138" lon="1.5807">
        <ele>9.4</ele>
        <time>2013-03-23T11:00:53Z</time>
      </trkpt>
      <trkpt lat="50.19143" lon="1.5806">
        <ele>9.4</ele>
        <time>2013-03-23T11:01:00Z</time>
      </trkpt>
      <trkpt lat="50.19148" lon="1.58053">
        <ele>9.4</ele>
        <time>2013-03-23T11:01:05Z</time>
      </trkpt>
      <trkpt lat="50.19153" lon="1.58044">
        <ele>9.4</ele>
        <time>2013-03-23T11:01:12Z</time>
      </trkpt>
      <trkpt lat="50.19158" lon="1.58034">
        <ele>9.4</ele>
        <time>2013-03-23T11:01:19Z</time>
      </trkpt>
      <trkpt lat="50.19164" lon="1.58025">
        <ele>9.4</ele>
        <time>2013-03-23T11:01:26Z</time>
      </trkpt>
      <trkpt lat="50.19165" lon="1.58023">
        <ele>9.4</ele>
        <time>2013-03-23T11:01:27Z</time>
      </trkpt>
      <trkpt lat="50.19174" lon="1.58009">
        <ele>9.4</ele>
        <time>2013-03-23T11:01:42Z</time>
      </trkpt>
      <trkpt lat="50.19175" lon="1.58008">
        <ele>9.4</ele>
        <time>2013-03-23T11:01:58Z</time>
      </trkpt>
      <trkpt lat="50.19176" lon="1.58006">
        <ele>9.4</ele>
        <time>2013-03-23T11:02:25Z</time>
      </trkpt>
      <trkpt lat="50.19181" lon="1.57998">
        <ele>9.4</ele>
        <time>2013-03-23T11:02:34Z</time>
      </trkpt>
      <trkpt lat="50.19185" lon="1.57992">
        <ele>9.4</ele>
        <time>2013-03-23T11:02:42Z</time>
      </trkpt>
      <trkpt lat="50.19189" lon="1.57985">
        <ele>9.4</ele>
        <time>2013-03-23T11:02:50Z</time>
      </trkpt>
      <trkpt lat="50.19194" lon="1.57977">
        <ele>9.4</ele>
        <time>2013-03-23T11:02:57Z</time>
      </trkpt>
      <trkpt lat="50.19198" lon="1.57969">
        <ele>9.4</ele>
        <time>2013-03-23T11:03:04Z</time>
      </trkpt>
      <trkpt lat="50.19202" lon="1.57963">
        <ele>9.4</ele>
        <time>2013-03-23T11:03:10Z</time>
      </trkpt>
      <trkpt lat="50.19208" lon="1.57954">
        <ele>9.4</ele>
        <time>2013-03-23T11:03:17Z</time>
      </trkpt>
      <trkpt lat="50.19214" lon="1.57944">
        <ele>9.4</ele>
        <time>2013-03-23T11:03:25Z</time>
      </trkpt>
      <trkpt lat="50.19219" lon="1.57935">
        <ele>9.4</ele>
        <time>2013-03-23T11:03:32Z</time>
      </trkpt>
      <trkpt lat="50.19225" lon="1.57927">
        <ele>9.4</ele>
        <time>2013-03-23T11:03:39Z</time>
      </trkpt>
      <trkpt lat="50.19229" lon="1.57919">
        <ele>9.4</ele>
        <time>2013-03-23T11:03:46Z</time>
      </trkpt>
      <trkpt lat="50.19236" lon="1.57907">
        <ele>9.4</ele>
        <time>2013-03-23T11:03:55Z</time>
      </trkpt>
      <trkpt lat="50.19243" lon="1.57896">
        <ele>9.4</ele>
        <time>2013-03-23T11:04:04Z</time>
      </trkpt>
      <trkpt lat="50.19251" lon="1.57883">
        <ele>9.4</ele>
        <time>2013-03-23T11:04:14Z</time>
      </trkpt>
      <trkpt lat="50.19256" lon="1.57874">
        <ele>9.4</ele>
        <time>2013-03-23T11:04:21Z</time>
      </trkpt>
      <trkpt lat="50.19262" lon="1.57865">
        <ele>9.4</ele>
        <time>2013-03-23T11:04:28Z</time>
      </trkpt>
      <trkpt lat="50.19265" lon="1.5786">
        <ele>9.4</ele>
        <time>2013-03-23T11:04:32Z</time>
      </trkpt>
      <trkpt lat="50.19272" lon="1.57848">
        <ele>9.4</ele>
        <time>2013-03-23T11:04:43Z</time>
      </trkpt>
      <trkpt lat="50.19277" lon="1.57838">
        <ele>9.4</ele>
        <time>2013-03-23T11:04:52Z</time>
      </trkpt>
      <trkpt lat="50.19279" lon="1.57836">
        <ele>9.4</ele>
        <time>2013-03-23T11:04:54Z</time>
      </trkpt>
      <trkpt lat="50.19284" lon="1.57826">
        <ele>9.4</ele>
        <time>2013-03-23T11:05:02Z</time>
      </trkpt>
      <trkpt lat="50.19285" lon="1.57824">
        <ele>9.4</ele>
        <time>2013-03-23T11:05:03Z</time>
      </trkpt>
      <trkpt lat="50.19289" lon="1.57816">
        <ele>9.4</ele>
        <time>2013-03-23T11:05:09Z</time>
      </trkpt>
      <trkpt lat="50.19293" lon="1.57804">
        <ele>9.4</ele>
        <time>2013-03-23T11:05:17Z</time>
      </trkpt>
      <trkpt lat="50.19297" lon="1.57794">
        <ele>9.4</ele>
        <time>2013-03-23T11:05:24Z</time>
      </trkpt>
      <trkpt lat="50.19301" lon="1.57782">
        <ele>9.4</ele>
        <time>2013-03-23T11:05:31Z</time>
      </trkpt>
      <trkpt lat="50.19313" lon="1.57744">
        <ele>9.4</ele>
        <time>2013-03-23T11:05:54Z</time>
      </trkpt>
      <trkpt lat="50.19317" lon="1.5773">
        <ele>9.4</ele>
        <time>2013-03-23T11:06:02Z</time>
      </trkpt>
      <trkpt lat="50.19321" lon="1.5772">
        <ele>9.4</ele>
        <time>2013-03-23T11:06:09Z</time>
      </trkpt>
      <trkpt lat="50.19325" lon="1.57707">
        <ele>9.4</ele>
        <time>2013-03-23T11:06:17Z</time>
      </trkpt>
      <trkpt lat="50.19329" lon="1.57695">
        <ele>9.4</ele>
        <time>2013-03-23T11:06:25Z</time>
      </trkpt>
      <trkpt lat="50.19333" lon="1.57683">
        <ele>9.4</ele>
        <time>2013-03-23T11:06:32Z</time>
      </trkpt>
      <trkpt lat="50.19337" lon="1.57672">
        <ele>9.4</ele>
        <time>2013-03-23T11:06:39Z</time>
      </trkpt>
      <trkpt lat="50.19341" lon="1.57661">
        <ele>9.4</ele>
        <time>2013-03-23T11:06:46Z</time>
      </trkpt>
      <trkpt lat="50.19345" lon="1.57649">
        <ele>9.4</ele>
        <time>2013-03-23T11:06:53Z</time>
      </trkpt>
      <trkpt lat="50.19349" lon="1.57636">
        <ele>9.4</ele>
        <time>2013-03-23T11:07:01Z</time>
      </trkpt>
      <trkpt lat="50.19352" lon="1.57624">
        <ele>9.4</ele>
        <time>2013-03-23T11:07:08Z</time>
      </trkpt>
      <trkpt lat="50.19356" lon="1.57615">
        <ele>9.4</ele>
        <time>2013-03-23T11:07:14Z</time>
      </trkpt>
      <trkpt lat="50.19359" lon="1.57604">
        <ele>9.4</ele>
        <time>2013-03-23T11:07:21Z</time>
      </trkpt>
      <trkpt lat="50.19363" lon="1.57592">
        <ele>9.4</ele>
        <time>2013-03-23T11:07:28Z</time>
      </trkpt>
      <trkpt lat="50.19367" lon="1.57581">
        <ele>9.4</ele>
        <time>2013-03-23T11:07:35Z</time>
      </trkpt>
      <trkpt lat="50.19371" lon="1.57568">
        <ele>9.4</ele>
        <time>2013-03-23T11:07:43Z</time>
      </trkpt>
      <trkpt lat="50.19376" lon="1.57554">
        <ele>9.4</ele>
        <time>2013-03-23T11:07:51Z</time>
      </trkpt>
      <trkpt lat="50.19381" lon="1.57539">
        <ele>9.4</ele>
        <time>2013-03-23T11:08:00Z</time>
      </trkpt>
      <trkpt lat="50.19385" lon="1.57525">
        <ele>9.4</ele>
        <time>2013-03-23T11:08:08Z</time>
      </trkpt>
      <trkpt lat="50.19389" lon="1.57514">
        <ele>9.4</ele>
        <time>2013-03-23T11:08:15Z</time>
      </trkpt>
      <trkpt lat="50.19393" lon="1.57503">
        <ele>9.4</ele>
        <time>2013-03-23T11:08:22Z</time>
      </trkpt>
      <trkpt lat="50.19397" lon="1.5749">
        <ele>9.4</ele>
        <time>2013-03-23T11:08:30Z</time>
      </trkpt>
      <trkpt lat="50.19401" lon="1.57479">
        <ele>9.4</ele>
        <time>2013-03-23T11:08:37Z</time>
      </trkpt>
      <trkpt lat="50.19405" lon="1.57465">
        <ele>9.4</ele>
        <time>2013-03-23T11:08:45Z</time>
      </trkpt>
      <trkpt lat="50.19409" lon="1.57452">
        <ele>9.4</ele>
        <time>2013-03-23T11:08:53Z</time>
      </trkpt>
      <trkpt lat="50.19413" lon="1.57439">
        <ele>9.4</ele>
        <time>2013-03-23T11:09:01Z</time>
      </trkpt>
      <trkpt lat="50.19418" lon="1.57426">
        <ele>9.4</ele>
        <time>2013-03-23T11:09:09Z</time>
      </trkpt>
      <trkpt lat="50.19423" lon="1.57409">
        <ele>9.4</ele>
        <time>2013-03-23T11:09:19Z</time>
      </trkpt>
      <trkpt lat="50.19426" lon="1.57399">
        <ele>9.4</ele>
        <time>2013-03-23T11:09:26Z</time>
      </trkpt>
      <trkpt lat="50.19431" lon="1.57386">
        <ele>9.4</ele>
        <time>2013-03-23T11:09:35Z</time>
      </trkpt>
      <trkpt lat="50.19434" lon="1.57375">
        <ele>9.4</ele>
        <time>2013-03-23T11:09:42Z</time>
      </trkpt>
      <trkpt lat="50.19441" lon="1.57358">
        <ele>9.4</ele>
        <time>2013-03-23T11:09:53Z</time>
      </trkpt>
      <trkpt lat="50.19444" lon="1.57346">
        <ele>9.4</ele>
        <time>2013-03-23T11:10:01Z</time>
      </trkpt>
      <trkpt lat="50.19447" lon="1.57336">
        <ele>9.4</ele>
        <time>2013-03-23T11:10:07Z</time>
      </trkpt>
      <trkpt lat="50.19452" lon="1.57321">
        <ele>9.4</ele>
        <time>2013-03-23T11:10:17Z</time>
      </trkpt>
      <trkpt lat="50.19456" lon="1.5731">
        <ele>9.4</ele>
        <time>2013-03-23T11:10:24Z</time>
      </trkpt>
      <trkpt lat="50.1946" lon="1.57297">
        <ele>9.4</ele>
        <time>2013-03-23T11:10:32Z</time>
      </trkpt>
      <trkpt lat="50.19464" lon="1.57285">
        <ele>9.4</ele>
        <time>2013-03-23T11:10:39Z</time>
      </trkpt>
      <trkpt lat="50.19468" lon="1.57273">
        <ele>9.4</ele>
        <time>2013-03-23T11:10:47Z</time>
      </trkpt>
      <trkpt lat="50.19473" lon="1.57259">
        <ele>9.4</ele>
        <time>2013-03-23T11:10:55Z</time>
      </trkpt>
      <trkpt lat="50.19476" lon="1.5725">
        <ele>9.4</ele>
        <time>2013-03-23T11:11:00Z</time>
      </trkpt>
      <trkpt lat="50.19479" lon="1.5724">
        <ele>9.4</ele>
        <time>2013-03-23T11:11:06Z</time>
      </trkpt>
      <trkpt lat="50.19481" lon="1.57233">
        <ele>9.4</ele>
        <time>2013-03-23T11:11:10Z</time>
      </trkpt>
      <trkpt lat="50.19486" lon="1.57219">
        <ele>9.4</ele>
        <time>2013-03-23T11:11:19Z</time>
      </trkpt>
      <trkpt lat="50.19489" lon="1.57209">
        <ele>9.4</ele>
        <time>2013-03-23T11:11:26Z</time>
      </trkpt>
      <trkpt lat="50.19493" lon="1.572">
        <ele>9.4</ele>
        <time>2013-03-23T11:11:32Z</time>
      </trkpt>
      <trkpt lat="50.19497" lon="1.57188">
        <ele>9.4</ele>
        <time>2013-03-23T11:11:40Z</time>
      </trkpt>
      <trkpt lat="50.19501" lon="1.57178">
        <ele>9.4</ele>
        <time>2013-03-23T11:11:48Z</time>
      </trkpt>
      <trkpt lat="50.19507" lon="1.57162">
        <ele>9.4</ele>
        <time>2013-03-23T11:12:00Z</time>
      </trkpt>
      <trkpt lat="50.1951" lon="1.57153">
        <ele>9.4</ele>
        <time>2013-03-23T11:12:07Z</time>
      </trkpt>
      <trkpt lat="50.19514" lon="1.57144">
        <ele>9.4</ele>
        <time>2013-03-23T11:12:14Z</time>
      </trkpt>
      <trkpt lat="50.19518" lon="1.57135">
        <ele>9.4</ele>
        <time>2013-03-23T11:12:20Z</time>
      </trkpt>
      <trkpt lat="50.19523" lon="1.57126">
        <ele>9.4</ele>
        <time>2013-03-23T11:12:26Z</time>
      </trkpt>
      <trkpt lat="50.19527" lon="1.57116">
        <ele>9.4</ele>
        <time>2013-03-23T11:12:34Z</time>
      </trkpt>
      <trkpt lat="50.19532" lon="1.57106">
        <ele>9.4</ele>
        <time>2013-03-23T11:12:42Z</time>
      </trkpt>
      <trkpt lat="50.19538" lon="1.57095">
        <ele>9.4</ele>
        <time>2013-03-23T11:12:50Z</time>
      </trkpt>
      <trkpt lat="50.19543" lon="1.57086">
        <ele>9.4</ele>
        <time>2013-03-23T11:12:56Z</time>
      </trkpt>
      <trkpt lat="50.19548" lon="1.57076">
        <ele>9.4</ele>
        <time>2013-03-23T11:13:05Z</time>
      </trkpt>
      <trkpt lat="50.19553" lon="1.57065">
        <ele>9.4</ele>
        <time>2013-03-23T11:13:12Z</time>
      </trkpt>
      <trkpt lat="50.19558" lon="1.57057">
        <ele>9.4</ele>
        <time>2013-03-23T11:13:18Z</time>
      </trkpt>
      <trkpt lat="50.19562" lon="1.57048">
        <ele>9.4</ele>
        <time>2013-03-23T11:13:25Z</time>
      </trkpt>
      <trkpt lat="50.19568" lon="1.57037">
        <ele>9.4</ele>
        <time>2013-03-23T11:13:32Z</time>
      </trkpt>
      <trkpt lat="50.19572" lon="1.57029">
        <ele>9.4</ele>
        <time>2013-03-23T11:13:38Z</time>
      </trkpt>
      <trkpt lat="50.19578" lon="1.57019">
        <ele>9.4</ele>
        <time>2013-03-23T11:13:47Z</time>
      </trkpt>
      <trkpt lat="50.19584" lon="1.57008">
        <ele>9.4</ele>
        <time>2013-03-23T11:13:55Z</time>
      </trkpt>
      <trkpt lat="50.19589" lon="1.56998">
        <ele>9.4</ele>
        <time>2013-03-23T11:14:02Z</time>
      </trkpt>
      <trkpt lat="50.19595" lon="1.56987">
        <ele>9.4</ele>
        <time>2013-03-23T11:14:10Z</time>
      </trkpt>
      <trkpt lat="50.196" lon="1.56975">
        <ele>9.4</ele>
        <time>2013-03-23T11:14:18Z</time>
      </trkpt>
      <trkpt lat="50.19605" lon="1.56966">
        <ele>9.4</ele>
        <time>2013-03-23T11:14:25Z</time>
      </trkpt>
      <trkpt lat="50.19611" lon="1.56955">
        <ele>9.4</ele>
        <time>2013-03-23T11:14:34Z</time>
      </trkpt>
      <trkpt lat="50.19616" lon="1.56945">
        <ele>9.4</ele>
        <time>2013-03-23T11:14:40Z</time>
      </trkpt>
      <trkpt lat="50.19622" lon="1.56932">
        <ele>9.4</ele>
        <time>2013-03-23T11:14:50Z</time>
      </trkpt>
      <trkpt lat="50.19627" lon="1.56924">
        <ele>9.4</ele>
        <time>2013-03-23T11:14:56Z</time>
      </trkpt>
      <trkpt lat="50.19633" lon="1.56913">
        <ele>9.4</ele>
        <time>2013-03-23T11:15:05Z</time>
      </trkpt>
      <trkpt lat="50.19638" lon="1.56904">
        <ele>9.4</ele>
        <time>2013-03-23T11:15:12Z</time>
      </trkpt>
      <trkpt lat="50.19643" lon="1.56894">
        <ele>9.4</ele>
        <time>2013-03-23T11:15:19Z</time>
      </trkpt>
      <trkpt lat="50.19647" lon="1.56886">
        <ele>9.4</ele>
        <time>2013-03-23T11:15:25Z</time>
      </trkpt>
      <trkpt lat="50.19652" lon="1.56877">
        <ele>9.4</ele>
        <time>2013-03-23T11:15:32Z</time>
      </trkpt>
      <trkpt lat="50.19657" lon="1.56869">
        <ele>9.4</ele>
        <time>2013-03-23T11:15:38Z</time>
      </trkpt>
      <trkpt lat="50.19663" lon="1.56859">
        <ele>9.4</ele>
        <time>2013-03-23T11:15:47Z</time>
      </trkpt>
      <trkpt lat="50.19668" lon="1.56851">
        <ele>9.4</ele>
        <time>2013-03-23T11:15:54Z</time>
      </trkpt>
      <trkpt lat="50.19673" lon="1.56842">
        <ele>9.4</ele>
        <time>2013-03-23T11:16:00Z</time>
      </trkpt>
      <trkpt lat="50.19679" lon="1.56834">
        <ele>9.4</ele>
        <time>2013-03-23T11:16:08Z</time>
      </trkpt>
      <trkpt lat="50.19684" lon="1.56825">
        <ele>9.4</ele>
        <time>2013-03-23T11:16:14Z</time>
      </trkpt>
      <trkpt lat="50.19689" lon="1.56817">
        <ele>9.4</ele>
        <time>2013-03-23T11:16:20Z</time>
      </trkpt>
      <trkpt lat="50.19695" lon="1.56808">
        <ele>9.4</ele>
        <time>2013-03-23T11:16:28Z</time>
      </trkpt>
      <trkpt lat="50.19701" lon="1.56797">
        <ele>9.4</ele>
        <time>2013-03-23T11:16:35Z</time>
      </trkpt>
      <trkpt lat="50.19706" lon="1.56789">
        <ele>9.4</ele>
        <time>2013-03-23T11:16:42Z</time>
      </trkpt>
      <trkpt lat="50.19711" lon="1.56782">
        <ele>9.4</ele>
        <time>2013-03-23T11:16:49Z</time>
      </trkpt>
      <trkpt lat="50.19716" lon="1.56774">
        <ele>9.4</ele>
        <time>2013-03-23T11:16:55Z</time>
      </trkpt>
      <trkpt lat="50.19723" lon="1.56762">
        <ele>9.4</ele>
        <time>2013-03-23T11:17:05Z</time>
      </trkpt>
      <trkpt lat="50.19729" lon="1.56752">
        <ele>9.4</ele>
        <time>2013-03-23T11:17:13Z</time>
      </trkpt>
      <trkpt lat="50.19735" lon="1.56744">
        <ele>9.4</ele>
        <time>2013-03-23T11:17:20Z</time>
      </trkpt>
      <trkpt lat="50.19738" lon="1.56738">
        <ele>9.4</ele>
        <time>2013-03-23T11:17:25Z</time>
      </trkpt>
      <trkpt lat="50.19744" lon="1.56729">
        <ele>9.4</ele>
        <time>2013-03-23T11:17:32Z</time>
      </trkpt>
      <trkpt lat="50.19749" lon="1.56721">
        <ele>9.4</ele>
        <time>2013-03-23T11:17:39Z</time>
      </trkpt>
      <trkpt lat="50.19755" lon="1.56711">
        <ele>9.4</ele>
        <time>2013-03-23T11:17:47Z</time>
      </trkpt>
      <trkpt lat="50.19761" lon="1.56703">
        <ele>9.4</ele>
        <time>2013-03-23T11:17:54Z</time>
      </trkpt>
      <trkpt lat="50.19762" lon="1.56701">
        <ele>9.4</ele>
        <time>2013-03-23T11:17:55Z</time>
      </trkpt>
      <trkpt lat="50.19769" lon="1.5669">
        <ele>9.4</ele>
        <time>2013-03-23T11:18:05Z</time>
      </trkpt>
      <trkpt lat="50.19775" lon="1.56682">
        <ele>9.4</ele>
        <time>2013-03-23T11:18:13Z</time>
      </trkpt>
      <trkpt lat="50.19781" lon="1.56674">
        <ele>9.4</ele>
        <time>2013-03-23T11:18:20Z</time>
      </trkpt>
      <trkpt lat="50.19787" lon="1.56665">
        <ele>9.4</ele>
        <time>2013-03-23T11:18:28Z</time>
      </trkpt>
      <trkpt lat="50.19794" lon="1.56657">
        <ele>9.4</ele>
        <time>2013-03-23T11:18:35Z</time>
      </trkpt>
      <trkpt lat="50.198" lon="1.56648">
        <ele>9.4</ele>
        <time>2013-03-23T11:18:44Z</time>
      </trkpt>
      <trkpt lat="50.19806" lon="1.56641">
        <ele>9.4</ele>
        <time>2013-03-23T11:18:50Z</time>
      </trkpt>
      <trkpt lat="50.19811" lon="1.56634">
        <ele>9.4</ele>
        <time>2013-03-23T11:18:58Z</time>
      </trkpt>
      <trkpt lat="50.19817" lon="1.56627">
        <ele>9.4</ele>
        <time>2013-03-23T11:19:05Z</time>
      </trkpt>
      <trkpt lat="50.19823" lon="1.5662">
        <ele>9.4</ele>
        <time>2013-03-23T11:19:12Z</time>
      </trkpt>
      <trkpt lat="50.1983" lon="1.56611">
        <ele>9.4</ele>
        <time>2013-03-23T11:19:20Z</time>
      </trkpt>
      <trkpt lat="50.19835" lon="1.56605">
        <ele>9.4</ele>
        <time>2013-03-23T11:19:26Z</time>
      </trkpt>
      <trkpt lat="50.19842" lon="1.56598">
        <ele>9.4</ele>
        <time>2013-03-23T11:19:34Z</time>
      </trkpt>
      <trkpt lat="50.19849" lon="1.56591">
        <ele>9.4</ele>
        <time>2013-03-23T11:19:42Z</time>
      </trkpt>
      <trkpt lat="50.19857" lon="1.56584">
        <ele>9.4</ele>
        <time>2013-03-23T11:19:50Z</time>
      </trkpt>
      <trkpt lat="50.19864" lon="1.56579">
        <ele>9.4</ele>
        <time>2013-03-23T11:19:57Z</time>
      </trkpt>
      <trkpt lat="50.19871" lon="1.56575">
        <ele>9.4</ele>
        <time>2013-03-23T11:20:05Z</time>
      </trkpt>
      <trkpt lat="50.19878" lon="1.5657">
        <ele>9.4</ele>
        <time>2013-03-23T11:20:11Z</time>
      </trkpt>
      <trkpt lat="50.19886" lon="1.56566">
        <ele>9.4</ele>
        <time>2013-03-23T11:20:20Z</time>
      </trkpt>
      <trkpt lat="50.19893" lon="1.56561">
        <ele>9.4</ele>
        <time>2013-03-23T11:20:26Z</time>
      </trkpt>
      <trkpt lat="50.19903" lon="1.56556">
        <ele>9.4</ele>
        <time>2013-03-23T11:20:35Z</time>
      </trkpt>
      <trkpt lat="50.19909" lon="1.5655">
        <ele>9.4</ele>
        <time>2013-03-23T11:20:42Z</time>
      </trkpt>
      <trkpt lat="50.19918" lon="1.56545">
        <ele>9.4</ele>
        <time>2013-03-23T11:20:50Z</time>
      </trkpt>
      <trkpt lat="50.19929" lon="1.56541">
        <ele>9.4</ele>
        <time>2013-03-23T11:20:58Z</time>
      </trkpt>
      <trkpt lat="50.19938" lon="1.56536">
        <ele>9.4</ele>
        <time>2013-03-23T11:21:05Z</time>
      </trkpt>
      <trkpt lat="50.19944" lon="1.56533">
        <ele>9.4</ele>
        <time>2013-03-23T11:21:12Z</time>
      </trkpt>
      <trkpt lat="50.19953" lon="1.56528">
        <ele>9.4</ele>
        <time>2013-03-23T11:21:20Z</time>
      </trkpt>
      <trkpt lat="50.19962" lon="1.56523">
        <ele>9.4</ele>
        <time>2013-03-23T11:21:28Z</time>
      </trkpt>
      <trkpt lat="50.19971" lon="1.56519">
        <ele>9.4</ele>
        <time>2013-03-23T11:21:36Z</time>
      </trkpt>
      <trkpt lat="50.19977" lon="1.56515">
        <ele>9.4</ele>
        <time>2013-03-23T11:21:43Z</time>
      </trkpt>
      <trkpt lat="50.19986" lon="1.5651">
        <ele>9.4</ele>
        <time>2013-03-23T11:21:50Z</time>
      </trkpt>
      <trkpt lat="50.19995" lon="1.56505">
        <ele>9.4</ele>
        <time>2013-03-23T11:21:59Z</time>
      </trkpt>
      <trkpt lat="50.19999" lon="1.56502">
        <ele>9.4</ele>
        <time>2013-03-23T11:22:04Z</time>
      </trkpt>
      <trkpt lat="50.20005" lon="1.56499">
        <ele>9.4</ele>
        <time>2013-03-23T11:22:10Z</time>
      </trkpt>
      <trkpt lat="50.20011" lon="1.56496">
        <ele>9.4</ele>
        <time>2013-03-23T11:22:15Z</time>
      </trkpt>
      <trkpt lat="50.20018" lon="1.56496">
        <ele>9.4</ele>
        <time>2013-03-23T11:22:24Z</time>
      </trkpt>
      <trkpt lat="50.20018" lon="1.56497">
        <ele>9.4</ele>
        <time>2013-03-23T11:22:25Z</time>
      </trkpt>
      <trkpt lat="50.2002" lon="1.565">
        <ele>9.4</ele>
        <time>2013-03-23T11:22:30Z</time>
      </trkpt>
      <trkpt lat="50.20021" lon="1.56505">
        <ele>9.4</ele>
        <time>2013-03-23T11:22:35Z</time>
      </trkpt>
      <trkpt lat="50.20022" lon="1.56508">
        <ele>9.4</ele>
        <time>2013-03-23T11:22:44Z</time>
      </trkpt>
      <trkpt lat="50.20024" lon="1.56509">
        <ele>9.4</ele>
        <time>2013-03-23T11:22:55Z</time>
      </trkpt>
      <trkpt lat="50.20028" lon="1.56507">
        <ele>9.4</ele>
        <time>2013-03-23T11:23:02Z</time>
      </trkpt>
      <trkpt lat="50.20029" lon="1.56507">
        <ele>9.4</ele>
        <time>2013-03-23T11:23:03Z</time>
      </trkpt>
      <trkpt lat="50.20032" lon="1.56512">
        <ele>9.4</ele>
        <time>2013-03-23T11:23:08Z</time>
      </trkpt>
      <trkpt lat="50.20034" lon="1.56514">
        <ele>9.4</ele>
        <time>2013-03-23T11:23:10Z</time>
      </trkpt>
      <trkpt lat="50.20037" lon="1.56517">
        <ele>9</ele>
        <time>2013-03-23T11:23:15Z</time>
      </trkpt>
      <trkpt lat="50.20039" lon="1.56522">
        <ele>8.4</ele>
        <time>2013-03-23T11:23:19Z</time>
      </trkpt>
      <trkpt lat="50.20041" lon="1.5653">
        <ele>8</ele>
        <time>2013-03-23T11:23:25Z</time>
      </trkpt>
      <trkpt lat="50.20044" lon="1.56537">
        <ele>7.6</ele>
        <time>2013-03-23T11:23:30Z</time>
      </trkpt>
      <trkpt lat="50.20044" lon="1.56538">
        <ele>7.6</ele>
        <time>2013-03-23T11:23:32Z</time>
      </trkpt>
      <trkpt lat="50.20044" lon="1.5654">
        <ele>7.6</ele>
        <time>2013-03-23T11:23:33Z</time>
      </trkpt>
      <trkpt lat="50.20047" lon="1.56545">
        <ele>7.6</ele>
        <time>2013-03-23T11:23:37Z</time>
      </trkpt>
      <trkpt lat="50.20048" lon="1.56547">
        <ele>7.4</ele>
        <time>2013-03-23T11:23:39Z</time>
      </trkpt>
      <trkpt lat="50.20055" lon="1.56564">
        <ele>7.4</ele>
        <time>2013-03-23T11:23:54Z</time>
      </trkpt>
      <trkpt lat="50.20058" lon="1.56572">
        <ele>7.4</ele>
        <time>2013-03-23T11:24:00Z</time>
      </trkpt>
      <trkpt lat="50.20059" lon="1.56578">
        <ele>7.4</ele>
        <time>2013-03-23T11:24:05Z</time>
      </trkpt>
      <trkpt lat="50.2006" lon="1.56578">
        <ele>7.4</ele>
        <time>2013-03-23T11:24:06Z</time>
      </trkpt>
      <trkpt lat="50.20064" lon="1.56582">
        <ele>6.8</ele>
        <time>2013-03-23T11:24:13Z</time>
      </trkpt>
      <trkpt lat="50.20064" lon="1.56583">
        <ele>6</ele>
        <time>2013-03-23T11:24:22Z</time>
      </trkpt>
      <trkpt lat="50.20065" lon="1.56583">
        <ele>5.4</ele>
        <time>2013-03-23T11:24:48Z</time>
      </trkpt>
      <trkpt lat="50.20065" lon="1.56584">
        <ele>5.4</ele>
        <time>2013-03-23T11:25:30Z</time>
      </trkpt>
      <trkpt lat="50.20065" lon="1.56584">
        <ele>5.4</ele>
        <time>2013-03-23T11:25:39Z</time>
      </trkpt>
      <trkpt lat="50.20065" lon="1.56584">
        <ele>5.4</ele>
        <time>2013-03-23T11:27:27Z</time>
      </trkpt>
      <trkpt lat="50.20066" lon="1.56584">
        <ele>5.4</ele>
        <time>2013-03-23T11:28:30Z</time>
      </trkpt>
      <trkpt lat="50.20066" lon="1.56585">
        <ele>11.2</ele>
        <time>2013-03-23T11:35:01Z</time>
      </trkpt>
      <trkpt lat="50.20068" lon="1.56582">
        <ele>11.4</ele>
        <time>2013-03-23T11:37:07Z</time>
      </trkpt>
      <trkpt lat="50.20068" lon="1.56582">
        <ele>11.4</ele>
        <time>2013-03-23T11:37:45Z</time>
      </trkpt>
      <trkpt lat="50.20067" lon="1.56581">
        <ele>11.4</ele>
        <time>2013-03-23T11:38:34Z</time>
      </trkpt>
      <trkpt lat="50.20066" lon="1.56582">
        <ele>10.2</ele>
        <time>2013-03-23T11:39:01Z</time>
      </trkpt>
      <trkpt lat="50.20065" lon="1.56582">
        <ele>9.4</ele>
        <time>2013-03-23T11:39:24Z</time>
      </trkpt>
      <trkpt lat="50.20063" lon="1.56583">
        <ele>9.4</ele>
        <time>2013-03-23T11:41:29Z</time>
      </trkpt>
      <trkpt lat="50.20063" lon="1.56583">
        <ele>9.4</ele>
        <time>2013-03-23T11:41:40Z</time>
      </trkpt>
      <trkpt lat="50.20063" lon="1.56583">
        <ele>9.4</ele>
        <time>2013-03-23T11:41:47Z</time>
      </trkpt>
      <trkpt lat="50.20063" lon="1.56583">
        <ele>9.4</ele>
        <time>2013-03-23T11:42:09Z</time>
      </trkpt>
      <trkpt lat="50.20063" lon="1.56585">
        <ele>9.4</ele>
        <time>2013-03-23T11:44:18Z</time>
      </trkpt>
      <trkpt lat="50.20063" lon="1.56584">
        <ele>9.4</ele>
        <time>2013-03-23T11:45:08Z</time>
      </trkpt>
      <trkpt lat="50.20063" lon="1.56584">
        <ele>9.4</ele>
        <time>2013-03-23T11:45:13Z</time>
      </trkpt>
      <trkpt lat="50.20062" lon="1.56584">
        <ele>9.4</ele>
        <time>2013-03-23T11:45:35Z</time>
      </trkpt>
      <trkpt lat="50.20063" lon="1.56584">
        <ele>9.4</ele>
        <time>2013-03-23T11:45:42Z</time>
      </trkpt>
      <trkpt lat="50.20062" lon="1.56585">
        <ele>7.4</ele>
        <time>2013-03-23T11:46:32Z</time>
      </trkpt>
      <trkpt lat="50.20063" lon="1.56583">
        <ele>7.4</ele>
        <time>2013-03-23T11:46:40Z</time>
      </trkpt>
      <trkpt lat="50.20063" lon="1.56584">
        <ele>7.4</ele>
        <time>2013-03-23T11:47:07Z</time>
      </trkpt>
      <trkpt lat="50.20063" lon="1.56584">
        <ele>7.4</ele>
        <time>2013-03-23T11:50:38Z</time>
      </trkpt>
      <trkpt lat="50.20063" lon="1.56584">
        <ele>7.4</ele>
        <time>2013-03-23T11:50:51Z</time>
      </trkpt>
      <trkpt lat="50.20062" lon="1.56584">
        <ele>7.4</ele>
        <time>2013-03-23T11:51:23Z</time>
      </trkpt>
      <trkpt lat="50.20062" lon="1.56584">
        <ele>7.4</ele>
        <time>2013-03-23T11:51:32Z</time>
      </trkpt>
      <trkpt lat="50.20062" lon="1.56583">
        <ele>7.4</ele>
        <time>2013-03-23T11:51:36Z</time>
      </trkpt>
      <trkpt lat="50.20062" lon="1.56582">
        <ele>9.4</ele>
        <time>2013-03-23T11:55:16Z</time>
      </trkpt>
      <trkpt lat="50.20062" lon="1.56582">
        <ele>9.4</ele>
        <time>2013-03-23T11:55:21Z</time>
      </trkpt>
      <trkpt lat="50.20062" lon="1.56582">
        <ele>9.4</ele>
        <time>2013-03-23T11:55:27Z</time>
      </trkpt>
      <trkpt lat="50.20061" lon="1.56582">
        <ele>9.4</ele>
        <time>2013-03-23T11:55:40Z</time>
      </trkpt>
      <trkpt lat="50.20061" lon="1.5658">
        <ele>9.4</ele>
        <time>2013-03-23T11:56:49Z</time>
      </trkpt>
      <trkpt lat="50.20061" lon="1.5658">
        <ele>10.8</ele>
        <time>2013-03-23T11:57:02Z</time>
      </trkpt>
      <trkpt lat="50.20061" lon="1.5658">
        <ele>11.2</ele>
        <time>2013-03-23T11:57:12Z</time>
      </trkpt>
      <trkpt lat="50.20061" lon="1.56581">
        <ele>11.4</ele>
        <time>2013-03-23T11:58:20Z</time>
      </trkpt>
      <trkpt lat="50.20062" lon="1.56581">
        <ele>11.4</ele>
        <time>2013-03-23T11:58:36Z</time>
      </trkpt>
      <trkpt lat="50.20061" lon="1.56582">
        <ele>9.4</ele>
        <time>2013-03-23T12:04:03Z</time>
      </trkpt>
      <trkpt lat="50.20062" lon="1.56584">
        <ele>7.4</ele>
        <time>2013-03-23T12:09:13Z</time>
      </trkpt>
      <trkpt lat="50.20062" lon="1.56585">
        <ele>7.4</ele>
        <time>2013-03-23T12:09:24Z</time>
      </trkpt>
      <trkpt lat="50.20063" lon="1.56585">
        <ele>7.4</ele>
        <time>2013-03-23T12:10:57Z</time>
      </trkpt>
      <trkpt lat="50.20063" lon="1.56584">
        <ele>7.4</ele>
        <time>2013-03-23T12:12:32Z</time>
      </trkpt>
      <trkpt lat="50.20062" lon="1.56584">
        <ele>7.4</ele>
        <time>2013-03-23T12:12:37Z</time>
      </trkpt>
      <trkpt lat="50.20065" lon="1.56584">
        <ele>7.8</ele>
        <time>2013-03-23T12:14:57Z</time>
      </trkpt>
      <trkpt lat="50.20064" lon="1.56584">
        <ele>7.4</ele>
        <time>2013-03-23T12:20:01Z</time>
      </trkpt>
      <trkpt lat="50.20064" lon="1.56584">
        <ele>7.4</ele>
        <time>2013-03-23T12:20:46Z</time>
      </trkpt>
      <trkpt lat="50.20064" lon="1.56583">
        <ele>7.4</ele>
        <time>2013-03-23T12:20:53Z</time>
      </trkpt>
      <trkpt lat="50.20064" lon="1.56582">
        <ele>7.4</ele>
        <time>2013-03-23T12:21:02Z</time>
      </trkpt>
      <trkpt lat="50.20065" lon="1.56583">
        <ele>7.4</ele>
        <time>2013-03-23T12:21:09Z</time>
      </trkpt>
      <trkpt lat="50.20066" lon="1.5658">
        <ele>7.4</ele>
        <time>2013-03-23T12:22:31Z</time>
      </trkpt>
      <trkpt lat="50.20064" lon="1.56575">
        <ele>7.4</ele>
        <time>2013-03-23T12:23:00Z</time>
      </trkpt>
      <trkpt lat="50.20062" lon="1.56577">
        <ele>9.2</ele>
        <time>2013-03-23T12:24:11Z</time>
      </trkpt>
      <trkpt lat="50.20063" lon="1.56582">
        <ele>9.4</ele>
        <time>2013-03-23T12:24:29Z</time>
      </trkpt>
      <trkpt lat="50.20062" lon="1.56585">
        <ele>9.4</ele>
        <time>2013-03-23T12:24:36Z</time>
      </trkpt>
      <trkpt lat="50.20063" lon="1.56592">
        <ele>9.4</ele>
        <time>2013-03-23T12:24:50Z</time>
      </trkpt>
      <trkpt lat="50.20067" lon="1.56593">
        <ele>9.4</ele>
        <time>2013-03-23T12:24:56Z</time>
      </trkpt>
      <trkpt lat="50.20072" lon="1.56593">
        <ele>9.4</ele>
        <time>2013-03-23T12:25:03Z</time>
      </trkpt>
      <trkpt lat="50.20075" lon="1.56592">
        <ele>9.4</ele>
        <time>2013-03-23T12:25:09Z</time>
      </trkpt>
      <trkpt lat="50.20082" lon="1.56592">
        <ele>9.4</ele>
        <time>2013-03-23T12:25:16Z</time>
      </trkpt>
      <trkpt lat="50.2009" lon="1.56591">
        <ele>9.4</ele>
        <time>2013-03-23T12:25:24Z</time>
      </trkpt>
      <trkpt lat="50.20096" lon="1.5659">
        <ele>9.4</ele>
        <time>2013-03-23T12:25:29Z</time>
      </trkpt>
      <trkpt lat="50.20104" lon="1.5659">
        <ele>9.4</ele>
        <time>2013-03-23T12:25:38Z</time>
      </trkpt>
      <trkpt lat="50.20112" lon="1.56589">
        <ele>9.4</ele>
        <time>2013-03-23T12:25:47Z</time>
      </trkpt>
      <trkpt lat="50.20117" lon="1.56589">
        <ele>10.4</ele>
        <time>2013-03-23T12:25:54Z</time>
      </trkpt>
      <trkpt lat="50.20124" lon="1.56589">
        <ele>11</ele>
        <time>2013-03-23T12:26:02Z</time>
      </trkpt>
      <trkpt lat="50.20125" lon="1.5659">
        <ele>11</ele>
        <time>2013-03-23T12:26:03Z</time>
      </trkpt>
      <trkpt lat="50.20128" lon="1.56593">
        <ele>11.2</ele>
        <time>2013-03-23T12:26:09Z</time>
      </trkpt>
      <trkpt lat="50.20129" lon="1.56594">
        <ele>11.2</ele>
        <time>2013-03-23T12:26:10Z</time>
      </trkpt>
      <trkpt lat="50.20135" lon="1.56597">
        <ele>11.2</ele>
        <time>2013-03-23T12:26:16Z</time>
      </trkpt>
      <trkpt lat="50.20136" lon="1.56597">
        <ele>11.4</ele>
        <time>2013-03-23T12:26:17Z</time>
      </trkpt>
      <trkpt lat="50.20145" lon="1.56599">
        <ele>11.4</ele>
        <time>2013-03-23T12:26:25Z</time>
      </trkpt>
      <trkpt lat="50.20155" lon="1.56604">
        <ele>11.4</ele>
        <time>2013-03-23T12:26:34Z</time>
      </trkpt>
      <trkpt lat="50.20162" lon="1.56614">
        <ele>11.4</ele>
        <time>2013-03-23T12:26:42Z</time>
      </trkpt>
      <trkpt lat="50.20166" lon="1.56623">
        <ele>11.4</ele>
        <time>2013-03-23T12:26:48Z</time>
      </trkpt>
      <trkpt lat="50.20172" lon="1.56633">
        <ele>11.4</ele>
        <time>2013-03-23T12:26:56Z</time>
      </trkpt>
      <trkpt lat="50.20179" lon="1.56641">
        <ele>11.4</ele>
        <time>2013-03-23T12:27:04Z</time>
      </trkpt>
      <trkpt lat="50.20185" lon="1.56647">
        <ele>11.4</ele>
        <time>2013-03-23T12:27:12Z</time>
      </trkpt>
      <trkpt lat="50.20192" lon="1.56651">
        <ele>11.4</ele>
        <time>2013-03-23T12:27:20Z</time>
      </trkpt>
      <trkpt lat="50.202" lon="1.56655">
        <ele>11.4</ele>
        <time>2013-03-23T12:27:29Z</time>
      </trkpt>
      <trkpt lat="50.20218" lon="1.56654">
        <ele>11.4</ele>
        <time>2013-03-23T12:27:47Z</time>
      </trkpt>
      <trkpt lat="50.20226" lon="1.56647">
        <ele>11.4</ele>
        <time>2013-03-23T12:27:55Z</time>
      </trkpt>
      <trkpt lat="50.20236" lon="1.56639">
        <ele>11.4</ele>
        <time>2013-03-23T12:28:05Z</time>
      </trkpt>
      <trkpt lat="50.20246" lon="1.56627">
        <ele>11.4</ele>
        <time>2013-03-23T12:28:15Z</time>
      </trkpt>
      <trkpt lat="50.20254" lon="1.56618">
        <ele>11.4</ele>
        <time>2013-03-23T12:28:23Z</time>
      </trkpt>
      <trkpt lat="50.20262" lon="1.56611">
        <ele>11.4</ele>
        <time>2013-03-23T12:28:31Z</time>
      </trkpt>
      <trkpt lat="50.2027" lon="1.56606">
        <ele>11.4</ele>
        <time>2013-03-23T12:28:38Z</time>
      </trkpt>
      <trkpt lat="50.20276" lon="1.56599">
        <ele>11.4</ele>
        <time>2013-03-23T12:28:45Z</time>
      </trkpt>
      <trkpt lat="50.20286" lon="1.56588">
        <ele>11.4</ele>
        <time>2013-03-23T12:28:55Z</time>
      </trkpt>
      <trkpt lat="50.20294" lon="1.56579">
        <ele>11.4</ele>
        <time>2013-03-23T12:29:03Z</time>
      </trkpt>
      <trkpt lat="50.20301" lon="1.5657">
        <ele>11.4</ele>
        <time>2013-03-23T12:29:11Z</time>
      </trkpt>
      <trkpt lat="50.20311" lon="1.56558">
        <ele>11.4</ele>
        <time>2013-03-23T12:29:22Z</time>
      </trkpt>
      <trkpt lat="50.20318" lon="1.56549">
        <ele>11.4</ele>
        <time>2013-03-23T12:29:30Z</time>
      </trkpt>
      <trkpt lat="50.20326" lon="1.56541">
        <ele>11.4</ele>
        <time>2013-03-23T12:29:38Z</time>
      </trkpt>
      <trkpt lat="50.20335" lon="1.56531">
        <ele>11.4</ele>
        <time>2013-03-23T12:29:48Z</time>
      </trkpt>
      <trkpt lat="50.20343" lon="1.56524">
        <ele>11.4</ele>
        <time>2013-03-23T12:29:55Z</time>
      </trkpt>
      <trkpt lat="50.20351" lon="1.56515">
        <ele>11.4</ele>
        <time>2013-03-23T12:30:04Z</time>
      </trkpt>
      <trkpt lat="50.20361" lon="1.56504">
        <ele>11.4</ele>
        <time>2013-03-23T12:30:15Z</time>
      </trkpt>
      <trkpt lat="50.20369" lon="1.56495">
        <ele>11.4</ele>
        <time>2013-03-23T12:30:23Z</time>
      </trkpt>
      <trkpt lat="50.20377" lon="1.56485">
        <ele>11.4</ele>
        <time>2013-03-23T12:30:32Z</time>
      </trkpt>
      <trkpt lat="50.20385" lon="1.56476">
        <ele>11.4</ele>
        <time>2013-03-23T12:30:40Z</time>
      </trkpt>
      <trkpt lat="50.20392" lon="1.56468">
        <ele>11.4</ele>
        <time>2013-03-23T12:30:48Z</time>
      </trkpt>
      <trkpt lat="50.204" lon="1.5646">
        <ele>11.4</ele>
        <time>2013-03-23T12:30:56Z</time>
      </trkpt>
      <trkpt lat="50.20408" lon="1.56452">
        <ele>11.4</ele>
        <time>2013-03-23T12:31:04Z</time>
      </trkpt>
      <trkpt lat="50.20417" lon="1.56442">
        <ele>11.4</ele>
        <time>2013-03-23T12:31:14Z</time>
      </trkpt>
      <trkpt lat="50.20425" lon="1.56434">
        <ele>11</ele>
        <time>2013-03-23T12:31:22Z</time>
      </trkpt>
      <trkpt lat="50.20432" lon="1.56424">
        <ele>10</ele>
        <time>2013-03-23T12:31:31Z</time>
      </trkpt>
      <trkpt lat="50.20443" lon="1.56412">
        <ele>9.6</ele>
        <time>2013-03-23T12:31:42Z</time>
      </trkpt>
      <trkpt lat="50.20445" lon="1.56408">
        <ele>9.6</ele>
        <time>2013-03-23T12:31:45Z</time>
      </trkpt>
      <trkpt lat="50.20446" lon="1.56401">
        <ele>9.4</ele>
        <time>2013-03-23T12:31:49Z</time>
      </trkpt>
      <trkpt lat="50.20453" lon="1.56391">
        <ele>9.4</ele>
        <time>2013-03-23T12:31:58Z</time>
      </trkpt>
      <trkpt lat="50.20459" lon="1.56384">
        <ele>9.4</ele>
        <time>2013-03-23T12:32:06Z</time>
      </trkpt>
      <trkpt lat="50.20468" lon="1.56375">
        <ele>9.4</ele>
        <time>2013-03-23T12:32:15Z</time>
      </trkpt>
      <trkpt lat="50.20477" lon="1.56365">
        <ele>9.4</ele>
        <time>2013-03-23T12:32:24Z</time>
      </trkpt>
      <trkpt lat="50.20485" lon="1.56356">
        <ele>9.4</ele>
        <time>2013-03-23T12:32:33Z</time>
      </trkpt>
      <trkpt lat="50.20492" lon="1.56349">
        <ele>9.4</ele>
        <time>2013-03-23T12:32:41Z</time>
      </trkpt>
      <trkpt lat="50.20498" lon="1.56341">
        <ele>9.4</ele>
        <time>2013-03-23T12:32:49Z</time>
      </trkpt>
      <trkpt lat="50.20499" lon="1.56341">
        <ele>9.4</ele>
        <time>2013-03-23T12:32:50Z</time>
      </trkpt>
      <trkpt lat="50.20501" lon="1.5634">
        <ele>9.4</ele>
        <time>2013-03-23T12:32:53Z</time>
      </trkpt>
      <trkpt lat="50.20507" lon="1.56333">
        <ele>9.4</ele>
        <time>2013-03-23T12:33:00Z</time>
      </trkpt>
      <trkpt lat="50.20512" lon="1.56328">
        <ele>9.4</ele>
        <time>2013-03-23T12:33:05Z</time>
      </trkpt>
      <trkpt lat="50.20518" lon="1.56327">
        <ele>9.4</ele>
        <time>2013-03-23T12:33:10Z</time>
      </trkpt>
      <trkpt lat="50.20527" lon="1.56315">
        <ele>9.4</ele>
        <time>2013-03-23T12:33:20Z</time>
      </trkpt>
      <trkpt lat="50.20536" lon="1.56305">
        <ele>9.4</ele>
        <time>2013-03-23T12:33:29Z</time>
      </trkpt>
      <trkpt lat="50.20536" lon="1.56304">
        <ele>9.4</ele>
        <time>2013-03-23T12:33:30Z</time>
      </trkpt>
      <trkpt lat="50.20538" lon="1.56301">
        <ele>9.4</ele>
        <time>2013-03-23T12:33:32Z</time>
      </trkpt>
      <trkpt lat="50.20554" lon="1.56283">
        <ele>9.4</ele>
        <time>2013-03-23T12:33:49Z</time>
      </trkpt>
      <trkpt lat="50.2056" lon="1.56275">
        <ele>9.4</ele>
        <time>2013-03-23T12:33:56Z</time>
      </trkpt>
      <trkpt lat="50.20568" lon="1.56267">
        <ele>9.4</ele>
        <time>2013-03-23T12:34:04Z</time>
      </trkpt>
      <trkpt lat="50.20573" lon="1.56261">
        <ele>9.4</ele>
        <time>2013-03-23T12:34:10Z</time>
      </trkpt>
      <trkpt lat="50.2058" lon="1.56256">
        <ele>9.4</ele>
        <time>2013-03-23T12:34:16Z</time>
      </trkpt>
      <trkpt lat="50.2059" lon="1.56244">
        <ele>9.4</ele>
        <time>2013-03-23T12:34:27Z</time>
      </trkpt>
      <trkpt lat="50.20597" lon="1.56235">
        <ele>9.4</ele>
        <time>2013-03-23T12:34:35Z</time>
      </trkpt>
      <trkpt lat="50.20606" lon="1.56226">
        <ele>9.4</ele>
        <time>2013-03-23T12:34:44Z</time>
      </trkpt>
      <trkpt lat="50.20614" lon="1.56214">
        <ele>9.4</ele>
        <time>2013-03-23T12:34:54Z</time>
      </trkpt>
      <trkpt lat="50.2062" lon="1.56206">
        <ele>9.4</ele>
        <time>2013-03-23T12:35:02Z</time>
      </trkpt>
      <trkpt lat="50.20627" lon="1.56198">
        <ele>9.4</ele>
        <time>2013-03-23T12:35:10Z</time>
      </trkpt>
      <trkpt lat="50.20636" lon="1.56189">
        <ele>9.4</ele>
        <time>2013-03-23T12:35:20Z</time>
      </trkpt>
      <trkpt lat="50.20644" lon="1.5618">
        <ele>9.4</ele>
        <time>2013-03-23T12:35:30Z</time>
      </trkpt>
      <trkpt lat="50.20657" lon="1.56159">
        <ele>9.4</ele>
        <time>2013-03-23T12:35:48Z</time>
      </trkpt>
      <trkpt lat="50.20665" lon="1.5615">
        <ele>9.4</ele>
        <time>2013-03-23T12:35:57Z</time>
      </trkpt>
      <trkpt lat="50.20675" lon="1.56138">
        <ele>10.2</ele>
        <time>2013-03-23T12:36:07Z</time>
      </trkpt>
      <trkpt lat="50.20684" lon="1.56128">
        <ele>11</ele>
        <time>2013-03-23T12:36:17Z</time>
      </trkpt>
      <trkpt lat="50.20692" lon="1.56119">
        <ele>11.2</ele>
        <time>2013-03-23T12:36:25Z</time>
      </trkpt>
      <trkpt lat="50.20701" lon="1.56107">
        <ele>11.4</ele>
        <time>2013-03-23T12:36:35Z</time>
      </trkpt>
      <trkpt lat="50.20706" lon="1.56102">
        <ele>11.4</ele>
        <time>2013-03-23T12:36:42Z</time>
      </trkpt>
      <trkpt lat="50.20718" lon="1.56089">
        <ele>11.4</ele>
        <time>2013-03-23T12:36:54Z</time>
      </trkpt>
      <trkpt lat="50.20727" lon="1.56078">
        <ele>11.4</ele>
        <time>2013-03-23T12:37:04Z</time>
      </trkpt>
      <trkpt lat="50.20736" lon="1.56068">
        <ele>11.4</ele>
        <time>2013-03-23T12:37:13Z</time>
      </trkpt>
      <trkpt lat="50.20747" lon="1.56056">
        <ele>11.4</ele>
        <time>2013-03-23T12:37:24Z</time>
      </trkpt>
      <trkpt lat="50.20753" lon="1.56049">
        <ele>11.4</ele>
        <time>2013-03-23T12:37:32Z</time>
      </trkpt>
      <trkpt lat="50.20762" lon="1.56039">
        <ele>11.4</ele>
        <time>2013-03-23T12:37:42Z</time>
      </trkpt>
      <trkpt lat="50.20767" lon="1.56026">
        <ele>11.4</ele>
        <time>2013-03-23T12:37:51Z</time>
      </trkpt>
      <trkpt lat="50.20772" lon="1.56014">
        <ele>11.4</ele>
        <time>2013-03-23T12:37:59Z</time>
      </trkpt>
      <trkpt lat="50.20773" lon="1.56011">
        <ele>11.4</ele>
        <time>2013-03-23T12:38:01Z</time>
      </trkpt>
      <trkpt lat="50.20775" lon="1.56005">
        <ele>11.4</ele>
        <time>2013-03-23T12:38:05Z</time>
      </trkpt>
      <trkpt lat="50.20779" lon="1.55991">
        <ele>11.4</ele>
        <time>2013-03-23T12:38:14Z</time>
      </trkpt>
      <trkpt lat="50.20783" lon="1.5598">
        <ele>11.4</ele>
        <time>2013-03-23T12:38:22Z</time>
      </trkpt>
      <trkpt lat="50.20788" lon="1.55965">
        <ele>11.4</ele>
        <time>2013-03-23T12:38:31Z</time>
      </trkpt>
      <trkpt lat="50.20794" lon="1.55951">
        <ele>11.4</ele>
        <time>2013-03-23T12:38:40Z</time>
      </trkpt>
      <trkpt lat="50.208" lon="1.55935">
        <ele>11.4</ele>
        <time>2013-03-23T12:38:50Z</time>
      </trkpt>
      <trkpt lat="50.20805" lon="1.55918">
        <ele>11.4</ele>
        <time>2013-03-23T12:39:00Z</time>
      </trkpt>
      <trkpt lat="50.20812" lon="1.55899">
        <ele>11.4</ele>
        <time>2013-03-23T12:39:12Z</time>
      </trkpt>
      <trkpt lat="50.20817" lon="1.55885">
        <ele>11.4</ele>
        <time>2013-03-23T12:39:21Z</time>
      </trkpt>
      <trkpt lat="50.20822" lon="1.55871">
        <ele>11.4</ele>
        <time>2013-03-23T12:39:30Z</time>
      </trkpt>
      <trkpt lat="50.20827" lon="1.55857">
        <ele>12.4</ele>
        <time>2013-03-23T12:39:39Z</time>
      </trkpt>
      <trkpt lat="50.20833" lon="1.55839">
        <ele>13.2</ele>
        <time>2013-03-23T12:39:50Z</time>
      </trkpt>
      <trkpt lat="50.20838" lon="1.55825">
        <ele>13.4</ele>
        <time>2013-03-23T12:39:59Z</time>
      </trkpt>
      <trkpt lat="50.20843" lon="1.55811">
        <ele>13.4</ele>
        <time>2013-03-23T12:40:08Z</time>
      </trkpt>
      <trkpt lat="50.20848" lon="1.55798">
        <ele>13.4</ele>
        <time>2013-03-23T12:40:16Z</time>
      </trkpt>
      <trkpt lat="50.20852" lon="1.55785">
        <ele>13.4</ele>
        <time>2013-03-23T12:40:24Z</time>
      </trkpt>
      <trkpt lat="50.20857" lon="1.55772">
        <ele>13.4</ele>
        <time>2013-03-23T12:40:33Z</time>
      </trkpt>
      <trkpt lat="50.20864" lon="1.55755">
        <ele>13.4</ele>
        <time>2013-03-23T12:40:44Z</time>
      </trkpt>
      <trkpt lat="50.20868" lon="1.55744">
        <ele>13.4</ele>
        <time>2013-03-23T12:40:51Z</time>
      </trkpt>
      <trkpt lat="50.20874" lon="1.55729">
        <ele>13.4</ele>
        <time>2013-03-23T12:41:01Z</time>
      </trkpt>
      <trkpt lat="50.20878" lon="1.55716">
        <ele>13.4</ele>
        <time>2013-03-23T12:41:09Z</time>
      </trkpt>
      <trkpt lat="50.20884" lon="1.55701">
        <ele>13.4</ele>
        <time>2013-03-23T12:41:18Z</time>
      </trkpt>
      <trkpt lat="50.20889" lon="1.55688">
        <ele>13.4</ele>
        <time>2013-03-23T12:41:26Z</time>
      </trkpt>
      <trkpt lat="50.20895" lon="1.55674">
        <ele>13.4</ele>
        <time>2013-03-23T12:41:35Z</time>
      </trkpt>
      <trkpt lat="50.209" lon="1.55666">
        <ele>13.4</ele>
        <time>2013-03-23T12:41:41Z</time>
      </trkpt>
      <trkpt lat="50.20913" lon="1.55667">
        <ele>13.4</ele>
        <time>2013-03-23T12:41:51Z</time>
      </trkpt>
      <trkpt lat="50.20926" lon="1.55669">
        <ele>13.4</ele>
        <time>2013-03-23T12:42:01Z</time>
      </trkpt>
      <trkpt lat="50.20936" lon="1.55674">
        <ele>13.4</ele>
        <time>2013-03-23T12:42:09Z</time>
      </trkpt>
      <trkpt lat="50.20946" lon="1.55681">
        <ele>13.4</ele>
        <time>2013-03-23T12:42:18Z</time>
      </trkpt>
      <trkpt lat="50.20956" lon="1.55687">
        <ele>13.4</ele>
        <time>2013-03-23T12:42:26Z</time>
      </trkpt>
      <trkpt lat="50.20967" lon="1.55696">
        <ele>13.4</ele>
        <time>2013-03-23T12:42:36Z</time>
      </trkpt>
      <trkpt lat="50.20978" lon="1.55706">
        <ele>13.4</ele>
        <time>2013-03-23T12:42:46Z</time>
      </trkpt>
      <trkpt lat="50.20987" lon="1.55714">
        <ele>13.4</ele>
        <time>2013-03-23T12:42:54Z</time>
      </trkpt>
      <trkpt lat="50.20994" lon="1.55721">
        <ele>13.4</ele>
        <time>2013-03-23T12:43:01Z</time>
      </trkpt>
      <trkpt lat="50.21003" lon="1.55731">
        <ele>13.4</ele>
        <time>2013-03-23T12:43:11Z</time>
      </trkpt>
      <trkpt lat="50.21012" lon="1.55741">
        <ele>13.4</ele>
        <time>2013-03-23T12:43:20Z</time>
      </trkpt>
      <trkpt lat="50.21022" lon="1.55751">
        <ele>13.4</ele>
        <time>2013-03-23T12:43:29Z</time>
      </trkpt>
      <trkpt lat="50.21035" lon="1.55765">
        <ele>13.4</ele>
        <time>2013-03-23T12:43:41Z</time>
      </trkpt>
      <trkpt lat="50.21046" lon="1.55776">
        <ele>12.4</ele>
        <time>2013-03-23T12:43:51Z</time>
      </trkpt>
      <trkpt lat="50.21054" lon="1.55785">
        <ele>11.8</ele>
        <time>2013-03-23T12:43:59Z</time>
      </trkpt>
      <trkpt lat="50.21065" lon="1.55795">
        <ele>11.6</ele>
        <time>2013-03-23T12:44:09Z</time>
      </trkpt>
      <trkpt lat="50.21074" lon="1.55803">
        <ele>11.4</ele>
        <time>2013-03-23T12:44:18Z</time>
      </trkpt>
      <trkpt lat="50.21081" lon="1.5581">
        <ele>11.4</ele>
        <time>2013-03-23T12:44:26Z</time>
      </trkpt>
      <trkpt lat="50.21091" lon="1.55818">
        <ele>11.4</ele>
        <time>2013-03-23T12:44:36Z</time>
      </trkpt>
      <trkpt lat="50.21111" lon="1.55833">
        <ele>11.4</ele>
        <time>2013-03-23T12:44:54Z</time>
      </trkpt>
      <trkpt lat="50.21123" lon="1.55841">
        <ele>11.4</ele>
        <time>2013-03-23T12:45:05Z</time>
      </trkpt>
      <trkpt lat="50.21133" lon="1.55848">
        <ele>11.4</ele>
        <time>2013-03-23T12:45:14Z</time>
      </trkpt>
      <trkpt lat="50.21146" lon="1.55857">
        <ele>11.4</ele>
        <time>2013-03-23T12:45:26Z</time>
      </trkpt>
      <trkpt lat="50.21159" lon="1.55865">
        <ele>11.4</ele>
        <time>2013-03-23T12:45:37Z</time>
      </trkpt>
      <trkpt lat="50.21171" lon="1.55873">
        <ele>11.4</ele>
        <time>2013-03-23T12:45:47Z</time>
      </trkpt>
      <trkpt lat="50.2118" lon="1.55881">
        <ele>11.4</ele>
        <time>2013-03-23T12:45:56Z</time>
      </trkpt>
      <trkpt lat="50.21181" lon="1.55881">
        <ele>11.4</ele>
        <time>2013-03-23T12:45:57Z</time>
      </trkpt>
      <trkpt lat="50.21188" lon="1.55888">
        <ele>11.4</ele>
        <time>2013-03-23T12:46:04Z</time>
      </trkpt>
      <trkpt lat="50.21198" lon="1.55895">
        <ele>11.4</ele>
        <time>2013-03-23T12:46:13Z</time>
      </trkpt>
      <trkpt lat="50.21209" lon="1.55904">
        <ele>11.4</ele>
        <time>2013-03-23T12:46:22Z</time>
      </trkpt>
      <trkpt lat="50.21218" lon="1.55912">
        <ele>11.4</ele>
        <time>2013-03-23T12:46:31Z</time>
      </trkpt>
      <trkpt lat="50.2123" lon="1.55924">
        <ele>11.4</ele>
        <time>2013-03-23T12:46:42Z</time>
      </trkpt>
      <trkpt lat="50.2124" lon="1.55935">
        <ele>11.4</ele>
        <time>2013-03-23T12:46:52Z</time>
      </trkpt>
      <trkpt lat="50.21249" lon="1.55947">
        <ele>11.4</ele>
        <time>2013-03-23T12:47:02Z</time>
      </trkpt>
      <trkpt lat="50.21256" lon="1.55958">
        <ele>11.4</ele>
        <time>2013-03-23T12:47:10Z</time>
      </trkpt>
      <trkpt lat="50.21264" lon="1.55972">
        <ele>11.4</ele>
        <time>2013-03-23T12:47:20Z</time>
      </trkpt>
      <trkpt lat="50.21274" lon="1.55987">
        <ele>11.4</ele>
        <time>2013-03-23T12:47:31Z</time>
      </trkpt>
      <trkpt lat="50.21283" lon="1.56002">
        <ele>11.4</ele>
        <time>2013-03-23T12:47:42Z</time>
      </trkpt>
      <trkpt lat="50.21292" lon="1.56016">
        <ele>11.4</ele>
        <time>2013-03-23T12:47:52Z</time>
      </trkpt>
      <trkpt lat="50.21301" lon="1.56031">
        <ele>11.4</ele>
        <time>2013-03-23T12:48:03Z</time>
      </trkpt>
      <trkpt lat="50.2131" lon="1.56047">
        <ele>12.2</ele>
        <time>2013-03-23T12:48:14Z</time>
      </trkpt>
      <trkpt lat="50.21319" lon="1.56066">
        <ele>13</ele>
        <time>2013-03-23T12:48:26Z</time>
      </trkpt>
      <trkpt lat="50.21332" lon="1.56104">
        <ele>13.4</ele>
        <time>2013-03-23T12:48:49Z</time>
      </trkpt>
      <trkpt lat="50.21337" lon="1.56125">
        <ele>13.4</ele>
        <time>2013-03-23T12:49:01Z</time>
      </trkpt>
      <trkpt lat="50.21343" lon="1.56145">
        <ele>13.4</ele>
        <time>2013-03-23T12:49:13Z</time>
      </trkpt>
      <trkpt lat="50.21348" lon="1.56158">
        <ele>13.4</ele>
        <time>2013-03-23T12:49:21Z</time>
      </trkpt>
      <trkpt lat="50.21354" lon="1.56173">
        <ele>13.4</ele>
        <time>2013-03-23T12:49:30Z</time>
      </trkpt>
      <trkpt lat="50.21361" lon="1.56189">
        <ele>13.4</ele>
        <time>2013-03-23T12:49:40Z</time>
      </trkpt>
      <trkpt lat="50.21367" lon="1.56208">
        <ele>13.4</ele>
        <time>2013-03-23T12:49:51Z</time>
      </trkpt>
      <trkpt lat="50.21372" lon="1.56222">
        <ele>13.4</ele>
        <time>2013-03-23T12:49:59Z</time>
      </trkpt>
      <trkpt lat="50.21377" lon="1.5624">
        <ele>13.4</ele>
        <time>2013-03-23T12:50:09Z</time>
      </trkpt>
      <trkpt lat="50.21382" lon="1.56258">
        <ele>13.4</ele>
        <time>2013-03-23T12:50:20Z</time>
      </trkpt>
      <trkpt lat="50.21387" lon="1.56276">
        <ele>13.4</ele>
        <time>2013-03-23T12:50:30Z</time>
      </trkpt>
      <trkpt lat="50.2139" lon="1.5629">
        <ele>13.4</ele>
        <time>2013-03-23T12:50:38Z</time>
      </trkpt>
      <trkpt lat="50.21393" lon="1.56315">
        <ele>13.4</ele>
        <time>2013-03-23T12:50:51Z</time>
      </trkpt>
      <trkpt lat="50.21398" lon="1.56336">
        <ele>14.8</ele>
        <time>2013-03-23T12:51:04Z</time>
      </trkpt>
      <trkpt lat="50.21401" lon="1.5635">
        <ele>15.2</ele>
        <time>2013-03-23T12:51:12Z</time>
      </trkpt>
      <trkpt lat="50.21405" lon="1.56363">
        <ele>15.4</ele>
        <time>2013-03-23T12:51:20Z</time>
      </trkpt>
      <trkpt lat="50.21409" lon="1.56376">
        <ele>15.4</ele>
        <time>2013-03-23T12:51:28Z</time>
      </trkpt>
      <trkpt lat="50.21412" lon="1.56388">
        <ele>15.4</ele>
        <time>2013-03-23T12:51:35Z</time>
      </trkpt>
      <trkpt lat="50.21415" lon="1.56403">
        <ele>15.4</ele>
        <time>2013-03-23T12:51:43Z</time>
      </trkpt>
      <trkpt lat="50.21412" lon="1.56417">
        <ele>15.4</ele>
        <time>2013-03-23T12:51:53Z</time>
      </trkpt>
      <trkpt lat="50.21413" lon="1.56424">
        <ele>15.4</ele>
        <time>2013-03-23T12:51:59Z</time>
      </trkpt>
      <trkpt lat="50.21414" lon="1.56428">
        <ele>15.4</ele>
        <time>2013-03-23T12:52:01Z</time>
      </trkpt>
      <trkpt lat="50.21417" lon="1.56442">
        <ele>15.4</ele>
        <time>2013-03-23T12:52:10Z</time>
      </trkpt>
      <trkpt lat="50.21423" lon="1.56457">
        <ele>15.4</ele>
        <time>2013-03-23T12:52:20Z</time>
      </trkpt>
      <trkpt lat="50.21427" lon="1.56471">
        <ele>15.4</ele>
        <time>2013-03-23T12:52:28Z</time>
      </trkpt>
      <trkpt lat="50.21436" lon="1.56475">
        <ele>15.4</ele>
        <time>2013-03-23T12:52:35Z</time>
      </trkpt>
      <trkpt lat="50.2144" lon="1.56477">
        <ele>15.4</ele>
        <time>2013-03-23T12:52:38Z</time>
      </trkpt>
      <trkpt lat="50.21444" lon="1.56487">
        <ele>15.4</ele>
        <time>2013-03-23T12:52:44Z</time>
      </trkpt>
      <trkpt lat="50.21449" lon="1.56502">
        <ele>15.4</ele>
        <time>2013-03-23T12:52:52Z</time>
      </trkpt>
      <trkpt lat="50.2145" lon="1.56503">
        <ele>15.4</ele>
        <time>2013-03-23T12:52:53Z</time>
      </trkpt>
      <trkpt lat="50.21456" lon="1.56501">
        <ele>15.4</ele>
        <time>2013-03-23T12:52:59Z</time>
      </trkpt>
      <trkpt lat="50.21461" lon="1.56499">
        <ele>15.4</ele>
        <time>2013-03-23T12:53:03Z</time>
      </trkpt>
      <trkpt lat="50.21462" lon="1.56502">
        <ele>15.4</ele>
        <time>2013-03-23T12:53:07Z</time>
      </trkpt>
      <trkpt lat="50.21465" lon="1.56511">
        <ele>15.4</ele>
        <time>2013-03-23T12:53:13Z</time>
      </trkpt>
      <trkpt lat="50.21469" lon="1.56523">
        <ele>15.4</ele>
        <time>2013-03-23T12:53:21Z</time>
      </trkpt>
      <trkpt lat="50.21469" lon="1.56524">
        <ele>15.4</ele>
        <time>2013-03-23T12:53:22Z</time>
      </trkpt>
      <trkpt lat="50.21472" lon="1.56531">
        <ele>15.4</ele>
        <time>2013-03-23T12:53:27Z</time>
      </trkpt>
      <trkpt lat="50.21465" lon="1.56538">
        <ele>15.4</ele>
        <time>2013-03-23T12:53:35Z</time>
      </trkpt>
      <trkpt lat="50.21462" lon="1.56542">
        <ele>15.4</ele>
        <time>2013-03-23T12:53:39Z</time>
      </trkpt>
      <trkpt lat="50.21466" lon="1.56555">
        <ele>15.4</ele>
        <time>2013-03-23T12:53:47Z</time>
      </trkpt>
      <trkpt lat="50.2147" lon="1.56566">
        <ele>15.4</ele>
        <time>2013-03-23T12:53:56Z</time>
      </trkpt>
      <trkpt lat="50.21473" lon="1.56575">
        <ele>15.4</ele>
        <time>2013-03-23T12:54:03Z</time>
      </trkpt>
      <trkpt lat="50.21475" lon="1.56585">
        <ele>15.4</ele>
        <time>2013-03-23T12:54:11Z</time>
      </trkpt>
      <trkpt lat="50.21477" lon="1.5659">
        <ele>15.4</ele>
        <time>2013-03-23T12:54:19Z</time>
      </trkpt>
      <trkpt lat="50.21476" lon="1.56589">
        <ele>15.4</ele>
        <time>2013-03-23T12:54:42Z</time>
      </trkpt>
      <trkpt lat="50.21478" lon="1.56589">
        <ele>15.4</ele>
        <time>2013-03-23T12:55:12Z</time>
      </trkpt>
      <trkpt lat="50.21479" lon="1.56589">
        <ele>15.4</ele>
        <time>2013-03-23T12:55:44Z</time>
      </trkpt>
      <trkpt lat="50.21481" lon="1.56588">
        <ele>15.4</ele>
        <time>2013-03-23T12:55:50Z</time>
      </trkpt>
      <trkpt lat="50.21483" lon="1.56587">
        <ele>15.4</ele>
        <time>2013-03-23T12:55:56Z</time>
      </trkpt>
      <trkpt lat="50.21486" lon="1.56585">
        <ele>15.4</ele>
        <time>2013-03-23T12:56:24Z</time>
      </trkpt>
      <trkpt lat="50.21489" lon="1.56584">
        <ele>15.4</ele>
        <time>2013-03-23T12:56:30Z</time>
      </trkpt>
      <trkpt lat="50.21492" lon="1.56583">
        <ele>15.4</ele>
        <time>2013-03-23T12:56:36Z</time>
      </trkpt>
      <trkpt lat="50.21495" lon="1.56582">
        <ele>15.4</ele>
        <time>2013-03-23T12:56:42Z</time>
      </trkpt>
      <trkpt lat="50.21496" lon="1.56579">
        <ele>15.4</ele>
        <time>2013-03-23T12:56:49Z</time>
      </trkpt>
      <trkpt lat="50.21496" lon="1.56586">
        <ele>17.4</ele>
        <time>2013-03-23T12:57:39Z</time>
      </trkpt>
      <trkpt lat="50.21495" lon="1.56595">
        <ele>17.4</ele>
        <time>2013-03-23T12:57:47Z</time>
      </trkpt>
      <trkpt lat="50.21492" lon="1.56594">
        <ele>17.4</ele>
        <time>2013-03-23T12:57:52Z</time>
      </trkpt>
      <trkpt lat="50.21488" lon="1.56594">
        <ele>17.4</ele>
        <time>2013-03-23T12:57:59Z</time>
      </trkpt>
      <trkpt lat="50.21487" lon="1.56593">
        <ele>16.8</ele>
        <time>2013-03-23T12:58:22Z</time>
      </trkpt>
      <trkpt lat="50.21486" lon="1.5659">
        <ele>15.4</ele>
        <time>2013-03-23T12:59:13Z</time>
      </trkpt>
      <trkpt lat="50.21484" lon="1.56587">
        <ele>15.4</ele>
        <time>2013-03-23T12:59:41Z</time>
      </trkpt>
      <trkpt lat="50.21491" lon="1.56584">
        <ele>17.4</ele>
        <time>2013-03-23T13:01:27Z</time>
      </trkpt>
      <trkpt lat="50.21492" lon="1.56583">
        <ele>17.4</ele>
        <time>2013-03-23T13:01:33Z</time>
      </trkpt>
      <trkpt lat="50.2149" lon="1.56585">
        <ele>17.4</ele>
        <time>2013-03-23T13:01:55Z</time>
      </trkpt>
      <trkpt lat="50.21486" lon="1.56587">
        <ele>17.4</ele>
        <time>2013-03-23T13:02:01Z</time>
      </trkpt>
      <trkpt lat="50.21483" lon="1.5659">
        <ele>17.4</ele>
        <time>2013-03-23T13:02:08Z</time>
      </trkpt>
      <trkpt lat="50.21481" lon="1.56591">
        <ele>17.4</ele>
        <time>2013-03-23T13:02:15Z</time>
      </trkpt>
      <trkpt lat="50.21478" lon="1.56592">
        <ele>15.4</ele>
        <time>2013-03-23T13:04:20Z</time>
      </trkpt>
      <trkpt lat="50.21479" lon="1.56598">
        <ele>15.4</ele>
        <time>2013-03-23T13:04:28Z</time>
      </trkpt>
      <trkpt lat="50.21479" lon="1.56605">
        <ele>15.4</ele>
        <time>2013-03-23T13:04:34Z</time>
      </trkpt>
      <trkpt lat="50.21482" lon="1.56612">
        <ele>15.4</ele>
        <time>2013-03-23T13:04:41Z</time>
      </trkpt>
      <trkpt lat="50.21487" lon="1.56619">
        <ele>15.4</ele>
        <time>2013-03-23T13:04:49Z</time>
      </trkpt>
      <trkpt lat="50.21488" lon="1.56622">
        <ele>15.4</ele>
        <time>2013-03-23T13:04:52Z</time>
      </trkpt>
      <trkpt lat="50.21493" lon="1.56629">
        <ele>15.4</ele>
        <time>2013-03-23T13:05:00Z</time>
      </trkpt>
      <trkpt lat="50.21498" lon="1.56635">
        <ele>15.4</ele>
        <time>2013-03-23T13:05:08Z</time>
      </trkpt>
      <trkpt lat="50.215" lon="1.5664">
        <ele>15.4</ele>
        <time>2013-03-23T13:05:14Z</time>
      </trkpt>
      <trkpt lat="50.21505" lon="1.56642">
        <ele>15.4</ele>
        <time>2013-03-23T13:05:21Z</time>
      </trkpt>
      <trkpt lat="50.21508" lon="1.56643">
        <ele>15.4</ele>
        <time>2013-03-23T13:05:28Z</time>
      </trkpt>
      <trkpt lat="50.2151" lon="1.56642">
        <ele>15.4</ele>
        <time>2013-03-23T13:05:33Z</time>
      </trkpt>
      <trkpt lat="50.21512" lon="1.56642">
        <ele>15.4</ele>
        <time>2013-03-23T13:05:40Z</time>
      </trkpt>
      <trkpt lat="50.21512" lon="1.56641">
        <ele>15.4</ele>
        <time>2013-03-23T13:06:42Z</time>
      </trkpt>
      <trkpt lat="50.21511" lon="1.56643">
        <ele>15.4</ele>
        <time>2013-03-23T13:07:42Z</time>
      </trkpt>
      <trkpt lat="50.21509" lon="1.56645">
        <ele>15.4</ele>
        <time>2013-03-23T13:07:46Z</time>
      </trkpt>
      <trkpt lat="50.21506" lon="1.56645">
        <ele>11.4</ele>
        <time>2013-03-23T13:11:26Z</time>
      </trkpt>
      <trkpt lat="50.21505" lon="1.56648">
        <ele>11.4</ele>
        <time>2013-03-23T13:11:32Z</time>
      </trkpt>
      <trkpt lat="50.21504" lon="1.56638">
        <ele>15.4</ele>
        <time>2013-03-23T13:20:27Z</time>
      </trkpt>
      <trkpt lat="50.2151" lon="1.56629">
        <ele>15.4</ele>
        <time>2013-03-23T13:20:37Z</time>
      </trkpt>
      <trkpt lat="50.21516" lon="1.56622">
        <ele>15.4</ele>
        <time>2013-03-23T13:20:44Z</time>
      </trkpt>
      <trkpt lat="50.21524" lon="1.56615">
        <ele>15.4</ele>
        <time>2013-03-23T13:20:53Z</time>
      </trkpt>
      <trkpt lat="50.21532" lon="1.5661">
        <ele>15.4</ele>
        <time>2013-03-23T13:21:02Z</time>
      </trkpt>
      <trkpt lat="50.21534" lon="1.56609">
        <ele>15.4</ele>
        <time>2013-03-23T13:21:04Z</time>
      </trkpt>
      <trkpt lat="50.21539" lon="1.56604">
        <ele>15.4</ele>
        <time>2013-03-23T13:21:10Z</time>
      </trkpt>
      <trkpt lat="50.21549" lon="1.56597">
        <ele>15.4</ele>
        <time>2013-03-23T13:21:20Z</time>
      </trkpt>
      <trkpt lat="50.21559" lon="1.56589">
        <ele>15.4</ele>
        <time>2013-03-23T13:21:30Z</time>
      </trkpt>
      <trkpt lat="50.21565" lon="1.56583">
        <ele>15.4</ele>
        <time>2013-03-23T13:21:37Z</time>
      </trkpt>
      <trkpt lat="50.21572" lon="1.56578">
        <ele>15.4</ele>
        <time>2013-03-23T13:21:44Z</time>
      </trkpt>
      <trkpt lat="50.21584" lon="1.56573">
        <ele>15.4</ele>
        <time>2013-03-23T13:21:55Z</time>
      </trkpt>
      <trkpt lat="50.21587" lon="1.56572">
        <ele>15.4</ele>
        <time>2013-03-23T13:21:57Z</time>
      </trkpt>
      <trkpt lat="50.21594" lon="1.56567">
        <ele>15.4</ele>
        <time>2013-03-23T13:22:04Z</time>
      </trkpt>
      <trkpt lat="50.21603" lon="1.56561">
        <ele>15.4</ele>
        <time>2013-03-23T13:22:13Z</time>
      </trkpt>
      <trkpt lat="50.21611" lon="1.56556">
        <ele>15.4</ele>
        <time>2013-03-23T13:22:21Z</time>
      </trkpt>
      <trkpt lat="50.21619" lon="1.56551">
        <ele>15.4</ele>
        <time>2013-03-23T13:22:29Z</time>
      </trkpt>
      <trkpt lat="50.21627" lon="1.56545">
        <ele>15.4</ele>
        <time>2013-03-23T13:22:37Z</time>
      </trkpt>
      <trkpt lat="50.21637" lon="1.56538">
        <ele>14.6</ele>
        <time>2013-03-23T13:22:47Z</time>
      </trkpt>
      <trkpt lat="50.21649" lon="1.5653">
        <ele>13.8</ele>
        <time>2013-03-23T13:22:59Z</time>
      </trkpt>
      <trkpt lat="50.21657" lon="1.56527">
        <ele>13.6</ele>
        <time>2013-03-23T13:23:07Z</time>
      </trkpt>
      <trkpt lat="50.21665" lon="1.56528">
        <ele>13.4</ele>
        <time>2013-03-23T13:23:15Z</time>
      </trkpt>
      <trkpt lat="50.21672" lon="1.56525">
        <ele>13.4</ele>
        <time>2013-03-23T13:23:24Z</time>
      </trkpt>
      <trkpt lat="50.21673" lon="1.56524">
        <ele>13.4</ele>
        <time>2013-03-23T13:23:33Z</time>
      </trkpt>
      <trkpt lat="50.21681" lon="1.56526">
        <ele>13.4</ele>
        <time>2013-03-23T13:23:52Z</time>
      </trkpt>
      <trkpt lat="50.21687" lon="1.56526">
        <ele>13.4</ele>
        <time>2013-03-23T13:24:00Z</time>
      </trkpt>
      <trkpt lat="50.21691" lon="1.56528">
        <ele>13.4</ele>
        <time>2013-03-23T13:24:06Z</time>
      </trkpt>
      <trkpt lat="50.21693" lon="1.56524">
        <ele>13.4</ele>
        <time>2013-03-23T13:24:12Z</time>
      </trkpt>
      <trkpt lat="50.21693" lon="1.56522">
        <ele>13.4</ele>
        <time>2013-03-23T13:24:43Z</time>
      </trkpt>
      <trkpt lat="50.21693" lon="1.56526">
        <ele>15</ele>
        <time>2013-03-23T13:26:39Z</time>
      </trkpt>
      <trkpt lat="50.21693" lon="1.56528">
        <ele>15.4</ele>
        <time>2013-03-23T13:27:10Z</time>
      </trkpt>
      <trkpt lat="50.21693" lon="1.5653">
        <ele>15.4</ele>
        <time>2013-03-23T13:27:41Z</time>
      </trkpt>
      <trkpt lat="50.21695" lon="1.56529">
        <ele>15.4</ele>
        <time>2013-03-23T13:28:54Z</time>
      </trkpt>
      <trkpt lat="50.21694" lon="1.56531">
        <ele>15.4</ele>
        <time>2013-03-23T13:29:14Z</time>
      </trkpt>
      <trkpt lat="50.21692" lon="1.5653">
        <ele>15.4</ele>
        <time>2013-03-23T13:29:20Z</time>
      </trkpt>
      <trkpt lat="50.21693" lon="1.5653">
        <ele>15.4</ele>
        <time>2013-03-23T13:29:25Z</time>
      </trkpt>
      <trkpt lat="50.21693" lon="1.56536">
        <ele>15.4</ele>
        <time>2013-03-23T13:29:44Z</time>
      </trkpt>
      <trkpt lat="50.21695" lon="1.56544">
        <ele>15.4</ele>
        <time>2013-03-23T13:29:53Z</time>
      </trkpt>
      <trkpt lat="50.21696" lon="1.56549">
        <ele>15.4</ele>
        <time>2013-03-23T13:30:00Z</time>
      </trkpt>
      <trkpt lat="50.21697" lon="1.56554">
        <ele>15.4</ele>
        <time>2013-03-23T13:30:33Z</time>
      </trkpt>
      <trkpt lat="50.21699" lon="1.56563">
        <ele>15.4</ele>
        <time>2013-03-23T13:30:43Z</time>
      </trkpt>
      <trkpt lat="50.21701" lon="1.56568">
        <ele>15.4</ele>
        <time>2013-03-23T13:30:49Z</time>
      </trkpt>
      <trkpt lat="50.21705" lon="1.56573">
        <ele>14.2</ele>
        <time>2013-03-23T13:30:57Z</time>
      </trkpt>
      <trkpt lat="50.21706" lon="1.56577">
        <ele>14</ele>
        <time>2013-03-23T13:31:02Z</time>
      </trkpt>
      <trkpt lat="50.21707" lon="1.56585">
        <ele>13.6</ele>
        <time>2013-03-23T13:31:09Z</time>
      </trkpt>
      <trkpt lat="50.21708" lon="1.56594">
        <ele>13.6</ele>
        <time>2013-03-23T13:31:17Z</time>
      </trkpt>
      <trkpt lat="50.21707" lon="1.56601">
        <ele>13.4</ele>
        <time>2013-03-23T13:31:24Z</time>
      </trkpt>
      <trkpt lat="50.21704" lon="1.56602">
        <ele>13.4</ele>
        <time>2013-03-23T13:31:31Z</time>
      </trkpt>
      <trkpt lat="50.21703" lon="1.56591">
        <ele>13.4</ele>
        <time>2013-03-23T13:31:53Z</time>
      </trkpt>
      <trkpt lat="50.21703" lon="1.56588">
        <ele>13.4</ele>
        <time>2013-03-23T13:31:58Z</time>
      </trkpt>
      <trkpt lat="50.21702" lon="1.5658">
        <ele>13.4</ele>
        <time>2013-03-23T13:32:05Z</time>
      </trkpt>
      <trkpt lat="50.217" lon="1.5657">
        <ele>13.4</ele>
        <time>2013-03-23T13:32:14Z</time>
      </trkpt>
      <trkpt lat="50.21699" lon="1.56562">
        <ele>13.4</ele>
        <time>2013-03-23T13:32:22Z</time>
      </trkpt>
      <trkpt lat="50.21698" lon="1.56553">
        <ele>13.4</ele>
        <time>2013-03-23T13:32:31Z</time>
      </trkpt>
      <trkpt lat="50.21697" lon="1.56545">
        <ele>13.4</ele>
        <time>2013-03-23T13:32:38Z</time>
      </trkpt>
      <trkpt lat="50.21694" lon="1.56538">
        <ele>13.4</ele>
        <time>2013-03-23T13:32:47Z</time>
      </trkpt>
      <trkpt lat="50.2169" lon="1.56534">
        <ele>13.4</ele>
        <time>2013-03-23T13:32:55Z</time>
      </trkpt>
      <trkpt lat="50.2169" lon="1.56531">
        <ele>13.4</ele>
        <time>2013-03-23T13:33:07Z</time>
      </trkpt>
      <trkpt lat="50.2169" lon="1.56528">
        <ele>13.4</ele>
        <time>2013-03-23T13:34:01Z</time>
      </trkpt>
      <trkpt lat="50.21687" lon="1.56523">
        <ele>13.4</ele>
        <time>2013-03-23T13:34:58Z</time>
      </trkpt>
      <trkpt lat="50.21685" lon="1.56519">
        <ele>13.4</ele>
        <time>2013-03-23T13:35:04Z</time>
      </trkpt>
      <trkpt lat="50.21686" lon="1.56516">
        <ele>13.4</ele>
        <time>2013-03-23T13:35:24Z</time>
      </trkpt>
      <trkpt lat="50.21682" lon="1.56516">
        <ele>13.4</ele>
        <time>2013-03-23T13:36:55Z</time>
      </trkpt>
      <trkpt lat="50.2168" lon="1.56515">
        <ele>13.4</ele>
        <time>2013-03-23T13:37:01Z</time>
      </trkpt>
      <trkpt lat="50.21677" lon="1.56514">
        <ele>13.4</ele>
        <time>2013-03-23T13:37:07Z</time>
      </trkpt>
      <trkpt lat="50.21674" lon="1.56516">
        <ele>13.4</ele>
        <time>2013-03-23T13:37:14Z</time>
      </trkpt>
      <trkpt lat="50.21674" lon="1.56514">
        <ele>13.4</ele>
        <time>2013-03-23T13:37:24Z</time>
      </trkpt>
      <trkpt lat="50.21669" lon="1.56518">
        <ele>13.4</ele>
        <time>2013-03-23T13:37:39Z</time>
      </trkpt>
      <trkpt lat="50.21668" lon="1.56518">
        <ele>12.6</ele>
        <time>2013-03-23T13:37:44Z</time>
      </trkpt>
      <trkpt lat="50.21672" lon="1.56511">
        <ele>11.4</ele>
        <time>2013-03-23T13:39:52Z</time>
      </trkpt>
      <trkpt lat="50.21671" lon="1.56511">
        <ele>11.4</ele>
        <time>2013-03-23T13:40:00Z</time>
      </trkpt>
      <trkpt lat="50.21673" lon="1.5651">
        <ele>11.4</ele>
        <time>2013-03-23T13:41:06Z</time>
      </trkpt>
      <trkpt lat="50.21672" lon="1.56513">
        <ele>11.4</ele>
        <time>2013-03-23T13:42:24Z</time>
      </trkpt>
      <trkpt lat="50.2167" lon="1.56515">
        <ele>11.4</ele>
        <time>2013-03-23T13:42:29Z</time>
      </trkpt>
      <trkpt lat="50.21667" lon="1.5652">
        <ele>11.4</ele>
        <time>2013-03-23T13:42:35Z</time>
      </trkpt>
      <trkpt lat="50.21662" lon="1.56525">
        <ele>11.4</ele>
        <time>2013-03-23T13:42:43Z</time>
      </trkpt>
      <trkpt lat="50.21655" lon="1.56528">
        <ele>11.4</ele>
        <time>2013-03-23T13:42:51Z</time>
      </trkpt>
      <trkpt lat="50.21647" lon="1.56532">
        <ele>11.4</ele>
        <time>2013-03-23T13:42:59Z</time>
      </trkpt>
      <trkpt lat="50.21638" lon="1.56537">
        <ele>11.2</ele>
        <time>2013-03-23T13:43:09Z</time>
      </trkpt>
      <trkpt lat="50.21629" lon="1.56543">
        <ele>10</ele>
        <time>2013-03-23T13:43:18Z</time>
      </trkpt>
      <trkpt lat="50.21619" lon="1.5655">
        <ele>9.6</ele>
        <time>2013-03-23T13:43:29Z</time>
      </trkpt>
      <trkpt lat="50.21608" lon="1.56558">
        <ele>9.4</ele>
        <time>2013-03-23T13:43:39Z</time>
      </trkpt>
      <trkpt lat="50.21596" lon="1.56564">
        <ele>8.4</ele>
        <time>2013-03-23T13:43:50Z</time>
      </trkpt>
      <trkpt lat="50.21587" lon="1.5657">
        <ele>7.8</ele>
        <time>2013-03-23T13:43:59Z</time>
      </trkpt>
      <trkpt lat="50.2158" lon="1.56575">
        <ele>7.6</ele>
        <time>2013-03-23T13:44:07Z</time>
      </trkpt>
      <trkpt lat="50.21568" lon="1.56579">
        <ele>7.4</ele>
        <time>2013-03-23T13:44:17Z</time>
      </trkpt>
      <trkpt lat="50.21562" lon="1.56581">
        <ele>7.4</ele>
        <time>2013-03-23T13:44:24Z</time>
      </trkpt>
      <trkpt lat="50.2156" lon="1.56577">
        <ele>7.4</ele>
        <time>2013-03-23T13:44:27Z</time>
      </trkpt>
      <trkpt lat="50.21555" lon="1.56565">
        <ele>7.4</ele>
        <time>2013-03-23T13:44:37Z</time>
      </trkpt>
      <trkpt lat="50.21552" lon="1.56557">
        <ele>7.4</ele>
        <time>2013-03-23T13:44:43Z</time>
      </trkpt>
      <trkpt lat="50.21545" lon="1.5655">
        <ele>7.4</ele>
        <time>2013-03-23T13:44:51Z</time>
      </trkpt>
      <trkpt lat="50.21544" lon="1.56549">
        <ele>7.4</ele>
        <time>2013-03-23T13:44:52Z</time>
      </trkpt>
      <trkpt lat="50.2154" lon="1.56537">
        <ele>7.4</ele>
        <time>2013-03-23T13:45:00Z</time>
      </trkpt>
      <trkpt lat="50.21535" lon="1.56523">
        <ele>7.4</ele>
        <time>2013-03-23T13:45:09Z</time>
      </trkpt>
      <trkpt lat="50.21534" lon="1.5652">
        <ele>7.4</ele>
        <time>2013-03-23T13:45:15Z</time>
      </trkpt>
      <trkpt lat="50.21529" lon="1.56505">
        <ele>7.4</ele>
        <time>2013-03-23T13:45:23Z</time>
      </trkpt>
      <trkpt lat="50.21526" lon="1.56496">
        <ele>7.4</ele>
        <time>2013-03-23T13:45:30Z</time>
      </trkpt>
      <trkpt lat="50.21523" lon="1.56487">
        <ele>7.4</ele>
        <time>2013-03-23T13:45:37Z</time>
      </trkpt>
      <trkpt lat="50.21522" lon="1.56482">
        <ele>7.4</ele>
        <time>2013-03-23T13:45:41Z</time>
      </trkpt>
      <trkpt lat="50.2152" lon="1.56471">
        <ele>7.4</ele>
        <time>2013-03-23T13:45:48Z</time>
      </trkpt>
      <trkpt lat="50.2152" lon="1.5647">
        <ele>7.4</ele>
        <time>2013-03-23T13:45:49Z</time>
      </trkpt>
      <trkpt lat="50.21517" lon="1.56465">
        <ele>7.4</ele>
        <time>2013-03-23T13:45:54Z</time>
      </trkpt>
      <trkpt lat="50.21517" lon="1.56463">
        <ele>7.4</ele>
        <time>2013-03-23T13:45:55Z</time>
      </trkpt>
      <trkpt lat="50.21513" lon="1.5645">
        <ele>8.4</ele>
        <time>2013-03-23T13:46:04Z</time>
      </trkpt>
      <trkpt lat="50.2151" lon="1.5644">
        <ele>8.8</ele>
        <time>2013-03-23T13:46:11Z</time>
      </trkpt>
      <trkpt lat="50.21508" lon="1.56436">
        <ele>9</ele>
        <time>2013-03-23T13:46:15Z</time>
      </trkpt>
      <trkpt lat="50.21504" lon="1.56424">
        <ele>9.2</ele>
        <time>2013-03-23T13:46:23Z</time>
      </trkpt>
      <trkpt lat="50.215" lon="1.56412">
        <ele>9.2</ele>
        <time>2013-03-23T13:46:31Z</time>
      </trkpt>
      <trkpt lat="50.21494" lon="1.56394">
        <ele>9.4</ele>
        <time>2013-03-23T13:46:43Z</time>
      </trkpt>
      <trkpt lat="50.21491" lon="1.56382">
        <ele>9.4</ele>
        <time>2013-03-23T13:46:51Z</time>
      </trkpt>
      <trkpt lat="50.21486" lon="1.56368">
        <ele>9.4</ele>
        <time>2013-03-23T13:47:00Z</time>
      </trkpt>
      <trkpt lat="50.21482" lon="1.56354">
        <ele>9.4</ele>
        <time>2013-03-23T13:47:09Z</time>
      </trkpt>
      <trkpt lat="50.21477" lon="1.56338">
        <ele>9.4</ele>
        <time>2013-03-23T13:47:19Z</time>
      </trkpt>
      <trkpt lat="50.21472" lon="1.56322">
        <ele>9.4</ele>
        <time>2013-03-23T13:47:28Z</time>
      </trkpt>
      <trkpt lat="50.21472" lon="1.56308">
        <ele>9.4</ele>
        <time>2013-03-23T13:47:36Z</time>
      </trkpt>
      <trkpt lat="50.21472" lon="1.56296">
        <ele>9.4</ele>
        <time>2013-03-23T13:47:43Z</time>
      </trkpt>
      <trkpt lat="50.21474" lon="1.56277">
        <ele>10.4</ele>
        <time>2013-03-23T13:47:54Z</time>
      </trkpt>
      <trkpt lat="50.21475" lon="1.56262">
        <ele>11</ele>
        <time>2013-03-23T13:48:03Z</time>
      </trkpt>
      <trkpt lat="50.21477" lon="1.56245">
        <ele>11.2</ele>
        <time>2013-03-23T13:48:14Z</time>
      </trkpt>
      <trkpt lat="50.21478" lon="1.56227">
        <ele>11.4</ele>
        <time>2013-03-23T13:48:24Z</time>
      </trkpt>
      <trkpt lat="50.2148" lon="1.56205">
        <ele>11.4</ele>
        <time>2013-03-23T13:48:35Z</time>
      </trkpt>
      <trkpt lat="50.21482" lon="1.56188">
        <ele>11.4</ele>
        <time>2013-03-23T13:48:45Z</time>
      </trkpt>
      <trkpt lat="50.21484" lon="1.56169">
        <ele>11.4</ele>
        <time>2013-03-23T13:48:55Z</time>
      </trkpt>
      <trkpt lat="50.21485" lon="1.5615">
        <ele>11.4</ele>
        <time>2013-03-23T13:49:05Z</time>
      </trkpt>
      <trkpt lat="50.21487" lon="1.56132">
        <ele>11.4</ele>
        <time>2013-03-23T13:49:15Z</time>
      </trkpt>
      <trkpt lat="50.21488" lon="1.56114">
        <ele>11.4</ele>
        <time>2013-03-23T13:49:25Z</time>
      </trkpt>
      <trkpt lat="50.2149" lon="1.56096">
        <ele>11.4</ele>
        <time>2013-03-23T13:49:35Z</time>
      </trkpt>
      <trkpt lat="50.2149" lon="1.56079">
        <ele>11.4</ele>
        <time>2013-03-23T13:49:45Z</time>
      </trkpt>
      <trkpt lat="50.21492" lon="1.56058">
        <ele>11.4</ele>
        <time>2013-03-23T13:49:57Z</time>
      </trkpt>
      <trkpt lat="50.21493" lon="1.56045">
        <ele>11.4</ele>
        <time>2013-03-23T13:50:05Z</time>
      </trkpt>
      <trkpt lat="50.21495" lon="1.5603">
        <ele>11.4</ele>
        <time>2013-03-23T13:50:14Z</time>
      </trkpt>
      <trkpt lat="50.21496" lon="1.56012">
        <ele>11.4</ele>
        <time>2013-03-23T13:50:24Z</time>
      </trkpt>
      <trkpt lat="50.21497" lon="1.55995">
        <ele>11.4</ele>
        <time>2013-03-23T13:50:33Z</time>
      </trkpt>
      <trkpt lat="50.21498" lon="1.55978">
        <ele>11.4</ele>
        <time>2013-03-23T13:50:44Z</time>
      </trkpt>
      <trkpt lat="50.21497" lon="1.55962">
        <ele>11.4</ele>
        <time>2013-03-23T13:50:53Z</time>
      </trkpt>
      <trkpt lat="50.21496" lon="1.55946">
        <ele>11.4</ele>
        <time>2013-03-23T13:51:02Z</time>
      </trkpt>
      <trkpt lat="50.21495" lon="1.55927">
        <ele>11.4</ele>
        <time>2013-03-23T13:51:13Z</time>
      </trkpt>
      <trkpt lat="50.21494" lon="1.55913">
        <ele>11.4</ele>
        <time>2013-03-23T13:51:20Z</time>
      </trkpt>
      <trkpt lat="50.21493" lon="1.55899">
        <ele>11.4</ele>
        <time>2013-03-23T13:51:29Z</time>
      </trkpt>
      <trkpt lat="50.21492" lon="1.55851">
        <ele>11.4</ele>
        <time>2013-03-23T13:51:57Z</time>
      </trkpt>
      <trkpt lat="50.21492" lon="1.55833">
        <ele>11.4</ele>
        <time>2013-03-23T13:52:07Z</time>
      </trkpt>
      <trkpt lat="50.21491" lon="1.55817">
        <ele>11.4</ele>
        <time>2013-03-23T13:52:15Z</time>
      </trkpt>
      <trkpt lat="50.2149" lon="1.55799">
        <ele>11.4</ele>
        <time>2013-03-23T13:52:25Z</time>
      </trkpt>
      <trkpt lat="50.2149" lon="1.55792">
        <ele>11.4</ele>
        <time>2013-03-23T13:52:30Z</time>
      </trkpt>
      <trkpt lat="50.2149" lon="1.55787">
        <ele>11.4</ele>
        <time>2013-03-23T13:52:35Z</time>
      </trkpt>
      <trkpt lat="50.21489" lon="1.55775">
        <ele>11.4</ele>
        <time>2013-03-23T13:52:42Z</time>
      </trkpt>
      <trkpt lat="50.21488" lon="1.55755">
        <ele>11.4</ele>
        <time>2013-03-23T13:52:51Z</time>
      </trkpt>
      <trkpt lat="50.21488" lon="1.55736">
        <ele>11.4</ele>
        <time>2013-03-23T13:53:02Z</time>
      </trkpt>
      <trkpt lat="50.21488" lon="1.55719">
        <ele>11.4</ele>
        <time>2013-03-23T13:53:10Z</time>
      </trkpt>
      <trkpt lat="50.21487" lon="1.55703">
        <ele>11.4</ele>
        <time>2013-03-23T13:53:19Z</time>
      </trkpt>
      <trkpt lat="50.21487" lon="1.55687">
        <ele>11.4</ele>
        <time>2013-03-23T13:53:27Z</time>
      </trkpt>
      <trkpt lat="50.21488" lon="1.5567">
        <ele>11.4</ele>
        <time>2013-03-23T13:53:35Z</time>
      </trkpt>
      <trkpt lat="50.21487" lon="1.55644">
        <ele>11.4</ele>
        <time>2013-03-23T13:53:49Z</time>
      </trkpt>
      <trkpt lat="50.21487" lon="1.55629">
        <ele>11.4</ele>
        <time>2013-03-23T13:53:57Z</time>
      </trkpt>
      <trkpt lat="50.21487" lon="1.55607">
        <ele>11.4</ele>
        <time>2013-03-23T13:54:08Z</time>
      </trkpt>
      <trkpt lat="50.21487" lon="1.5559">
        <ele>11.4</ele>
        <time>2013-03-23T13:54:17Z</time>
      </trkpt>
      <trkpt lat="50.21487" lon="1.55571">
        <ele>11.4</ele>
        <time>2013-03-23T13:54:27Z</time>
      </trkpt>
      <trkpt lat="50.21488" lon="1.55553">
        <ele>11.4</ele>
        <time>2013-03-23T13:54:37Z</time>
      </trkpt>
      <trkpt lat="50.21489" lon="1.55534">
        <ele>11.4</ele>
        <time>2013-03-23T13:54:47Z</time>
      </trkpt>
      <trkpt lat="50.2149" lon="1.55514">
        <ele>11.4</ele>
        <time>2013-03-23T13:54:57Z</time>
      </trkpt>
      <trkpt lat="50.21492" lon="1.55495">
        <ele>11.4</ele>
        <time>2013-03-23T13:55:08Z</time>
      </trkpt>
      <trkpt lat="50.21492" lon="1.55475">
        <ele>11.4</ele>
        <time>2013-03-23T13:55:18Z</time>
      </trkpt>
      <trkpt lat="50.21493" lon="1.55457">
        <ele>11.4</ele>
        <time>2013-03-23T13:55:27Z</time>
      </trkpt>
      <trkpt lat="50.21493" lon="1.55439">
        <ele>11.4</ele>
        <time>2013-03-23T13:55:37Z</time>
      </trkpt>
      <trkpt lat="50.21493" lon="1.55416">
        <ele>11.4</ele>
        <time>2013-03-23T13:55:49Z</time>
      </trkpt>
      <trkpt lat="50.21494" lon="1.55397">
        <ele>11.4</ele>
        <time>2013-03-23T13:55:59Z</time>
      </trkpt>
      <trkpt lat="50.21495" lon="1.5538">
        <ele>11.4</ele>
        <time>2013-03-23T13:56:09Z</time>
      </trkpt>
      <trkpt lat="50.21496" lon="1.55369">
        <ele>11.4</ele>
        <time>2013-03-23T13:56:15Z</time>
      </trkpt>
      <trkpt lat="50.21495" lon="1.55355">
        <ele>11.4</ele>
        <time>2013-03-23T13:56:23Z</time>
      </trkpt>
      <trkpt lat="50.21495" lon="1.55344">
        <ele>11.4</ele>
        <time>2013-03-23T13:56:29Z</time>
      </trkpt>
      <trkpt lat="50.21495" lon="1.55334">
        <ele>11.4</ele>
        <time>2013-03-23T13:56:35Z</time>
      </trkpt>
      <trkpt lat="50.21494" lon="1.55305">
        <ele>11.4</ele>
        <time>2013-03-23T13:56:52Z</time>
      </trkpt>
      <trkpt lat="50.21495" lon="1.55282">
        <ele>11.4</ele>
        <time>2013-03-23T13:57:03Z</time>
      </trkpt>
      <trkpt lat="50.21495" lon="1.55261">
        <ele>11.4</ele>
        <time>2013-03-23T13:57:15Z</time>
      </trkpt>
      <trkpt lat="50.21496" lon="1.55241">
        <ele>11.4</ele>
        <time>2013-03-23T13:57:26Z</time>
      </trkpt>
      <trkpt lat="50.21499" lon="1.55234">
        <ele>11.4</ele>
        <time>2013-03-23T13:57:33Z</time>
      </trkpt>
      <trkpt lat="50.21496" lon="1.55227">
        <ele>11.4</ele>
        <time>2013-03-23T13:57:51Z</time>
      </trkpt>
      <trkpt lat="50.21496" lon="1.55211">
        <ele>11.4</ele>
        <time>2013-03-23T13:58:00Z</time>
      </trkpt>
      <trkpt lat="50.21496" lon="1.55201">
        <ele>11.4</ele>
        <time>2013-03-23T13:58:07Z</time>
      </trkpt>
      <trkpt lat="50.21494" lon="1.55181">
        <ele>11.4</ele>
        <time>2013-03-23T13:58:18Z</time>
      </trkpt>
      <trkpt lat="50.21494" lon="1.55163">
        <ele>11.4</ele>
        <time>2013-03-23T13:58:28Z</time>
      </trkpt>
      <trkpt lat="50.21492" lon="1.55144">
        <ele>11.4</ele>
        <time>2013-03-23T13:58:38Z</time>
      </trkpt>
      <trkpt lat="50.2149" lon="1.55124">
        <ele>11.4</ele>
        <time>2013-03-23T13:58:49Z</time>
      </trkpt>
      <trkpt lat="50.21486" lon="1.55106">
        <ele>11.4</ele>
        <time>2013-03-23T13:58:59Z</time>
      </trkpt>
      <trkpt lat="50.21485" lon="1.55092">
        <ele>11.4</ele>
        <time>2013-03-23T13:59:07Z</time>
      </trkpt>
      <trkpt lat="50.21484" lon="1.55083">
        <ele>11.4</ele>
        <time>2013-03-23T13:59:15Z</time>
      </trkpt>
      <trkpt lat="50.21481" lon="1.55076">
        <ele>11.4</ele>
        <time>2013-03-23T13:59:24Z</time>
      </trkpt>
      <trkpt lat="50.21479" lon="1.55061">
        <ele>11.4</ele>
        <time>2013-03-23T13:59:33Z</time>
      </trkpt>
      <trkpt lat="50.21477" lon="1.5505">
        <ele>11.4</ele>
        <time>2013-03-23T13:59:48Z</time>
      </trkpt>
      <trkpt lat="50.21476" lon="1.55044">
        <ele>11.4</ele>
        <time>2013-03-23T13:59:55Z</time>
      </trkpt>
      <trkpt lat="50.2148" lon="1.55041">
        <ele>11.4</ele>
        <time>2013-03-23T14:00:03Z</time>
      </trkpt>
      <trkpt lat="50.21481" lon="1.55041">
        <ele>11.4</ele>
        <time>2013-03-23T14:00:09Z</time>
      </trkpt>
      <trkpt lat="50.2148" lon="1.55041">
        <ele>11.4</ele>
        <time>2013-03-23T14:00:10Z</time>
      </trkpt>
      <trkpt lat="50.21474" lon="1.55036">
        <ele>11.4</ele>
        <time>2013-03-23T14:00:17Z</time>
      </trkpt>
      <trkpt lat="50.21474" lon="1.55034">
        <ele>11.4</ele>
        <time>2013-03-23T14:00:18Z</time>
      </trkpt>
      <trkpt lat="50.21472" lon="1.55027">
        <ele>11.4</ele>
        <time>2013-03-23T14:00:25Z</time>
      </trkpt>
      <trkpt lat="50.2147" lon="1.55018">
        <ele>11.4</ele>
        <time>2013-03-23T14:00:30Z</time>
      </trkpt>
      <trkpt lat="50.21468" lon="1.55009">
        <ele>11.4</ele>
        <time>2013-03-23T14:00:36Z</time>
      </trkpt>
      <trkpt lat="50.2146" lon="1.54973">
        <ele>11.4</ele>
        <time>2013-03-23T14:00:59Z</time>
      </trkpt>
      <trkpt lat="50.21456" lon="1.54956">
        <ele>11.4</ele>
        <time>2013-03-23T14:01:09Z</time>
      </trkpt>
      <trkpt lat="50.21455" lon="1.54949">
        <ele>11.4</ele>
        <time>2013-03-23T14:01:15Z</time>
      </trkpt>
      <trkpt lat="50.21454" lon="1.54947">
        <ele>11.4</ele>
        <time>2013-03-23T14:01:18Z</time>
      </trkpt>
      <trkpt lat="50.2145" lon="1.5493">
        <ele>11.4</ele>
        <time>2013-03-23T14:01:27Z</time>
      </trkpt>
      <trkpt lat="50.21447" lon="1.54914">
        <ele>11.4</ele>
        <time>2013-03-23T14:01:35Z</time>
      </trkpt>
      <trkpt lat="50.21443" lon="1.54897">
        <ele>11.4</ele>
        <time>2013-03-23T14:01:44Z</time>
      </trkpt>
      <trkpt lat="50.21438" lon="1.54872">
        <ele>11.4</ele>
        <time>2013-03-23T14:01:57Z</time>
      </trkpt>
      <trkpt lat="50.21435" lon="1.54859">
        <ele>11.4</ele>
        <time>2013-03-23T14:02:06Z</time>
      </trkpt>
      <trkpt lat="50.21431" lon="1.54844">
        <ele>11.4</ele>
        <time>2013-03-23T14:02:15Z</time>
      </trkpt>
      <trkpt lat="50.21428" lon="1.54829">
        <ele>11.4</ele>
        <time>2013-03-23T14:02:24Z</time>
      </trkpt>
      <trkpt lat="50.21425" lon="1.54815">
        <ele>11.4</ele>
        <time>2013-03-23T14:02:33Z</time>
      </trkpt>
      <trkpt lat="50.21421" lon="1.54799">
        <ele>11.4</ele>
        <time>2013-03-23T14:02:43Z</time>
      </trkpt>
      <trkpt lat="50.21421" lon="1.54798">
        <ele>11.4</ele>
        <time>2013-03-23T14:02:44Z</time>
      </trkpt>
      <trkpt lat="50.21418" lon="1.54784">
        <ele>11.4</ele>
        <time>2013-03-23T14:02:52Z</time>
      </trkpt>
      <trkpt lat="50.21416" lon="1.54771">
        <ele>11.4</ele>
        <time>2013-03-23T14:03:00Z</time>
      </trkpt>
      <trkpt lat="50.21413" lon="1.54754">
        <ele>11.4</ele>
        <time>2013-03-23T14:03:09Z</time>
      </trkpt>
      <trkpt lat="50.21409" lon="1.54739">
        <ele>11.4</ele>
        <time>2013-03-23T14:03:19Z</time>
      </trkpt>
      <trkpt lat="50.21406" lon="1.54724">
        <ele>11.4</ele>
        <time>2013-03-23T14:03:28Z</time>
      </trkpt>
      <trkpt lat="50.21403" lon="1.54711">
        <ele>11.4</ele>
        <time>2013-03-23T14:03:36Z</time>
      </trkpt>
      <trkpt lat="50.21399" lon="1.54691">
        <ele>11.4</ele>
        <time>2013-03-23T14:03:48Z</time>
      </trkpt>
      <trkpt lat="50.21396" lon="1.54675">
        <ele>11.4</ele>
        <time>2013-03-23T14:03:58Z</time>
      </trkpt>
      <trkpt lat="50.21394" lon="1.54664">
        <ele>11.4</ele>
        <time>2013-03-23T14:04:06Z</time>
      </trkpt>
      <trkpt lat="50.21391" lon="1.54654">
        <ele>11.4</ele>
        <time>2013-03-23T14:04:14Z</time>
      </trkpt>
      <trkpt lat="50.21389" lon="1.54643">
        <ele>11.4</ele>
        <time>2013-03-23T14:04:21Z</time>
      </trkpt>
      <trkpt lat="50.21388" lon="1.54635">
        <ele>11.4</ele>
        <time>2013-03-23T14:04:27Z</time>
      </trkpt>
      <trkpt lat="50.21388" lon="1.54633">
        <ele>11.4</ele>
        <time>2013-03-23T14:04:30Z</time>
      </trkpt>
      <trkpt lat="50.21386" lon="1.54626">
        <ele>11.4</ele>
        <time>2013-03-23T14:04:33Z</time>
      </trkpt>
      <trkpt lat="50.21382" lon="1.54612">
        <ele>11.4</ele>
        <time>2013-03-23T14:04:43Z</time>
      </trkpt>
      <trkpt lat="50.21383" lon="1.54611">
        <ele>11.4</ele>
        <time>2013-03-23T14:04:44Z</time>
      </trkpt>
      <trkpt lat="50.21381" lon="1.546">
        <ele>11.4</ele>
        <time>2013-03-23T14:04:50Z</time>
      </trkpt>
      <trkpt lat="50.21377" lon="1.54588">
        <ele>11.4</ele>
        <time>2013-03-23T14:04:57Z</time>
      </trkpt>
      <trkpt lat="50.21374" lon="1.54572">
        <ele>11.4</ele>
        <time>2013-03-23T14:05:08Z</time>
      </trkpt>
      <trkpt lat="50.21372" lon="1.54561">
        <ele>11.4</ele>
        <time>2013-03-23T14:05:15Z</time>
      </trkpt>
      <trkpt lat="50.21368" lon="1.54547">
        <ele>11.4</ele>
        <time>2013-03-23T14:05:24Z</time>
      </trkpt>
      <trkpt lat="50.21366" lon="1.54534">
        <ele>11.4</ele>
        <time>2013-03-23T14:05:32Z</time>
      </trkpt>
      <trkpt lat="50.21362" lon="1.54514">
        <ele>11.4</ele>
        <time>2013-03-23T14:05:44Z</time>
      </trkpt>
      <trkpt lat="50.21358" lon="1.54499">
        <ele>11.4</ele>
        <time>2013-03-23T14:05:53Z</time>
      </trkpt>
      <trkpt lat="50.21355" lon="1.54485">
        <ele>11.4</ele>
        <time>2013-03-23T14:06:02Z</time>
      </trkpt>
      <trkpt lat="50.21352" lon="1.54471">
        <ele>11.4</ele>
        <time>2013-03-23T14:06:11Z</time>
      </trkpt>
      <trkpt lat="50.21348" lon="1.54453">
        <ele>11.4</ele>
        <time>2013-03-23T14:06:22Z</time>
      </trkpt>
      <trkpt lat="50.21344" lon="1.54439">
        <ele>11.4</ele>
        <time>2013-03-23T14:06:31Z</time>
      </trkpt>
      <trkpt lat="50.21341" lon="1.54426">
        <ele>11.4</ele>
        <time>2013-03-23T14:06:40Z</time>
      </trkpt>
      <trkpt lat="50.21338" lon="1.54413">
        <ele>11.4</ele>
        <time>2013-03-23T14:06:49Z</time>
      </trkpt>
      <trkpt lat="50.21336" lon="1.54404">
        <ele>11.4</ele>
        <time>2013-03-23T14:06:56Z</time>
      </trkpt>
      <trkpt lat="50.21333" lon="1.54396">
        <ele>11.4</ele>
        <time>2013-03-23T14:07:03Z</time>
      </trkpt>
      <trkpt lat="50.21331" lon="1.5439">
        <ele>11.4</ele>
        <time>2013-03-23T14:07:08Z</time>
      </trkpt>
      <trkpt lat="50.2133" lon="1.54385">
        <ele>11.4</ele>
        <time>2013-03-23T14:07:15Z</time>
      </trkpt>
      <trkpt lat="50.21331" lon="1.54378">
        <ele>11.4</ele>
        <time>2013-03-23T14:07:22Z</time>
      </trkpt>
      <trkpt lat="50.21335" lon="1.5437">
        <ele>11.4</ele>
        <time>2013-03-23T14:07:31Z</time>
      </trkpt>
      <trkpt lat="50.21336" lon="1.54366">
        <ele>11.4</ele>
        <time>2013-03-23T14:07:38Z</time>
      </trkpt>
      <trkpt lat="50.21335" lon="1.54359">
        <ele>11.4</ele>
        <time>2013-03-23T14:07:58Z</time>
      </trkpt>
      <trkpt lat="50.21333" lon="1.54349">
        <ele>11.4</ele>
        <time>2013-03-23T14:08:11Z</time>
      </trkpt>
      <trkpt lat="50.21334" lon="1.54353">
        <ele>9.4</ele>
        <time>2013-03-23T14:11:13Z</time>
      </trkpt>
      <trkpt lat="50.21334" lon="1.54344">
        <ele>9.4</ele>
        <time>2013-03-23T14:13:05Z</time>
      </trkpt>
      <trkpt lat="50.2133" lon="1.54327">
        <ele>8.8</ele>
        <time>2013-03-23T14:13:16Z</time>
      </trkpt>
      <trkpt lat="50.21327" lon="1.54311">
        <ele>7.8</ele>
        <time>2013-03-23T14:13:27Z</time>
      </trkpt>
      <trkpt lat="50.21324" lon="1.54297">
        <ele>7.6</ele>
        <time>2013-03-23T14:13:36Z</time>
      </trkpt>
      <trkpt lat="50.2132" lon="1.54281">
        <ele>7.4</ele>
        <time>2013-03-23T14:13:46Z</time>
      </trkpt>
      <trkpt lat="50.21317" lon="1.54269">
        <ele>7.4</ele>
        <time>2013-03-23T14:13:54Z</time>
      </trkpt>
      <trkpt lat="50.21313" lon="1.54255">
        <ele>7.4</ele>
        <time>2013-03-23T14:14:04Z</time>
      </trkpt>
      <trkpt lat="50.2131" lon="1.54244">
        <ele>7.4</ele>
        <time>2013-03-23T14:14:11Z</time>
      </trkpt>
      <trkpt lat="50.21306" lon="1.54233">
        <ele>7.4</ele>
        <time>2013-03-23T14:14:19Z</time>
      </trkpt>
      <trkpt lat="50.21304" lon="1.54225">
        <ele>7.4</ele>
        <time>2013-03-23T14:14:26Z</time>
      </trkpt>
      <trkpt lat="50.21301" lon="1.54213">
        <ele>7.4</ele>
        <time>2013-03-23T14:14:34Z</time>
      </trkpt>
      <trkpt lat="50.21296" lon="1.54198">
        <ele>7.4</ele>
        <time>2013-03-23T14:14:45Z</time>
      </trkpt>
      <trkpt lat="50.21294" lon="1.54192">
        <ele>7.4</ele>
        <time>2013-03-23T14:14:49Z</time>
      </trkpt>
      <trkpt lat="50.21293" lon="1.54183">
        <ele>7.4</ele>
        <time>2013-03-23T14:14:56Z</time>
      </trkpt>
      <trkpt lat="50.21293" lon="1.54182">
        <ele>7.4</ele>
        <time>2013-03-23T14:14:57Z</time>
      </trkpt>
      <trkpt lat="50.2129" lon="1.5417">
        <ele>7.4</ele>
        <time>2013-03-23T14:15:05Z</time>
      </trkpt>
      <trkpt lat="50.21286" lon="1.54161">
        <ele>7.4</ele>
        <time>2013-03-23T14:15:12Z</time>
      </trkpt>
      <trkpt lat="50.21285" lon="1.54157">
        <ele>7.4</ele>
        <time>2013-03-23T14:15:15Z</time>
      </trkpt>
      <trkpt lat="50.21283" lon="1.54151">
        <ele>7.4</ele>
        <time>2013-03-23T14:15:19Z</time>
      </trkpt>
      <trkpt lat="50.21278" lon="1.54135">
        <ele>7.4</ele>
        <time>2013-03-23T14:15:29Z</time>
      </trkpt>
      <trkpt lat="50.21276" lon="1.54123">
        <ele>7.4</ele>
        <time>2013-03-23T14:15:37Z</time>
      </trkpt>
      <trkpt lat="50.21272" lon="1.54107">
        <ele>7.4</ele>
        <time>2013-03-23T14:15:47Z</time>
      </trkpt>
      <trkpt lat="50.21267" lon="1.54093">
        <ele>7.4</ele>
        <time>2013-03-23T14:15:56Z</time>
      </trkpt>
      <trkpt lat="50.21263" lon="1.54077">
        <ele>7.4</ele>
        <time>2013-03-23T14:16:06Z</time>
      </trkpt>
      <trkpt lat="50.21258" lon="1.54063">
        <ele>7.4</ele>
        <time>2013-03-23T14:16:15Z</time>
      </trkpt>
      <trkpt lat="50.21252" lon="1.54045">
        <ele>7.4</ele>
        <time>2013-03-23T14:16:26Z</time>
      </trkpt>
      <trkpt lat="50.21247" lon="1.54031">
        <ele>7.4</ele>
        <time>2013-03-23T14:16:35Z</time>
      </trkpt>
      <trkpt lat="50.21243" lon="1.54019">
        <ele>7.4</ele>
        <time>2013-03-23T14:16:43Z</time>
      </trkpt>
      <trkpt lat="50.21241" lon="1.54013">
        <ele>7.4</ele>
        <time>2013-03-23T14:16:47Z</time>
      </trkpt>
      <trkpt lat="50.21236" lon="1.54">
        <ele>7.4</ele>
        <time>2013-03-23T14:16:56Z</time>
      </trkpt>
      <trkpt lat="50.21232" lon="1.53985">
        <ele>7.4</ele>
        <time>2013-03-23T14:17:05Z</time>
      </trkpt>
      <trkpt lat="50.21227" lon="1.53971">
        <ele>7.4</ele>
        <time>2013-03-23T14:17:14Z</time>
      </trkpt>
      <trkpt lat="50.21221" lon="1.53954">
        <ele>7.4</ele>
        <time>2013-03-23T14:17:25Z</time>
      </trkpt>
      <trkpt lat="50.21216" lon="1.53939">
        <ele>7.4</ele>
        <time>2013-03-23T14:17:35Z</time>
      </trkpt>
      <trkpt lat="50.2121" lon="1.53922">
        <ele>7.4</ele>
        <time>2013-03-23T14:17:46Z</time>
      </trkpt>
      <trkpt lat="50.21205" lon="1.53906">
        <ele>7.4</ele>
        <time>2013-03-23T14:17:56Z</time>
      </trkpt>
      <trkpt lat="50.21197" lon="1.53884">
        <ele>7.4</ele>
        <time>2013-03-23T14:18:10Z</time>
      </trkpt>
      <trkpt lat="50.21191" lon="1.53869">
        <ele>7.4</ele>
        <time>2013-03-23T14:18:20Z</time>
      </trkpt>
      <trkpt lat="50.21185" lon="1.53854">
        <ele>7.4</ele>
        <time>2013-03-23T14:18:30Z</time>
      </trkpt>
      <trkpt lat="50.21178" lon="1.53834">
        <ele>7.4</ele>
        <time>2013-03-23T14:18:42Z</time>
      </trkpt>
      <trkpt lat="50.21171" lon="1.5382">
        <ele>7.4</ele>
        <time>2013-03-23T14:18:52Z</time>
      </trkpt>
      <trkpt lat="50.21165" lon="1.53808">
        <ele>8</ele>
        <time>2013-03-23T14:19:01Z</time>
      </trkpt>
      <trkpt lat="50.21157" lon="1.53792">
        <ele>9</ele>
        <time>2013-03-23T14:19:12Z</time>
      </trkpt>
      <trkpt lat="50.21151" lon="1.53778">
        <ele>9.2</ele>
        <time>2013-03-23T14:19:22Z</time>
      </trkpt>
      <trkpt lat="50.21147" lon="1.53769">
        <ele>9.2</ele>
        <time>2013-03-23T14:19:30Z</time>
      </trkpt>
      <trkpt lat="50.21147" lon="1.53768">
        <ele>9.4</ele>
        <time>2013-03-23T14:19:31Z</time>
      </trkpt>
      <trkpt lat="50.21141" lon="1.53755">
        <ele>9.4</ele>
        <time>2013-03-23T14:19:42Z</time>
      </trkpt>
      <trkpt lat="50.21136" lon="1.53745">
        <ele>9.4</ele>
        <time>2013-03-23T14:19:51Z</time>
      </trkpt>
      <trkpt lat="50.2113" lon="1.53733">
        <ele>9.4</ele>
        <time>2013-03-23T14:20:00Z</time>
      </trkpt>
      <trkpt lat="50.21125" lon="1.53722">
        <ele>9.4</ele>
        <time>2013-03-23T14:20:08Z</time>
      </trkpt>
      <trkpt lat="50.21119" lon="1.5371">
        <ele>9.4</ele>
        <time>2013-03-23T14:20:17Z</time>
      </trkpt>
      <trkpt lat="50.21112" lon="1.53695">
        <ele>9.4</ele>
        <time>2013-03-23T14:20:27Z</time>
      </trkpt>
      <trkpt lat="50.21106" lon="1.53682">
        <ele>9.4</ele>
        <time>2013-03-23T14:20:36Z</time>
      </trkpt>
      <trkpt lat="50.21098" lon="1.53665">
        <ele>9.4</ele>
        <time>2013-03-23T14:20:47Z</time>
      </trkpt>
      <trkpt lat="50.21089" lon="1.53649">
        <ele>9.4</ele>
        <time>2013-03-23T14:20:58Z</time>
      </trkpt>
      <trkpt lat="50.21082" lon="1.53635">
        <ele>9.4</ele>
        <time>2013-03-23T14:21:08Z</time>
      </trkpt>
      <trkpt lat="50.21081" lon="1.53633">
        <ele>9.4</ele>
        <time>2013-03-23T14:21:10Z</time>
      </trkpt>
      <trkpt lat="50.21077" lon="1.53624">
        <ele>9.4</ele>
        <time>2013-03-23T14:21:17Z</time>
      </trkpt>
      <trkpt lat="50.21076" lon="1.53621">
        <ele>9.4</ele>
        <time>2013-03-23T14:21:20Z</time>
      </trkpt>
      <trkpt lat="50.21074" lon="1.53617">
        <ele>9.4</ele>
        <time>2013-03-23T14:21:25Z</time>
      </trkpt>
      <trkpt lat="50.21068" lon="1.53604">
        <ele>9.4</ele>
        <time>2013-03-23T14:21:35Z</time>
      </trkpt>
      <trkpt lat="50.21062" lon="1.53593">
        <ele>9.4</ele>
        <time>2013-03-23T14:21:44Z</time>
      </trkpt>
      <trkpt lat="50.21057" lon="1.5358">
        <ele>9.4</ele>
        <time>2013-03-23T14:21:53Z</time>
      </trkpt>
      <trkpt lat="50.21052" lon="1.53565">
        <ele>9.4</ele>
        <time>2013-03-23T14:22:03Z</time>
      </trkpt>
      <trkpt lat="50.21047" lon="1.53549">
        <ele>9.4</ele>
        <time>2013-03-23T14:22:13Z</time>
      </trkpt>
      <trkpt lat="50.21041" lon="1.53531">
        <ele>9.4</ele>
        <time>2013-03-23T14:22:24Z</time>
      </trkpt>
      <trkpt lat="50.21036" lon="1.53517">
        <ele>9.4</ele>
        <time>2013-03-23T14:22:34Z</time>
      </trkpt>
      <trkpt lat="50.21032" lon="1.53504">
        <ele>9.4</ele>
        <time>2013-03-23T14:22:43Z</time>
      </trkpt>
      <trkpt lat="50.21031" lon="1.53502">
        <ele>9.4</ele>
        <time>2013-03-23T14:22:45Z</time>
      </trkpt>
      <trkpt lat="50.21026" lon="1.53498">
        <ele>9.4</ele>
        <time>2013-03-23T14:22:51Z</time>
      </trkpt>
      <trkpt lat="50.21026" lon="1.53496">
        <ele>9.4</ele>
        <time>2013-03-23T14:23:03Z</time>
      </trkpt>
      <trkpt lat="50.21028" lon="1.53493">
        <ele>9.4</ele>
        <time>2013-03-23T14:23:18Z</time>
      </trkpt>
      <trkpt lat="50.21025" lon="1.5349">
        <ele>9.4</ele>
        <time>2013-03-23T14:23:37Z</time>
      </trkpt>
      <trkpt lat="50.21021" lon="1.53481">
        <ele>9.4</ele>
        <time>2013-03-23T14:23:45Z</time>
      </trkpt>
      <trkpt lat="50.2102" lon="1.5348">
        <ele>9.4</ele>
        <time>2013-03-23T14:23:46Z</time>
      </trkpt>
      <trkpt lat="50.21017" lon="1.53471">
        <ele>9.4</ele>
        <time>2013-03-23T14:23:52Z</time>
      </trkpt>
      <trkpt lat="50.21012" lon="1.5346">
        <ele>9.4</ele>
        <time>2013-03-23T14:24:01Z</time>
      </trkpt>
      <trkpt lat="50.21007" lon="1.53448">
        <ele>9.4</ele>
        <time>2013-03-23T14:24:10Z</time>
      </trkpt>
      <trkpt lat="50.21006" lon="1.53443">
        <ele>9.4</ele>
        <time>2013-03-23T14:24:13Z</time>
      </trkpt>
      <trkpt lat="50.21006" lon="1.53441">
        <ele>9.4</ele>
        <time>2013-03-23T14:24:21Z</time>
      </trkpt>
      <trkpt lat="50.21002" lon="1.53436">
        <ele>9.4</ele>
        <time>2013-03-23T14:24:43Z</time>
      </trkpt>
      <trkpt lat="50.20998" lon="1.53426">
        <ele>9.4</ele>
        <time>2013-03-23T14:24:50Z</time>
      </trkpt>
      <trkpt lat="50.20994" lon="1.53415">
        <ele>9.4</ele>
        <time>2013-03-23T14:24:58Z</time>
      </trkpt>
      <trkpt lat="50.20991" lon="1.53404">
        <ele>9.4</ele>
        <time>2013-03-23T14:25:06Z</time>
      </trkpt>
      <trkpt lat="50.20985" lon="1.5339">
        <ele>9.4</ele>
        <time>2013-03-23T14:25:16Z</time>
      </trkpt>
      <trkpt lat="50.2098" lon="1.53379">
        <ele>9.4</ele>
        <time>2013-03-23T14:25:24Z</time>
      </trkpt>
      <trkpt lat="50.20978" lon="1.53374">
        <ele>9.4</ele>
        <time>2013-03-23T14:25:30Z</time>
      </trkpt>
      <trkpt lat="50.20974" lon="1.53365">
        <ele>9.4</ele>
        <time>2013-03-23T14:25:36Z</time>
      </trkpt>
      <trkpt lat="50.20966" lon="1.53348">
        <ele>9.4</ele>
        <time>2013-03-23T14:25:49Z</time>
      </trkpt>
      <trkpt lat="50.2096" lon="1.53338">
        <ele>9.4</ele>
        <time>2013-03-23T14:25:57Z</time>
      </trkpt>
      <trkpt lat="50.20955" lon="1.53324">
        <ele>9.4</ele>
        <time>2013-03-23T14:26:07Z</time>
      </trkpt>
      <trkpt lat="50.20947" lon="1.53307">
        <ele>9.4</ele>
        <time>2013-03-23T14:26:19Z</time>
      </trkpt>
      <trkpt lat="50.2094" lon="1.53294">
        <ele>9.4</ele>
        <time>2013-03-23T14:26:29Z</time>
      </trkpt>
      <trkpt lat="50.20936" lon="1.53283">
        <ele>9.4</ele>
        <time>2013-03-23T14:26:37Z</time>
      </trkpt>
      <trkpt lat="50.20932" lon="1.53274">
        <ele>9.4</ele>
        <time>2013-03-23T14:26:45Z</time>
      </trkpt>
      <trkpt lat="50.20927" lon="1.53267">
        <ele>9.4</ele>
        <time>2013-03-23T14:26:54Z</time>
      </trkpt>
      <trkpt lat="50.20924" lon="1.5326">
        <ele>9.4</ele>
        <time>2013-03-23T14:27:08Z</time>
      </trkpt>
      <trkpt lat="50.20923" lon="1.53255">
        <ele>9.4</ele>
        <time>2013-03-23T14:27:13Z</time>
      </trkpt>
      <trkpt lat="50.20923" lon="1.53252">
        <ele>9.4</ele>
        <time>2013-03-23T14:27:21Z</time>
      </trkpt>
      <trkpt lat="50.2092" lon="1.53244">
        <ele>9.4</ele>
        <time>2013-03-23T14:27:27Z</time>
      </trkpt>
      <trkpt lat="50.20917" lon="1.53235">
        <ele>9.4</ele>
        <time>2013-03-23T14:27:34Z</time>
      </trkpt>
      <trkpt lat="50.20913" lon="1.53225">
        <ele>9.4</ele>
        <time>2013-03-23T14:27:43Z</time>
      </trkpt>
      <trkpt lat="50.20912" lon="1.53222">
        <ele>9.4</ele>
        <time>2013-03-23T14:27:45Z</time>
      </trkpt>
      <trkpt lat="50.20907" lon="1.53222">
        <ele>9.4</ele>
        <time>2013-03-23T14:27:51Z</time>
      </trkpt>
      <trkpt lat="50.20901" lon="1.53222">
        <ele>9.4</ele>
        <time>2013-03-23T14:27:57Z</time>
      </trkpt>
      <trkpt lat="50.20896" lon="1.53221">
        <ele>9.4</ele>
        <time>2013-03-23T14:28:02Z</time>
      </trkpt>
      <trkpt lat="50.20891" lon="1.5322">
        <ele>9.4</ele>
        <time>2013-03-23T14:28:06Z</time>
      </trkpt>
      <trkpt lat="50.20887" lon="1.5322">
        <ele>9.4</ele>
        <time>2013-03-23T14:28:11Z</time>
      </trkpt>
      <trkpt lat="50.20883" lon="1.53224">
        <ele>10.6</ele>
        <time>2013-03-23T14:28:20Z</time>
      </trkpt>
      <trkpt lat="50.20884" lon="1.53222">
        <ele>11.4</ele>
        <time>2013-03-23T14:29:06Z</time>
      </trkpt>
      <trkpt lat="50.20887" lon="1.53218">
        <ele>11.4</ele>
        <time>2013-03-23T14:29:10Z</time>
      </trkpt>
      <trkpt lat="50.2089" lon="1.53212">
        <ele>11.4</ele>
        <time>2013-03-23T14:29:15Z</time>
      </trkpt>
      <trkpt lat="50.20893" lon="1.53203">
        <ele>11.4</ele>
        <time>2013-03-23T14:29:21Z</time>
      </trkpt>
      <trkpt lat="50.20895" lon="1.5319">
        <ele>11.4</ele>
        <time>2013-03-23T14:29:30Z</time>
      </trkpt>
      <trkpt lat="50.20894" lon="1.53178">
        <ele>11.4</ele>
        <time>2013-03-23T14:29:38Z</time>
      </trkpt>
      <trkpt lat="50.2089" lon="1.53166">
        <ele>11.4</ele>
        <time>2013-03-23T14:29:46Z</time>
      </trkpt>
      <trkpt lat="50.20889" lon="1.53164">
        <ele>11.4</ele>
        <time>2013-03-23T14:29:47Z</time>
      </trkpt>
      <trkpt lat="50.20887" lon="1.53149">
        <ele>11.4</ele>
        <time>2013-03-23T14:29:56Z</time>
      </trkpt>
      <trkpt lat="50.20883" lon="1.53135">
        <ele>11.4</ele>
        <time>2013-03-23T14:30:04Z</time>
      </trkpt>
      <trkpt lat="50.20877" lon="1.53119">
        <ele>11.4</ele>
        <time>2013-03-23T14:30:14Z</time>
      </trkpt>
      <trkpt lat="50.20869" lon="1.53105">
        <ele>11.4</ele>
        <time>2013-03-23T14:30:23Z</time>
      </trkpt>
      <trkpt lat="50.20863" lon="1.53091">
        <ele>11.4</ele>
        <time>2013-03-23T14:30:32Z</time>
      </trkpt>
      <trkpt lat="50.20857" lon="1.53079">
        <ele>11.4</ele>
        <time>2013-03-23T14:30:40Z</time>
      </trkpt>
      <trkpt lat="50.20849" lon="1.53066">
        <ele>11.4</ele>
        <time>2013-03-23T14:30:49Z</time>
      </trkpt>
      <trkpt lat="50.20842" lon="1.53053">
        <ele>11.4</ele>
        <time>2013-03-23T14:30:58Z</time>
      </trkpt>
      <trkpt lat="50.20839" lon="1.53041">
        <ele>11.4</ele>
        <time>2013-03-23T14:31:05Z</time>
      </trkpt>
      <trkpt lat="50.20835" lon="1.53025">
        <ele>11.4</ele>
        <time>2013-03-23T14:31:14Z</time>
      </trkpt>
      <trkpt lat="50.20829" lon="1.53008">
        <ele>11.4</ele>
        <time>2013-03-23T14:31:24Z</time>
      </trkpt>
      <trkpt lat="50.20823" lon="1.52991">
        <ele>11.4</ele>
        <time>2013-03-23T14:31:34Z</time>
      </trkpt>
      <trkpt lat="50.20819" lon="1.52974">
        <ele>11.4</ele>
        <time>2013-03-23T14:31:43Z</time>
      </trkpt>
      <trkpt lat="50.20815" lon="1.52956">
        <ele>11.4</ele>
        <time>2013-03-23T14:31:53Z</time>
      </trkpt>
      <trkpt lat="50.20809" lon="1.52942">
        <ele>11.4</ele>
        <time>2013-03-23T14:32:02Z</time>
      </trkpt>
      <trkpt lat="50.20804" lon="1.52927">
        <ele>11.4</ele>
        <time>2013-03-23T14:32:11Z</time>
      </trkpt>
      <trkpt lat="50.20799" lon="1.52908">
        <ele>11.4</ele>
        <time>2013-03-23T14:32:22Z</time>
      </trkpt>
      <trkpt lat="50.20797" lon="1.52894">
        <ele>11.4</ele>
        <time>2013-03-23T14:32:30Z</time>
      </trkpt>
      <trkpt lat="50.20792" lon="1.52879">
        <ele>11.4</ele>
        <time>2013-03-23T14:32:39Z</time>
      </trkpt>
      <trkpt lat="50.20787" lon="1.5286">
        <ele>11.4</ele>
        <time>2013-03-23T14:32:49Z</time>
      </trkpt>
      <trkpt lat="50.20784" lon="1.52843">
        <ele>11.4</ele>
        <time>2013-03-23T14:32:58Z</time>
      </trkpt>
      <trkpt lat="50.2078" lon="1.52829">
        <ele>11.4</ele>
        <time>2013-03-23T14:33:06Z</time>
      </trkpt>
      <trkpt lat="50.20774" lon="1.52817">
        <ele>11.4</ele>
        <time>2013-03-23T14:33:15Z</time>
      </trkpt>
      <trkpt lat="50.20772" lon="1.52815">
        <ele>11.4</ele>
        <time>2013-03-23T14:33:22Z</time>
      </trkpt>
      <trkpt lat="50.20767" lon="1.52811">
        <ele>11.4</ele>
        <time>2013-03-23T14:33:53Z</time>
      </trkpt>
      <trkpt lat="50.20763" lon="1.52806">
        <ele>11.4</ele>
        <time>2013-03-23T14:33:59Z</time>
      </trkpt>
      <trkpt lat="50.2076" lon="1.52799">
        <ele>11.4</ele>
        <time>2013-03-23T14:34:07Z</time>
      </trkpt>
      <trkpt lat="50.20756" lon="1.52791">
        <ele>11.4</ele>
        <time>2013-03-23T14:34:15Z</time>
      </trkpt>
      <trkpt lat="50.20752" lon="1.52782">
        <ele>11.4</ele>
        <time>2013-03-23T14:34:23Z</time>
      </trkpt>
      <trkpt lat="50.20748" lon="1.52773">
        <ele>11.4</ele>
        <time>2013-03-23T14:34:30Z</time>
      </trkpt>
      <trkpt lat="50.20743" lon="1.52759">
        <ele>11.4</ele>
        <time>2013-03-23T14:34:41Z</time>
      </trkpt>
      <trkpt lat="50.20738" lon="1.52746">
        <ele>11.4</ele>
        <time>2013-03-23T14:34:51Z</time>
      </trkpt>
      <trkpt lat="50.20734" lon="1.52734">
        <ele>11.4</ele>
        <time>2013-03-23T14:35:00Z</time>
      </trkpt>
      <trkpt lat="50.2073" lon="1.52722">
        <ele>11.4</ele>
        <time>2013-03-23T14:35:09Z</time>
      </trkpt>
      <trkpt lat="50.20727" lon="1.52712">
        <ele>11.4</ele>
        <time>2013-03-23T14:35:17Z</time>
      </trkpt>
      <trkpt lat="50.20725" lon="1.52705">
        <ele>11.4</ele>
        <time>2013-03-23T14:35:22Z</time>
      </trkpt>
      <trkpt lat="50.20722" lon="1.52699">
        <ele>11.4</ele>
        <time>2013-03-23T14:35:27Z</time>
      </trkpt>
      <trkpt lat="50.20716" lon="1.52685">
        <ele>11.4</ele>
        <time>2013-03-23T14:35:37Z</time>
      </trkpt>
      <trkpt lat="50.20712" lon="1.52676">
        <ele>11.4</ele>
        <time>2013-03-23T14:35:44Z</time>
      </trkpt>
      <trkpt lat="50.2071" lon="1.52669">
        <ele>11.4</ele>
        <time>2013-03-23T14:35:53Z</time>
      </trkpt>
      <trkpt lat="50.20707" lon="1.5266">
        <ele>11.4</ele>
        <time>2013-03-23T14:36:28Z</time>
      </trkpt>
      <trkpt lat="50.20702" lon="1.52651">
        <ele>11.4</ele>
        <time>2013-03-23T14:36:36Z</time>
      </trkpt>
      <trkpt lat="50.20699" lon="1.52641">
        <ele>11.4</ele>
        <time>2013-03-23T14:36:44Z</time>
      </trkpt>
      <trkpt lat="50.20695" lon="1.52627">
        <ele>11.4</ele>
        <time>2013-03-23T14:36:53Z</time>
      </trkpt>
      <trkpt lat="50.2069" lon="1.52615">
        <ele>11.4</ele>
        <time>2013-03-23T14:37:01Z</time>
      </trkpt>
      <trkpt lat="50.20684" lon="1.52605">
        <ele>11.4</ele>
        <time>2013-03-23T14:37:09Z</time>
      </trkpt>
      <trkpt lat="50.20678" lon="1.52593">
        <ele>11.4</ele>
        <time>2013-03-23T14:37:18Z</time>
      </trkpt>
      <trkpt lat="50.20672" lon="1.52581">
        <ele>11.4</ele>
        <time>2013-03-23T14:37:27Z</time>
      </trkpt>
      <trkpt lat="50.20666" lon="1.52566">
        <ele>11.4</ele>
        <time>2013-03-23T14:37:37Z</time>
      </trkpt>
      <trkpt lat="50.20661" lon="1.52554">
        <ele>11.4</ele>
        <time>2013-03-23T14:37:46Z</time>
      </trkpt>
      <trkpt lat="50.20658" lon="1.52548">
        <ele>11.4</ele>
        <time>2013-03-23T14:37:50Z</time>
      </trkpt>
      <trkpt lat="50.20651" lon="1.5254">
        <ele>11.4</ele>
        <time>2013-03-23T14:37:59Z</time>
      </trkpt>
      <trkpt lat="50.20647" lon="1.52535">
        <ele>11.4</ele>
        <time>2013-03-23T14:38:03Z</time>
      </trkpt>
      <trkpt lat="50.2064" lon="1.52534">
        <ele>11.4</ele>
        <time>2013-03-23T14:38:10Z</time>
      </trkpt>
      <trkpt lat="50.20632" lon="1.52532">
        <ele>11.4</ele>
        <time>2013-03-23T14:38:18Z</time>
      </trkpt>
      <trkpt lat="50.20623" lon="1.5253">
        <ele>11.4</ele>
        <time>2013-03-23T14:38:25Z</time>
      </trkpt>
      <trkpt lat="50.20617" lon="1.52522">
        <ele>11.4</ele>
        <time>2013-03-23T14:38:32Z</time>
      </trkpt>
      <trkpt lat="50.20608" lon="1.52512">
        <ele>11.4</ele>
        <time>2013-03-23T14:38:41Z</time>
      </trkpt>
      <trkpt lat="50.206" lon="1.52502">
        <ele>11.4</ele>
        <time>2013-03-23T14:38:49Z</time>
      </trkpt>
      <trkpt lat="50.20593" lon="1.52491">
        <ele>11.4</ele>
        <time>2013-03-23T14:38:58Z</time>
      </trkpt>
      <trkpt lat="50.20585" lon="1.52479">
        <ele>11.4</ele>
        <time>2013-03-23T14:39:08Z</time>
      </trkpt>
      <trkpt lat="50.20578" lon="1.52473">
        <ele>11.4</ele>
        <time>2013-03-23T14:39:15Z</time>
      </trkpt>
      <trkpt lat="50.20571" lon="1.52466">
        <ele>11.4</ele>
        <time>2013-03-23T14:39:22Z</time>
      </trkpt>
      <trkpt lat="50.20562" lon="1.52458">
        <ele>11.4</ele>
        <time>2013-03-23T14:39:31Z</time>
      </trkpt>
      <trkpt lat="50.20554" lon="1.52449">
        <ele>11.4</ele>
        <time>2013-03-23T14:39:40Z</time>
      </trkpt>
      <trkpt lat="50.20547" lon="1.52438">
        <ele>11.4</ele>
        <time>2013-03-23T14:39:49Z</time>
      </trkpt>
      <trkpt lat="50.20541" lon="1.52429">
        <ele>11.4</ele>
        <time>2013-03-23T14:39:58Z</time>
      </trkpt>
      <trkpt lat="50.20537" lon="1.52414">
        <ele>11.4</ele>
        <time>2013-03-23T14:40:07Z</time>
      </trkpt>
      <trkpt lat="50.20532" lon="1.52399">
        <ele>11.4</ele>
        <time>2013-03-23T14:40:16Z</time>
      </trkpt>
      <trkpt lat="50.20528" lon="1.52391">
        <ele>11.4</ele>
        <time>2013-03-23T14:40:22Z</time>
      </trkpt>
      <trkpt lat="50.20522" lon="1.52376">
        <ele>11.4</ele>
        <time>2013-03-23T14:40:32Z</time>
      </trkpt>
      <trkpt lat="50.20514" lon="1.5236">
        <ele>11.4</ele>
        <time>2013-03-23T14:40:43Z</time>
      </trkpt>
      <trkpt lat="50.20507" lon="1.52345">
        <ele>11.4</ele>
        <time>2013-03-23T14:40:53Z</time>
      </trkpt>
      <trkpt lat="50.20501" lon="1.52332">
        <ele>11.4</ele>
        <time>2013-03-23T14:41:02Z</time>
      </trkpt>
      <trkpt lat="50.20493" lon="1.52316">
        <ele>11.4</ele>
        <time>2013-03-23T14:41:13Z</time>
      </trkpt>
      <trkpt lat="50.20487" lon="1.52305">
        <ele>11.4</ele>
        <time>2013-03-23T14:41:21Z</time>
      </trkpt>
      <trkpt lat="50.20481" lon="1.52292">
        <ele>11.4</ele>
        <time>2013-03-23T14:41:30Z</time>
      </trkpt>
      <trkpt lat="50.20472" lon="1.52276">
        <ele>11.4</ele>
        <time>2013-03-23T14:41:41Z</time>
      </trkpt>
      <trkpt lat="50.20466" lon="1.52264">
        <ele>11.4</ele>
        <time>2013-03-23T14:41:49Z</time>
      </trkpt>
      <trkpt lat="50.2046" lon="1.52251">
        <ele>11.4</ele>
        <time>2013-03-23T14:41:58Z</time>
      </trkpt>
      <trkpt lat="50.20456" lon="1.52241">
        <ele>11.4</ele>
        <time>2013-03-23T14:42:05Z</time>
      </trkpt>
      <trkpt lat="50.20449" lon="1.52227">
        <ele>11.4</ele>
        <time>2013-03-23T14:42:15Z</time>
      </trkpt>
      <trkpt lat="50.20442" lon="1.52215">
        <ele>11.4</ele>
        <time>2013-03-23T14:42:24Z</time>
      </trkpt>
      <trkpt lat="50.20437" lon="1.52205">
        <ele>11.4</ele>
        <time>2013-03-23T14:42:31Z</time>
      </trkpt>
      <trkpt lat="50.20432" lon="1.52193">
        <ele>11.4</ele>
        <time>2013-03-23T14:42:40Z</time>
      </trkpt>
      <trkpt lat="50.20425" lon="1.52178">
        <ele>11.4</ele>
        <time>2013-03-23T14:42:51Z</time>
      </trkpt>
      <trkpt lat="50.20418" lon="1.52167">
        <ele>11.4</ele>
        <time>2013-03-23T14:43:00Z</time>
      </trkpt>
      <trkpt lat="50.20412" lon="1.52155">
        <ele>11.4</ele>
        <time>2013-03-23T14:43:09Z</time>
      </trkpt>
      <trkpt lat="50.20406" lon="1.52142">
        <ele>11.4</ele>
        <time>2013-03-23T14:43:19Z</time>
      </trkpt>
      <trkpt lat="50.20401" lon="1.52131">
        <ele>11.4</ele>
        <time>2013-03-23T14:43:27Z</time>
      </trkpt>
      <trkpt lat="50.20396" lon="1.52122">
        <ele>11.4</ele>
        <time>2013-03-23T14:43:35Z</time>
      </trkpt>
      <trkpt lat="50.2039" lon="1.52112">
        <ele>11.4</ele>
        <time>2013-03-23T14:43:43Z</time>
      </trkpt>
      <trkpt lat="50.20384" lon="1.52099">
        <ele>11.4</ele>
        <time>2013-03-23T14:43:52Z</time>
      </trkpt>
      <trkpt lat="50.2038" lon="1.5209">
        <ele>11.4</ele>
        <time>2013-03-23T14:43:59Z</time>
      </trkpt>
      <trkpt lat="50.20375" lon="1.52079">
        <ele>11.4</ele>
        <time>2013-03-23T14:44:08Z</time>
      </trkpt>
      <trkpt lat="50.20371" lon="1.52072">
        <ele>11.4</ele>
        <time>2013-03-23T14:44:15Z</time>
      </trkpt>
      <trkpt lat="50.20365" lon="1.52061">
        <ele>11.4</ele>
        <time>2013-03-23T14:44:24Z</time>
      </trkpt>
      <trkpt lat="50.20358" lon="1.52049">
        <ele>11.4</ele>
        <time>2013-03-23T14:44:34Z</time>
      </trkpt>
      <trkpt lat="50.20356" lon="1.52046">
        <ele>11.4</ele>
        <time>2013-03-23T14:44:37Z</time>
      </trkpt>
      <trkpt lat="50.2035" lon="1.52033">
        <ele>11.4</ele>
        <time>2013-03-23T14:44:47Z</time>
      </trkpt>
      <trkpt lat="50.20345" lon="1.52023">
        <ele>11.4</ele>
        <time>2013-03-23T14:44:55Z</time>
      </trkpt>
      <trkpt lat="50.20342" lon="1.52015">
        <ele>11.4</ele>
        <time>2013-03-23T14:45:03Z</time>
      </trkpt>
      <trkpt lat="50.20341" lon="1.52015">
        <ele>11.4</ele>
        <time>2013-03-23T14:45:22Z</time>
      </trkpt>
      <trkpt lat="50.20342" lon="1.52013">
        <ele>11.4</ele>
        <time>2013-03-23T14:45:27Z</time>
      </trkpt>
      <trkpt lat="50.20343" lon="1.52016">
        <ele>11.4</ele>
        <time>2013-03-23T14:48:18Z</time>
      </trkpt>
      <trkpt lat="50.20346" lon="1.52014">
        <ele>11.4</ele>
        <time>2013-03-23T14:49:57Z</time>
      </trkpt>
      <trkpt lat="50.20344" lon="1.52017">
        <ele>11.4</ele>
        <time>2013-03-23T14:50:30Z</time>
      </trkpt>
      <trkpt lat="50.20342" lon="1.52016">
        <ele>11.4</ele>
        <time>2013-03-23T14:50:35Z</time>
      </trkpt>
      <trkpt lat="50.20337" lon="1.52011">
        <ele>11.4</ele>
        <time>2013-03-23T14:50:41Z</time>
      </trkpt>
      <trkpt lat="50.20335" lon="1.52007">
        <ele>11.4</ele>
        <time>2013-03-23T14:50:49Z</time>
      </trkpt>
      <trkpt lat="50.20332" lon="1.51999">
        <ele>11.4</ele>
        <time>2013-03-23T14:50:55Z</time>
      </trkpt>
      <trkpt lat="50.20327" lon="1.51987">
        <ele>11.4</ele>
        <time>2013-03-23T14:51:04Z</time>
      </trkpt>
      <trkpt lat="50.20322" lon="1.51977">
        <ele>11.4</ele>
        <time>2013-03-23T14:51:12Z</time>
      </trkpt>
      <trkpt lat="50.20314" lon="1.51963">
        <ele>11.4</ele>
        <time>2013-03-23T14:51:23Z</time>
      </trkpt>
      <trkpt lat="50.20308" lon="1.51948">
        <ele>11.4</ele>
        <time>2013-03-23T14:51:33Z</time>
      </trkpt>
      <trkpt lat="50.20301" lon="1.51935">
        <ele>11.4</ele>
        <time>2013-03-23T14:51:43Z</time>
      </trkpt>
      <trkpt lat="50.20294" lon="1.51925">
        <ele>11.4</ele>
        <time>2013-03-23T14:51:53Z</time>
      </trkpt>
      <trkpt lat="50.20288" lon="1.51915">
        <ele>11.4</ele>
        <time>2013-03-23T14:52:02Z</time>
      </trkpt>
      <trkpt lat="50.20283" lon="1.51905">
        <ele>11.2</ele>
        <time>2013-03-23T14:52:10Z</time>
      </trkpt>
      <trkpt lat="50.20279" lon="1.51894">
        <ele>10.2</ele>
        <time>2013-03-23T14:52:18Z</time>
      </trkpt>
      <trkpt lat="50.20275" lon="1.51884">
        <ele>9.8</ele>
        <time>2013-03-23T14:52:25Z</time>
      </trkpt>
      <trkpt lat="50.2027" lon="1.5187">
        <ele>9.6</ele>
        <time>2013-03-23T14:52:34Z</time>
      </trkpt>
      <trkpt lat="50.20263" lon="1.51859">
        <ele>9.4</ele>
        <time>2013-03-23T14:52:43Z</time>
      </trkpt>
      <trkpt lat="50.20256" lon="1.51848">
        <ele>9.4</ele>
        <time>2013-03-23T14:52:52Z</time>
      </trkpt>
      <trkpt lat="50.20252" lon="1.51838">
        <ele>9.4</ele>
        <time>2013-03-23T14:52:59Z</time>
      </trkpt>
      <trkpt lat="50.20247" lon="1.51823">
        <ele>9.4</ele>
        <time>2013-03-23T14:53:08Z</time>
      </trkpt>
      <trkpt lat="50.20242" lon="1.51809">
        <ele>9.4</ele>
        <time>2013-03-23T14:53:17Z</time>
      </trkpt>
      <trkpt lat="50.20235" lon="1.51795">
        <ele>9.4</ele>
        <time>2013-03-23T14:53:26Z</time>
      </trkpt>
      <trkpt lat="50.2023" lon="1.51785">
        <ele>9.4</ele>
        <time>2013-03-23T14:53:33Z</time>
      </trkpt>
      <trkpt lat="50.20221" lon="1.51768">
        <ele>9.4</ele>
        <time>2013-03-23T14:53:45Z</time>
      </trkpt>
      <trkpt lat="50.20214" lon="1.51756">
        <ele>9.4</ele>
        <time>2013-03-23T14:53:54Z</time>
      </trkpt>
      <trkpt lat="50.20208" lon="1.51745">
        <ele>9.4</ele>
        <time>2013-03-23T14:54:03Z</time>
      </trkpt>
      <trkpt lat="50.20202" lon="1.51735">
        <ele>9.4</ele>
        <time>2013-03-23T14:54:10Z</time>
      </trkpt>
      <trkpt lat="50.20196" lon="1.51724">
        <ele>9.4</ele>
        <time>2013-03-23T14:54:18Z</time>
      </trkpt>
      <trkpt lat="50.20195" lon="1.51722">
        <ele>9.4</ele>
        <time>2013-03-23T14:54:19Z</time>
      </trkpt>
      <trkpt lat="50.20191" lon="1.51718">
        <ele>9.4</ele>
        <time>2013-03-23T14:54:24Z</time>
      </trkpt>
      <trkpt lat="50.20187" lon="1.51711">
        <ele>9.4</ele>
        <time>2013-03-23T14:54:29Z</time>
      </trkpt>
      <trkpt lat="50.20182" lon="1.51697">
        <ele>9.4</ele>
        <time>2013-03-23T14:54:38Z</time>
      </trkpt>
      <trkpt lat="50.20173" lon="1.5168">
        <ele>9.4</ele>
        <time>2013-03-23T14:54:50Z</time>
      </trkpt>
      <trkpt lat="50.20166" lon="1.51667">
        <ele>9.4</ele>
        <time>2013-03-23T14:54:59Z</time>
      </trkpt>
      <trkpt lat="50.20158" lon="1.5165">
        <ele>9.4</ele>
        <time>2013-03-23T14:55:11Z</time>
      </trkpt>
      <trkpt lat="50.20151" lon="1.51636">
        <ele>9.4</ele>
        <time>2013-03-23T14:55:21Z</time>
      </trkpt>
      <trkpt lat="50.20144" lon="1.51624">
        <ele>9.4</ele>
        <time>2013-03-23T14:55:30Z</time>
      </trkpt>
      <trkpt lat="50.20138" lon="1.51613">
        <ele>9.4</ele>
        <time>2013-03-23T14:55:38Z</time>
      </trkpt>
      <trkpt lat="50.2013" lon="1.51601">
        <ele>9.4</ele>
        <time>2013-03-23T14:55:47Z</time>
      </trkpt>
      <trkpt lat="50.20123" lon="1.51591">
        <ele>9.4</ele>
        <time>2013-03-23T14:55:55Z</time>
      </trkpt>
      <trkpt lat="50.20117" lon="1.51578">
        <ele>9.4</ele>
        <time>2013-03-23T14:56:04Z</time>
      </trkpt>
      <trkpt lat="50.20109" lon="1.51565">
        <ele>9.4</ele>
        <time>2013-03-23T14:56:14Z</time>
      </trkpt>
      <trkpt lat="50.20102" lon="1.51553">
        <ele>9.4</ele>
        <time>2013-03-23T14:56:24Z</time>
      </trkpt>
      <trkpt lat="50.20094" lon="1.51539">
        <ele>9.4</ele>
        <time>2013-03-23T14:56:35Z</time>
      </trkpt>
      <trkpt lat="50.20087" lon="1.51523">
        <ele>9.4</ele>
        <time>2013-03-23T14:56:46Z</time>
      </trkpt>
      <trkpt lat="50.2008" lon="1.5151">
        <ele>9.4</ele>
        <time>2013-03-23T14:56:55Z</time>
      </trkpt>
      <trkpt lat="50.20074" lon="1.515">
        <ele>9.4</ele>
        <time>2013-03-23T14:57:03Z</time>
      </trkpt>
      <trkpt lat="50.20066" lon="1.51486">
        <ele>9.4</ele>
        <time>2013-03-23T14:57:14Z</time>
      </trkpt>
      <trkpt lat="50.20059" lon="1.51476">
        <ele>9.4</ele>
        <time>2013-03-23T14:57:22Z</time>
      </trkpt>
      <trkpt lat="50.20053" lon="1.51467">
        <ele>9.4</ele>
        <time>2013-03-23T14:57:30Z</time>
      </trkpt>
      <trkpt lat="50.20044" lon="1.51453">
        <ele>9.4</ele>
        <time>2013-03-23T14:57:42Z</time>
      </trkpt>
      <trkpt lat="50.20037" lon="1.51441">
        <ele>9.4</ele>
        <time>2013-03-23T14:57:51Z</time>
      </trkpt>
      <trkpt lat="50.2003" lon="1.5143">
        <ele>9.4</ele>
        <time>2013-03-23T14:58:00Z</time>
      </trkpt>
      <trkpt lat="50.20025" lon="1.5142">
        <ele>9.4</ele>
        <time>2013-03-23T14:58:08Z</time>
      </trkpt>
      <trkpt lat="50.20018" lon="1.51409">
        <ele>9.4</ele>
        <time>2013-03-23T14:58:17Z</time>
      </trkpt>
      <trkpt lat="50.20013" lon="1.51399">
        <ele>9.4</ele>
        <time>2013-03-23T14:58:24Z</time>
      </trkpt>
      <trkpt lat="50.20008" lon="1.5139">
        <ele>9.4</ele>
        <time>2013-03-23T14:58:31Z</time>
      </trkpt>
      <trkpt lat="50.2" lon="1.51372">
        <ele>9.4</ele>
        <time>2013-03-23T14:58:43Z</time>
      </trkpt>
      <trkpt lat="50.19995" lon="1.5136">
        <ele>9.4</ele>
        <time>2013-03-23T14:58:52Z</time>
      </trkpt>
      <trkpt lat="50.19987" lon="1.51345">
        <ele>9.4</ele>
        <time>2013-03-23T14:59:03Z</time>
      </trkpt>
      <trkpt lat="50.1998" lon="1.51334">
        <ele>9.4</ele>
        <time>2013-03-23T14:59:12Z</time>
      </trkpt>
      <trkpt lat="50.19977" lon="1.51334">
        <ele>9.4</ele>
        <time>2013-03-23T14:59:17Z</time>
      </trkpt>
      <trkpt lat="50.19972" lon="1.51335">
        <ele>9.4</ele>
        <time>2013-03-23T14:59:23Z</time>
      </trkpt>
      <trkpt lat="50.19966" lon="1.51337">
        <ele>9.4</ele>
        <time>2013-03-23T14:59:30Z</time>
      </trkpt>
      <trkpt lat="50.19963" lon="1.51337">
        <ele>9.4</ele>
        <time>2013-03-23T14:59:34Z</time>
      </trkpt>
      <trkpt lat="50.1996" lon="1.51336">
        <ele>9.4</ele>
        <time>2013-03-23T14:59:43Z</time>
      </trkpt>
      <trkpt lat="50.19958" lon="1.51335">
        <ele>9.4</ele>
        <time>2013-03-23T14:59:58Z</time>
      </trkpt>
      <trkpt lat="50.19952" lon="1.51334">
        <ele>9.4</ele>
        <time>2013-03-23T15:00:05Z</time>
      </trkpt>
      <trkpt lat="50.1995" lon="1.51335">
        <ele>9.4</ele>
        <time>2013-03-23T15:00:07Z</time>
      </trkpt>
      <trkpt lat="50.19948" lon="1.51339">
        <ele>9.4</ele>
        <time>2013-03-23T15:00:12Z</time>
      </trkpt>
      <trkpt lat="50.19946" lon="1.51347">
        <ele>9.4</ele>
        <time>2013-03-23T15:00:19Z</time>
      </trkpt>
      <trkpt lat="50.19943" lon="1.5135">
        <ele>9.4</ele>
        <time>2013-03-23T15:00:23Z</time>
      </trkpt>
      <trkpt lat="50.19934" lon="1.51351">
        <ele>9.4</ele>
        <time>2013-03-23T15:00:32Z</time>
      </trkpt>
      <trkpt lat="50.19927" lon="1.51352">
        <ele>9.4</ele>
        <time>2013-03-23T15:00:40Z</time>
      </trkpt>
      <trkpt lat="50.19919" lon="1.51353">
        <ele>9.4</ele>
        <time>2013-03-23T15:00:48Z</time>
      </trkpt>
      <trkpt lat="50.19911" lon="1.51356">
        <ele>9.4</ele>
        <time>2013-03-23T15:00:58Z</time>
      </trkpt>
      <trkpt lat="50.19911" lon="1.51357">
        <ele>9.4</ele>
        <time>2013-03-23T15:01:09Z</time>
      </trkpt>
      <trkpt lat="50.1991" lon="1.51347">
        <ele>9.4</ele>
        <time>2013-03-23T15:03:56Z</time>
      </trkpt>
      <trkpt lat="50.19906" lon="1.51341">
        <ele>9.4</ele>
        <time>2013-03-23T15:04:02Z</time>
      </trkpt>
      <trkpt lat="50.19902" lon="1.51334">
        <ele>9.4</ele>
        <time>2013-03-23T15:04:09Z</time>
      </trkpt>
      <trkpt lat="50.19898" lon="1.51324">
        <ele>9.4</ele>
        <time>2013-03-23T15:04:18Z</time>
      </trkpt>
      <trkpt lat="50.19894" lon="1.51317">
        <ele>9.4</ele>
        <time>2013-03-23T15:04:25Z</time>
      </trkpt>
      <trkpt lat="50.19889" lon="1.51309">
        <ele>9.4</ele>
        <time>2013-03-23T15:04:32Z</time>
      </trkpt>
      <trkpt lat="50.19883" lon="1.51296">
        <ele>9.4</ele>
        <time>2013-03-23T15:04:42Z</time>
      </trkpt>
      <trkpt lat="50.19877" lon="1.51285">
        <ele>9.4</ele>
        <time>2013-03-23T15:04:51Z</time>
      </trkpt>
      <trkpt lat="50.19871" lon="1.51277">
        <ele>9.4</ele>
        <time>2013-03-23T15:04:59Z</time>
      </trkpt>
      <trkpt lat="50.19864" lon="1.51269">
        <ele>9.4</ele>
        <time>2013-03-23T15:05:07Z</time>
      </trkpt>
      <trkpt lat="50.19861" lon="1.51258">
        <ele>9.4</ele>
        <time>2013-03-23T15:05:15Z</time>
      </trkpt>
      <trkpt lat="50.19861" lon="1.51254">
        <ele>9.4</ele>
        <time>2013-03-23T15:05:17Z</time>
      </trkpt>
      <trkpt lat="50.19854" lon="1.51249">
        <ele>9.4</ele>
        <time>2013-03-23T15:05:25Z</time>
      </trkpt>
      <trkpt lat="50.19848" lon="1.51247">
        <ele>9.4</ele>
        <time>2013-03-23T15:05:30Z</time>
      </trkpt>
      <trkpt lat="50.19843" lon="1.51234">
        <ele>9.4</ele>
        <time>2013-03-23T15:05:39Z</time>
      </trkpt>
      <trkpt lat="50.19835" lon="1.51219">
        <ele>8</ele>
        <time>2013-03-23T15:05:49Z</time>
      </trkpt>
      <trkpt lat="50.19831" lon="1.51209">
        <ele>7.8</ele>
        <time>2013-03-23T15:05:56Z</time>
      </trkpt>
      <trkpt lat="50.1983" lon="1.51202">
        <ele>7.6</ele>
        <time>2013-03-23T15:06:01Z</time>
      </trkpt>
      <trkpt lat="50.19827" lon="1.51191">
        <ele>7.4</ele>
        <time>2013-03-23T15:06:09Z</time>
      </trkpt>
      <trkpt lat="50.19819" lon="1.51186">
        <ele>7.4</ele>
        <time>2013-03-23T15:06:17Z</time>
      </trkpt>
      <trkpt lat="50.19815" lon="1.51185">
        <ele>7.4</ele>
        <time>2013-03-23T15:06:20Z</time>
      </trkpt>
      <trkpt lat="50.19807" lon="1.51174">
        <ele>7.4</ele>
        <time>2013-03-23T15:06:30Z</time>
      </trkpt>
      <trkpt lat="50.198" lon="1.51168">
        <ele>7.4</ele>
        <time>2013-03-23T15:06:38Z</time>
      </trkpt>
      <trkpt lat="50.19797" lon="1.51165">
        <ele>7.4</ele>
        <time>2013-03-23T15:06:42Z</time>
      </trkpt>
      <trkpt lat="50.19791" lon="1.51158">
        <ele>7.4</ele>
        <time>2013-03-23T15:06:50Z</time>
      </trkpt>
      <trkpt lat="50.19784" lon="1.5115">
        <ele>7.4</ele>
        <time>2013-03-23T15:06:59Z</time>
      </trkpt>
      <trkpt lat="50.19783" lon="1.51138">
        <ele>7.4</ele>
        <time>2013-03-23T15:07:06Z</time>
      </trkpt>
      <trkpt lat="50.1978" lon="1.51127">
        <ele>7.4</ele>
        <time>2013-03-23T15:07:14Z</time>
      </trkpt>
      <trkpt lat="50.19776" lon="1.51123">
        <ele>7.4</ele>
        <time>2013-03-23T15:07:19Z</time>
      </trkpt>
      <trkpt lat="50.19767" lon="1.51125">
        <ele>7.4</ele>
        <time>2013-03-23T15:07:28Z</time>
      </trkpt>
      <trkpt lat="50.19758" lon="1.51127">
        <ele>7.4</ele>
        <time>2013-03-23T15:07:37Z</time>
      </trkpt>
      <trkpt lat="50.19754" lon="1.51127">
        <ele>7.4</ele>
        <time>2013-03-23T15:07:43Z</time>
      </trkpt>
      <trkpt lat="50.19749" lon="1.51125">
        <ele>8.4</ele>
        <time>2013-03-23T15:07:50Z</time>
      </trkpt>
      <trkpt lat="50.19743" lon="1.51128">
        <ele>8.8</ele>
        <time>2013-03-23T15:07:56Z</time>
      </trkpt>
      <trkpt lat="50.19736" lon="1.5113">
        <ele>9.2</ele>
        <time>2013-03-23T15:08:02Z</time>
      </trkpt>
      <trkpt lat="50.19728" lon="1.51136">
        <ele>9.4</ele>
        <time>2013-03-23T15:08:10Z</time>
      </trkpt>
      <trkpt lat="50.19727" lon="1.51136">
        <ele>9.4</ele>
        <time>2013-03-23T15:08:18Z</time>
      </trkpt>
      <trkpt lat="50.19723" lon="1.51138">
        <ele>10.8</ele>
        <time>2013-03-23T15:08:34Z</time>
      </trkpt>
      <trkpt lat="50.19717" lon="1.51132">
        <ele>11.2</ele>
        <time>2013-03-23T15:08:42Z</time>
      </trkpt>
      <trkpt lat="50.19713" lon="1.51129">
        <ele>11.4</ele>
        <time>2013-03-23T15:08:47Z</time>
      </trkpt>
      <trkpt lat="50.19707" lon="1.51127">
        <ele>11.4</ele>
        <time>2013-03-23T15:08:53Z</time>
      </trkpt>
      <trkpt lat="50.19697" lon="1.51122">
        <ele>11.4</ele>
        <time>2013-03-23T15:09:03Z</time>
      </trkpt>
      <trkpt lat="50.19688" lon="1.51115">
        <ele>11.4</ele>
        <time>2013-03-23T15:09:12Z</time>
      </trkpt>
      <trkpt lat="50.1968" lon="1.5111">
        <ele>11.4</ele>
        <time>2013-03-23T15:09:19Z</time>
      </trkpt>
      <trkpt lat="50.19672" lon="1.51099">
        <ele>11.4</ele>
        <time>2013-03-23T15:09:28Z</time>
      </trkpt>
      <trkpt lat="50.19668" lon="1.5109">
        <ele>11.4</ele>
        <time>2013-03-23T15:09:35Z</time>
      </trkpt>
      <trkpt lat="50.19662" lon="1.51081">
        <ele>11.4</ele>
        <time>2013-03-23T15:09:43Z</time>
      </trkpt>
      <trkpt lat="50.19655" lon="1.51075">
        <ele>11.4</ele>
        <time>2013-03-23T15:09:50Z</time>
      </trkpt>
      <trkpt lat="50.19651" lon="1.51063">
        <ele>11.4</ele>
        <time>2013-03-23T15:09:59Z</time>
      </trkpt>
      <trkpt lat="50.19649" lon="1.51058">
        <ele>11.4</ele>
        <time>2013-03-23T15:10:03Z</time>
      </trkpt>
      <trkpt lat="50.19641" lon="1.51049">
        <ele>10.4</ele>
        <time>2013-03-23T15:10:12Z</time>
      </trkpt>
      <trkpt lat="50.19632" lon="1.51042">
        <ele>9.8</ele>
        <time>2013-03-23T15:10:21Z</time>
      </trkpt>
      <trkpt lat="50.19624" lon="1.51034">
        <ele>9.6</ele>
        <time>2013-03-23T15:10:30Z</time>
      </trkpt>
      <trkpt lat="50.19616" lon="1.51024">
        <ele>9.6</ele>
        <time>2013-03-23T15:10:39Z</time>
      </trkpt>
      <trkpt lat="50.19608" lon="1.51013">
        <ele>9.4</ele>
        <time>2013-03-23T15:10:49Z</time>
      </trkpt>
      <trkpt lat="50.19601" lon="1.51006">
        <ele>9.4</ele>
        <time>2013-03-23T15:10:57Z</time>
      </trkpt>
      <trkpt lat="50.19593" lon="1.51">
        <ele>9.4</ele>
        <time>2013-03-23T15:11:05Z</time>
      </trkpt>
      <trkpt lat="50.19584" lon="1.50993">
        <ele>9.4</ele>
        <time>2013-03-23T15:11:14Z</time>
      </trkpt>
      <trkpt lat="50.19575" lon="1.50985">
        <ele>9.4</ele>
        <time>2013-03-23T15:11:23Z</time>
      </trkpt>
      <trkpt lat="50.19566" lon="1.50978">
        <ele>9.4</ele>
        <time>2013-03-23T15:11:32Z</time>
      </trkpt>
      <trkpt lat="50.19559" lon="1.50969">
        <ele>9.4</ele>
        <time>2013-03-23T15:11:41Z</time>
      </trkpt>
      <trkpt lat="50.19552" lon="1.50959">
        <ele>9.4</ele>
        <time>2013-03-23T15:11:50Z</time>
      </trkpt>
      <trkpt lat="50.19544" lon="1.50947">
        <ele>9.4</ele>
        <time>2013-03-23T15:12:00Z</time>
      </trkpt>
      <trkpt lat="50.19537" lon="1.50936">
        <ele>9.4</ele>
        <time>2013-03-23T15:12:09Z</time>
      </trkpt>
      <trkpt lat="50.19529" lon="1.50923">
        <ele>9.4</ele>
        <time>2013-03-23T15:12:20Z</time>
      </trkpt>
      <trkpt lat="50.19522" lon="1.50913">
        <ele>9.4</ele>
        <time>2013-03-23T15:12:29Z</time>
      </trkpt>
      <trkpt lat="50.19513" lon="1.50902">
        <ele>9.4</ele>
        <time>2013-03-23T15:12:39Z</time>
      </trkpt>
      <trkpt lat="50.19507" lon="1.50896">
        <ele>9.4</ele>
        <time>2013-03-23T15:12:47Z</time>
      </trkpt>
      <trkpt lat="50.19503" lon="1.50893">
        <ele>9.4</ele>
        <time>2013-03-23T15:12:54Z</time>
      </trkpt>
      <trkpt lat="50.19501" lon="1.50892">
        <ele>9.4</ele>
        <time>2013-03-23T15:13:01Z</time>
      </trkpt>
      <trkpt lat="50.19501" lon="1.5089">
        <ele>9.4</ele>
        <time>2013-03-23T15:13:19Z</time>
      </trkpt>
      <trkpt lat="50.19498" lon="1.50887">
        <ele>9.4</ele>
        <time>2013-03-23T15:13:40Z</time>
      </trkpt>
      <trkpt lat="50.19497" lon="1.50885">
        <ele>9</ele>
        <time>2013-03-23T15:14:06Z</time>
      </trkpt>
      <trkpt lat="50.19497" lon="1.50884">
        <ele>7.6</ele>
        <time>2013-03-23T15:14:24Z</time>
      </trkpt>
      <trkpt lat="50.19495" lon="1.50883">
        <ele>7.4</ele>
        <time>2013-03-23T15:14:50Z</time>
      </trkpt>
      <trkpt lat="50.19491" lon="1.50881">
        <ele>7.4</ele>
        <time>2013-03-23T15:15:00Z</time>
      </trkpt>
      <trkpt lat="50.19486" lon="1.50876">
        <ele>7.4</ele>
        <time>2013-03-23T15:15:07Z</time>
      </trkpt>
      <trkpt lat="50.19482" lon="1.50869">
        <ele>7.4</ele>
        <time>2013-03-23T15:15:14Z</time>
      </trkpt>
      <trkpt lat="50.19476" lon="1.50863">
        <ele>7.4</ele>
        <time>2013-03-23T15:15:22Z</time>
      </trkpt>
      <trkpt lat="50.1947" lon="1.50857">
        <ele>7.4</ele>
        <time>2013-03-23T15:15:29Z</time>
      </trkpt>
      <trkpt lat="50.19462" lon="1.50848">
        <ele>7.4</ele>
        <time>2013-03-23T15:15:38Z</time>
      </trkpt>
      <trkpt lat="50.19455" lon="1.50839">
        <ele>7.4</ele>
        <time>2013-03-23T15:15:46Z</time>
      </trkpt>
      <trkpt lat="50.19448" lon="1.5083">
        <ele>7.4</ele>
        <time>2013-03-23T15:15:55Z</time>
      </trkpt>
      <trkpt lat="50.19444" lon="1.50823">
        <ele>7.4</ele>
        <time>2013-03-23T15:16:01Z</time>
      </trkpt>
      <trkpt lat="50.1944" lon="1.50819">
        <ele>7.4</ele>
        <time>2013-03-23T15:16:05Z</time>
      </trkpt>
      <trkpt lat="50.19433" lon="1.50809">
        <ele>7.4</ele>
        <time>2013-03-23T15:16:14Z</time>
      </trkpt>
      <trkpt lat="50.19427" lon="1.50801">
        <ele>7.4</ele>
        <time>2013-03-23T15:16:22Z</time>
      </trkpt>
      <trkpt lat="50.19419" lon="1.5079">
        <ele>7.4</ele>
        <time>2013-03-23T15:16:31Z</time>
      </trkpt>
      <trkpt lat="50.19412" lon="1.5078">
        <ele>7.4</ele>
        <time>2013-03-23T15:16:40Z</time>
      </trkpt>
      <trkpt lat="50.19405" lon="1.50769">
        <ele>7.4</ele>
        <time>2013-03-23T15:16:49Z</time>
      </trkpt>
      <trkpt lat="50.19397" lon="1.50759">
        <ele>7.4</ele>
        <time>2013-03-23T15:16:58Z</time>
      </trkpt>
      <trkpt lat="50.1939" lon="1.50749">
        <ele>7.4</ele>
        <time>2013-03-23T15:17:07Z</time>
      </trkpt>
      <trkpt lat="50.1939" lon="1.50749">
        <ele>7.6</ele>
        <time>2013-03-23T15:17:08Z</time>
      </trkpt>
      <trkpt lat="50.19383" lon="1.50745">
        <ele>8.6</ele>
        <time>2013-03-23T15:17:16Z</time>
      </trkpt>
      <trkpt lat="50.19375" lon="1.5074">
        <ele>9</ele>
        <time>2013-03-23T15:17:24Z</time>
      </trkpt>
      <trkpt lat="50.19372" lon="1.50738">
        <ele>9.2</ele>
        <time>2013-03-23T15:17:27Z</time>
      </trkpt>
      <trkpt lat="50.19364" lon="1.50739">
        <ele>9.4</ele>
        <time>2013-03-23T15:17:34Z</time>
      </trkpt>
      <trkpt lat="50.19363" lon="1.50738">
        <ele>9.4</ele>
        <time>2013-03-23T15:17:35Z</time>
      </trkpt>
      <trkpt lat="50.19353" lon="1.50748">
        <ele>9.4</ele>
        <time>2013-03-23T15:17:47Z</time>
      </trkpt>
      <trkpt lat="50.19347" lon="1.50754">
        <ele>9.4</ele>
        <time>2013-03-23T15:17:54Z</time>
      </trkpt>
      <trkpt lat="50.19342" lon="1.50765">
        <ele>9.4</ele>
        <time>2013-03-23T15:18:03Z</time>
      </trkpt>
      <trkpt lat="50.19341" lon="1.50766">
        <ele>9.4</ele>
        <time>2013-03-23T15:18:04Z</time>
      </trkpt>
      <trkpt lat="50.1934" lon="1.50772">
        <ele>9.4</ele>
        <time>2013-03-23T15:18:09Z</time>
      </trkpt>
      <trkpt lat="50.19337" lon="1.50788">
        <ele>9.4</ele>
        <time>2013-03-23T15:18:19Z</time>
      </trkpt>
      <trkpt lat="50.19336" lon="1.50789">
        <ele>9.4</ele>
        <time>2013-03-23T15:18:20Z</time>
      </trkpt>
      <trkpt lat="50.19333" lon="1.50803">
        <ele>9.4</ele>
        <time>2013-03-23T15:18:29Z</time>
      </trkpt>
      <trkpt lat="50.19328" lon="1.50817">
        <ele>9.4</ele>
        <time>2013-03-23T15:18:38Z</time>
      </trkpt>
      <trkpt lat="50.19327" lon="1.50822">
        <ele>9.4</ele>
        <time>2013-03-23T15:18:41Z</time>
      </trkpt>
      <trkpt lat="50.19325" lon="1.50829">
        <ele>9.4</ele>
        <time>2013-03-23T15:18:46Z</time>
      </trkpt>
      <trkpt lat="50.19319" lon="1.50834">
        <ele>9.4</ele>
        <time>2013-03-23T15:18:52Z</time>
      </trkpt>
      <trkpt lat="50.19314" lon="1.50834">
        <ele>9.4</ele>
        <time>2013-03-23T15:18:57Z</time>
      </trkpt>
      <trkpt lat="50.19312" lon="1.50836">
        <ele>9.4</ele>
        <time>2013-03-23T15:18:59Z</time>
      </trkpt>
      <trkpt lat="50.19308" lon="1.50837">
        <ele>9.4</ele>
        <time>2013-03-23T15:19:03Z</time>
      </trkpt>
      <trkpt lat="50.19301" lon="1.50834">
        <ele>9.4</ele>
        <time>2013-03-23T15:19:10Z</time>
      </trkpt>
      <trkpt lat="50.19294" lon="1.50839">
        <ele>9.4</ele>
        <time>2013-03-23T15:19:18Z</time>
      </trkpt>
      <trkpt lat="50.19291" lon="1.50837">
        <ele>9.4</ele>
        <time>2013-03-23T15:19:21Z</time>
      </trkpt>
      <trkpt lat="50.19289" lon="1.50835">
        <ele>9.8</ele>
        <time>2013-03-23T15:19:23Z</time>
      </trkpt>
      <trkpt lat="50.19287" lon="1.50836">
        <ele>10.2</ele>
        <time>2013-03-23T15:19:26Z</time>
      </trkpt>
      <trkpt lat="50.19279" lon="1.50841">
        <ele>11</ele>
        <time>2013-03-23T15:19:35Z</time>
      </trkpt>
      <trkpt lat="50.19277" lon="1.50842">
        <ele>11.2</ele>
        <time>2013-03-23T15:19:40Z</time>
      </trkpt>
      <trkpt lat="50.19276" lon="1.50842">
        <ele>11.2</ele>
        <time>2013-03-23T15:19:41Z</time>
      </trkpt>
      <trkpt lat="50.19272" lon="1.50834">
        <ele>11.4</ele>
        <time>2013-03-23T15:19:47Z</time>
      </trkpt>
      <trkpt lat="50.19266" lon="1.50826">
        <ele>11.4</ele>
        <time>2013-03-23T15:19:54Z</time>
      </trkpt>
      <trkpt lat="50.19265" lon="1.50821">
        <ele>11.4</ele>
        <time>2013-03-23T15:19:58Z</time>
      </trkpt>
      <trkpt lat="50.19266" lon="1.50819">
        <ele>11.4</ele>
        <time>2013-03-23T15:20:00Z</time>
      </trkpt>
      <trkpt lat="50.19266" lon="1.50812">
        <ele>11.4</ele>
        <time>2013-03-23T15:20:05Z</time>
      </trkpt>
      <trkpt lat="50.19258" lon="1.50809">
        <ele>12.2</ele>
        <time>2013-03-23T15:20:12Z</time>
      </trkpt>
      <trkpt lat="50.19248" lon="1.50808">
        <ele>13</ele>
        <time>2013-03-23T15:20:21Z</time>
      </trkpt>
      <trkpt lat="50.19246" lon="1.50809">
        <ele>13.2</ele>
        <time>2013-03-23T15:20:23Z</time>
      </trkpt>
      <trkpt lat="50.19246" lon="1.50821">
        <ele>13.4</ele>
        <time>2013-03-23T15:20:31Z</time>
      </trkpt>
      <trkpt lat="50.19246" lon="1.50822">
        <ele>13.4</ele>
        <time>2013-03-23T15:20:32Z</time>
      </trkpt>
      <trkpt lat="50.19246" lon="1.50827">
        <ele>13.4</ele>
        <time>2013-03-23T15:20:35Z</time>
      </trkpt>
      <trkpt lat="50.19244" lon="1.50831">
        <ele>13.4</ele>
        <time>2013-03-23T15:20:40Z</time>
      </trkpt>
      <trkpt lat="50.19237" lon="1.50842">
        <ele>13.4</ele>
        <time>2013-03-23T15:20:52Z</time>
      </trkpt>
    </trkseg>
  </trk>
</gpx>